[[{"header":{"parameterUnit":"m.s-1","parameterCategory":1,"la1":30.6,"la2":28.766,"lo1":-90.7593,"lo2":-88.6598,"dy":0.0162,"dx":0.0183,"nx":116,"ny":114,"refTime":"2023-10-11T12:00:00:Z","depth":0,"parameterNumber":2,"parameterNumberName":"U-component_of_WINDS"},"data":[0.0,0.0,0.0,0.0,0.0,0.0,0.0,0.0,0.0,0.0,0.0,0.0,0.0,0.0,0.0,0.0,0.0,0.0,0.0,0.0,0.0,0.0,0.0,0.0,0.0,0.0,0.0,0.0,0.0,0.0,0.0,0.0,0.0,0.0,0.0,0.0,0.0,0.0,0.0,0.0,0.0,0.0,0.0,0.0,0.0,0.0,0.0,0.0,0.0,0.0,0.0,0.0,0.0,0.0,0.0,0.0,0.0,0.0,0.0,0.0,0.0,0.0,0.0,0.0,0.0,0.0,0.0,0.0,0.0,0.0,0.0,0.0,0.0,0.0,0.0,0.0,0.0,0.0,0.0,0.0,0.0,0.0,0.0,0.0,0.0,0.0,0.0,0.0,0.0,0.0,0.0,0.0,0.0,0.0,0.0,0.0,0.0,0.0,0.0,0.0,0.0,0.0,0.0,0.0,0.0,0.0,0.0,0.0,0.0,0.0,0.0,0.0,0.0,0.0,0.0,0.0,0.0,0.0,0.0,0.0,0.0,0.0,0.0,0.0,0.0,0.0,0.0,0.0,0.0,0.0,0.0,0.0,0.0,0.0,0.0,0.0,0.0,0.0,0.0,0.0,0.0,0.0,0.0,0.0,0.0,0.0,0.0,0.0,0.0,0.0,0.0,0.0,0.0,0.0,0.0,0.0,0.0,0.0,0.0,0.0,0.0,0.0,0.0,0.0,0.0,0.0,0.0,0.0,0.0,0.0,0.0,0.0,0.0,0.0,0.0,0.0,0.0,0.0,0.0,0.0,0.0,0.0,0.0,0.0,0.0,0.0,0.0,0.0,0.0,0.0,0.0,0.0,0.0,0.0,0.0,0.0,0.0,0.0,0.0,0.0,0.0,0.0,0.0,0.0,0.0,0.0,0.0,0.0,0.0,0.0,0.0,0.0,0.0,0.0,0.0,0.0,0.0,0.0,0.0,0.0,0.0,0.0,0.0,0.0,0.0,0.0,0.0,0.0,0.0,0.0,0.0,0.0,0.0,0.0,0.0,0.0,0.0,0.0,0.0,0.0,0.0,0.0,0.0,0.0,0.0,0.0,0.0,0.0,0.0,0.0,0.0,0.0,0.0,0.0,0.0,0.0,0.0,0.0,0.0,0.0,0.0,0.0,0.0,0.0,0.0,0.0,0.0,0.0,0.0,0.0,0.0,0.0,0.0,0.0,0.0,0.0,0.0,0.0,0.0,0.0,0.0,0.0,0.0,0.0,0.0,0.0,0.0,0.0,0.0,0.0,0.0,0.0,0.0,0.0,0.0,0.0,0.0,0.0,0.0,0.0,0.0,0.0,0.0,0.0,0.0,0.0,0.0,0.0,0.0,0.0,0.0,0.0,0.0,0.0,0.0,0.0,0.0,0.0,0.0,0.0,0.0,0.0,0.0,0.0,0.0,0.0,0.0,0.0,0.0,0.0,0.0,0.0,0.0,0.0,0.0,0.0,0.0,0.0,0.0,0.0,0.0,0.0,0.0,0.0,0.0,0.0,0.0,0.0,0.0,0.0,0.0,0.0,0.0,0.0,0.0,0.0,0.0,0.0,0.0,0.0,0.0,0.0,0.0,0.0,0.0,0.0,0.0,0.0,0.0,0.0,0.0,0.0,0.0,0.0,0.0,0.0,0.0,0.0,0.0,0.0,0.0,0.0,0.0,0.0,0.0,0.0,0.0,0.0,0.0,0.0,0.0,0.0,0.0,0.0,0.0,0.0,0.0,0.0,0.0,0.0,0.0,0.0,0.0,0.0,0.0,0.0,0.0,0.0,0.0,0.0,0.0,0.0,0.0,0.0,0.0,0.0,0.0,0.0,0.0,0.0,0.0,0.0,0.0,0.0,0.0,0.0,0.0,0.0,0.0,0.0,0.0,0.0,0.0,0.0,0.0,0.0,0.0,0.0,0.0,0.0,0.0,0.0,0.0,0.0,0.0,0.0,0.0,0.0,0.0,0.0,0.0,0.0,0.0,0.0,0.0,0.0,0.0,0.0,0.0,0.0,0.0,0.0,0.0,0.0,0.0,0.0,0.0,0.0,0.0,0.0,0.0,0.0,0.0,0.0,0.0,0.0,0.0,0.0,0.0,0.0,0.0,0.0,0.0,0.0,0.0,0.0,0.0,0.0,0.0,0.0,0.0,0.0,0.0,0.0,0.0,0.0,0.0,0.0,0.0,0.0,0.0,0.0,0.0,0.0,0.0,0.0,0.0,0.0,0.0,0.0,0.0,0.0,0.0,0.0,0.0,0.0,0.0,0.0,0.0,0.0,0.0,0.0,0.0,0.0,0.0,0.0,0.0,0.0,0.0,0.0,0.0,0.0,0.0,0.0,0.0,0.0,0.0,0.0,0.0,0.0,0.0,0.0,0.0,0.0,0.0,0.0,0.0,0.0,0.0,0.0,0.0,0.0,0.0,0.0,0.0,0.0,0.0,0.0,0.0,0.0,0.0,0.0,0.0,0.0,0.0,0.0,0.0,0.0,0.0,0.0,0.0,0.0,0.0,0.0,0.0,0.0,0.0,0.0,0.0,0.0,0.0,0.0,0.0,0.0,0.0,0.0,0.0,0.0,0.0,0.0,0.0,0.0,0.0,0.0,0.0,0.0,0.0,0.0,0.0,0.0,0.0,0.0,0.0,0.0,0.0,0.0,0.0,0.0,0.0,0.0,0.0,0.0,0.0,0.0,0.0,0.0,0.0,0.0,0.0,0.0,0.0,0.0,0.0,0.0,0.0,0.0,0.0,0.0,0.0,0.0,0.0,0.0,0.0,0.0,0.0,0.0,0.0,0.0,0.0,0.0,0.0,0.0,0.0,0.0,0.0,0.0,0.0,0.0,0.0,0.0,0.0,0.0,0.0,0.0,0.0,0.0,0.0,0.0,0.0,0.0,0.0,0.0,0.0,0.0,0.0,0.0,0.0,0.0,0.0,0.0,0.0,0.0,0.0,0.0,0.0,0.0,0.0,0.0,0.0,0.0,0.0,0.0,0.0,0.0,0.0,0.0,0.0,0.0,0.0,0.0,0.0,0.0,0.0,0.0,0.0,0.0,0.0,0.0,0.0,0.0,0.0,0.0,0.0,0.0,0.0,0.0,0.0,0.0,0.0,0.0,0.0,0.0,0.0,0.0,0.0,0.0,0.0,0.0,0.0,0.0,0.0,0.0,0.0,0.0,0.0,0.0,0.0,0.0,0.0,0.0,0.0,0.0,0.0,0.0,0.0,0.0,0.0,0.0,0.0,0.0,0.0,0.0,0.0,0.0,0.0,0.0,0.0,0.0,0.0,0.0,0.0,0.0,0.0,0.0,0.0,0.0,0.0,0.0,0.0,0.0,0.0,0.0,0.0,0.0,0.0,0.0,0.0,0.0,0.0,0.0,0.0,0.0,0.0,0.0,0.0,0.0,0.0,0.0,0.0,0.0,0.0,0.0,0.0,0.0,0.0,0.0,0.0,0.0,0.0,0.0,0.0,0.0,0.0,0.0,0.0,0.0,0.0,0.0,0.0,0.0,0.0,0.0,0.0,0.0,0.0,0.0,0.0,0.0,0.0,0.0,0.0,0.0,0.0,0.0,0.0,0.0,0.0,0.0,0.0,0.0,0.0,0.0,0.0,0.0,0.0,0.0,0.0,0.0,0.0,0.0,0.0,0.0,0.0,0.0,0.0,0.0,0.0,0.0,0.0,0.0,0.0,0.0,0.0,0.0,0.0,0.0,0.0,0.0,0.0,0.0,0.0,0.0,0.0,0.0,0.0,0.0,0.0,0.0,0.0,0.0,0.0,0.0,0.0,0.0,0.0,0.0,0.0,0.0,0.0,0.0,0.0,0.0,0.0,0.0,0.0,0.0,0.0,0.0,0.0,0.0,0.0,0.0,0.0,0.0,0.0,0.0,0.0,0.0,0.0,0.0,0.0,0.0,0.0,0.0,0.0,0.0,0.0,0.0,0.0,0.0,0.0,0.0,0.0,0.0,0.0,0.0,0.0,0.0,0.0,0.0,0.0,0.0,0.0,0.0,0.0,0.0,0.0,0.0,0.0,0.0,0.0,0.0,0.0,0.0,0.0,0.0,0.0,0.0,0.0,0.0,0.0,0.0,0.0,0.0,0.0,0.0,0.0,0.0,0.0,0.0,0.0,0.0,0.0,0.0,0.0,0.0,0.0,0.0,0.0,0.0,0.0,0.0,0.0,0.0,0.0,0.0,0.0,0.0,0.0,0.0,0.0,0.0,0.0,0.0,0.0,0.0,0.0,0.0,0.0,0.0,0.0,0.0,0.0,0.0,0.0,0.0,0.0,0.0,0.0,0.0,0.0,0.0,0.0,0.0,0.0,0.0,0.0,0.0,0.0,0.0,0.0,0.0,0.0,0.0,0.0,0.0,0.0,0.0,0.0,0.0,0.0,0.0,0.0,0.0,0.0,0.0,0.0,0.0,0.0,0.0,0.0,0.0,0.0,0.0,0.0,0.0,0.0,0.0,0.0,0.0,0.0,0.0,0.0,0.0,0.0,0.0,0.0,0.0,0.0,0.0,0.0,0.0,0.0,0.0,0.0,0.0,0.0,0.0,0.0,0.0,0.0,0.0,0.0,0.0,0.0,0.0,0.0,0.0,0.0,0.0,0.0,0.0,0.0,0.0,0.0,0.0,0.0,0.0,0.0,0.0,0.0,0.0,0.0,0.0,0.0,0.0,0.0,0.0,0.0,0.0,0.0,0.0,0.0,0.0,0.0,0.0,0.0,0.0,0.0,0.0,0.0,0.0,0.0,0.0,0.0,0.0,0.0,0.0,0.0,0.0,0.0,0.0,0.0,0.0,0.0,0.0,0.0,0.0,0.0,0.0,0.0,0.0,0.0,0.0,0.0,0.0,0.0,0.0,0.0,0.0,0.0,0.0,0.0,0.0,0.0,0.0,0.0,0.0,0.0,0.0,0.0,0.0,0.0,0.0,0.0,0.0,0.0,0.0,0.0,0.0,0.0,0.0,0.0,0.0,0.0,0.0,0.0,0.0,0.0,0.0,0.0,0.0,0.0,0.0,0.0,0.0,0.0,0.0,0.0,0.0,0.0,0.0,0.0,0.0,0.0,0.0,0.0,0.0,0.0,0.0,0.0,0.0,0.0,0.0,0.0,0.0,0.0,0.0,0.0,0.0,0.0,0.0,0.0,0.0,0.0,0.0,0.0,0.0,0.0,0.0,0.0,0.0,0.0,0.0,0.0,0.0,0.0,0.0,0.0,0.0,0.0,0.0,0.0,0.0,0.0,0.0,0.0,0.0,0.0,0.0,0.0,0.0,0.0,0.0,0.0,0.0,0.0,0.0,0.0,0.0,0.0,0.0,0.0,0.0,0.0,0.0,0.0,0.0,0.0,0.0,0.0,0.0,0.0,0.0,0.0,0.0,0.0,0.0,0.0,0.0,0.0,0.0,0.0,0.0,0.0,0.0,0.0,0.0,0.0,0.0,0.0,0.0,0.0,0.0,0.0,0.0,0.0,0.0,0.0,0.0,0.0,0.0,0.0,0.0,0.0,0.0,0.0,0.0,0.0,0.0,0.0,0.0,0.0,0.0,0.0,0.0,0.0,0.0,0.0,0.0,0.0,0.0,0.0,0.0,0.0,0.0,0.0,0.0,0.0,0.0,0.0,0.0,0.0,0.0,0.0,0.0,0.0,0.0,0.0,0.0,0.0,0.0,0.0,0.0,0.0,0.0,0.0,0.0,0.0,0.0,0.0,0.0,0.0,0.0,0.0,0.0,0.0,0.0,0.0,0.0,0.0,0.0,0.0,0.0,0.0,0.0,0.0,0.0,0.0,0.0,0.0,0.0,0.0,0.0,0.0,0.0,0.0,0.0,0.0,0.0,0.0,0.0,0.0,0.0,0.0,0.0,0.0,0.0,0.0,0.0,0.0,0.0,0.0,0.0,0.0,0.0,0.0,0.0,0.0,0.0,0.0,0.0,0.0,0.0,0.0,0.0,0.0,0.0,0.0,0.0,0.0,0.0,0.0,0.0,0.0,0.0,0.0,0.0,0.0,0.0,0.0,0.0,0.0,0.0,0.0,0.0,0.0,0.0,0.0,0.0,6.0026,0.0,0.0,0.0,0.0,0.0,0.0,0.0,0.0,0.0,0.0,0.0,0.0,0.0,0.0,0.0,0.0,0.0,0.0,0.0,0.0,0.0,0.0,0.0,0.0,0.0,0.0,0.0,0.0,0.0,0.0,0.0,0.0,0.0,0.0,0.0,0.0,0.0,0.0,0.0,0.0,0.0,0.0,0.0,0.0,0.0,0.0,0.0,0.0,0.0,0.0,0.0,0.0,0.0,0.0,0.0,0.0,0.0,0.0,0.0,0.0,0.0,0.0,0.0,0.0,0.0,0.0,0.0,0.0,0.0,0.0,0.0,0.0,0.0,0.0,0.0,0.0,0.0,0.0,0.0,0.0,0.0,0.0,0.0,0.0,0.0,0.0,0.0,0.0,0.0,0.0,0.0,0.0,0.0,0.0,0.0,0.0,0.0,0.0,0.0,0.0,0.0,0.0,0.0,0.0,0.0,0.0,0.0,0.0,0.0,0.0,0.0,0.0,0.0,0.0,0.0,0.0,6.0942,0.0,0.0,0.0,0.0,0.0,0.0,0.0,0.0,0.0,0.0,0.0,0.0,0.0,0.0,0.0,0.0,0.0,0.0,0.0,0.0,0.0,0.0,0.0,0.0,0.0,0.0,0.0,0.0,0.0,0.0,0.0,0.0,0.0,0.0,0.0,0.0,0.0,0.0,0.0,0.0,0.0,0.0,0.0,0.0,0.0,0.0,0.0,0.0,0.0,0.0,0.0,0.0,0.0,0.0,0.0,0.0,0.0,0.0,0.0,0.0,0.0,0.0,0.0,0.0,0.0,0.0,0.0,0.0,0.0,0.0,0.0,0.0,0.0,0.0,0.0,0.0,0.0,0.0,0.0,0.0,0.0,0.0,0.0,0.0,0.0,0.0,0.0,0.0,0.0,0.0,0.0,0.0,0.0,0.0,0.0,0.0,0.0,0.0,0.0,0.0,0.0,0.0,0.0,0.0,0.0,0.0,0.0,0.0,6.2119,6.2666,6.332,6.332,6.3474,6.3743,6.3051,6.2974,6.332,0.0,0.0,0.0,0.0,0.0,0.0,0.0,0.0,0.0,0.0,0.0,0.0,0.0,0.0,0.0,0.0,0.0,0.0,0.0,0.0,0.0,0.0,0.0,0.0,0.0,0.0,0.0,0.0,0.0,0.0,0.0,0.0,0.0,0.0,0.0,0.0,0.0,0.0,0.0,0.0,0.0,0.0,0.0,0.0,0.0,0.0,0.0,0.0,0.0,0.0,0.0,0.0,0.0,0.0,0.0,0.0,0.0,0.0,0.0,0.0,0.0,0.0,0.0,0.0,0.0,0.0,0.0,0.0,0.0,0.0,0.0,0.0,0.0,0.0,0.0,0.0,0.0,0.0,0.0,0.0,0.0,0.0,0.0,0.0,0.0,0.0,0.0,5.6779,5.7175,0.0,0.0,0.0,0.0,0.0,0.0,0.0,0.0,0.0,0.0,0.0,0.0,0.0,6.2081,6.2772,6.2836,6.2938,6.3053,6.3103,6.3205,6.332,6.332,6.4128,6.5551,6.5436,0.0,6.332,6.332,0.0,0.0,0.0,0.0,0.0,0.0,0.0,0.0,0.0,0.0,0.0,0.0,0.0,0.0,0.0,0.0,0.0,0.0,0.0,0.0,0.0,0.0,0.0,0.0,0.0,0.0,0.0,0.0,0.0,0.0,0.0,0.0,0.0,0.0,0.0,0.0,0.0,0.0,0.0,0.0,0.0,0.0,0.0,0.0,0.0,0.0,0.0,0.0,0.0,0.0,0.0,0.0,0.0,0.0,0.0,0.0,0.0,0.0,0.0,0.0,0.0,0.0,0.0,0.0,0.0,0.0,0.0,0.0,0.0,0.0,0.0,0.0,0.0,0.0,0.0,0.0,0.0,0.0,0.0,0.0,0.0,0.0,0.0,0.0,0.0,5.75,5.7857,5.7808,5.8368,5.8756,0.0,0.0,0.0,0.0,0.0,0.0,0.0,0.0,0.0,6.2781,6.2781,6.2935,6.332,6.332,6.3782,6.4743,6.4743,6.5243,6.6167,6.6167,6.659,6.7321,6.7321,6.6859,6.6167,6.6167,6.6167,6.6244,0.0,0.0,0.0,0.0,6.8252,6.8033,0.0,0.0,0.0,0.0,0.0,0.0,0.0,0.0,0.0,0.0,0.0,0.0,0.0,0.0,0.0,0.0,0.0,0.0,0.0,0.0,0.0,0.0,0.0,0.0,0.0,0.0,0.0,0.0,0.0,0.0,0.0,0.0,0.0,0.0,0.0,0.0,0.0,0.0,0.0,0.0,0.0,0.0,0.0,0.0,0.0,0.0,0.0,0.0,0.0,0.0,0.0,0.0,0.0,0.0,0.0,0.0,0.0,0.0,0.0,0.0,0.0,0.0,0.0,0.0,0.0,0.0,0.0,0.0,0.0,0.0,0.0,0.0,0.0,0.0,0.0,0.0,0.0,5.8418,5.8549,5.8194,5.8913,5.9323,0.0,0.0,0.0,0.0,0.0,0.0,6.2397,6.2974,6.3512,6.3935,6.3974,6.4166,6.4589,6.4589,6.5282,6.6551,6.6551,6.7205,6.8398,6.8629,6.8859,6.9052,6.9283,6.9513,6.9629,6.8783,6.8552,6.8744,6.8975,6.9167,6.9398,6.9629,6.9706,6.9706,0.0,0.0,0.0,0.0,0.0,0.0,0.0,0.0,0.0,0.0,0.0,0.0,0.0,0.0,0.0,0.0,0.0,0.0,0.0,0.0,0.0,0.0,0.0,0.0,0.0,0.0,0.0,0.0,0.0,0.0,0.0,0.0,0.0,0.0,0.0,0.0,0.0,0.0,0.0,0.0,0.0,0.0,0.0,0.0,0.0,0.0,0.0,0.0,0.0,0.0,0.0,0.0,0.0,0.0,0.0,0.0,0.0,0.0,0.0,0.0,0.0,0.0,0.0,0.0,0.0,0.0,0.0,0.0,0.0,0.0,0.0,0.0,0.0,0.0,0.0,0.0,0.0,0.0,0.0,5.8673,5.9102,0.0,0.0,0.0,0.0,6.2421,6.2924,6.3243,6.3243,6.3281,6.4051,6.5705,6.5782,6.6513,6.8129,6.8129,6.8205,6.8282,6.8282,6.8321,6.8436,6.9244,7.0052,7.0821,7.1629,7.2476,7.3014,6.9744,6.8898,6.9706,7.0475,7.1283,7.2091,7.2937,7.3245,7.3245,0.0,0.0,0.0,0.0,0.0,0.0,0.0,0.0,0.0,0.0,0.0,0.0,0.0,0.0,0.0,0.0,0.0,0.0,0.0,0.0,0.0,0.0,0.0,0.0,0.0,0.0,0.0,0.0,0.0,0.0,0.0,0.0,0.0,0.0,0.0,0.0,0.0,0.0,0.0,0.0,0.0,0.0,0.0,0.0,0.0,0.0,0.0,0.0,0.0,0.0,0.0,0.0,0.0,0.0,0.0,0.0,0.0,0.0,0.0,0.0,0.0,0.0,0.0,0.0,0.0,0.0,0.0,0.0,0.0,0.0,0.0,0.0,0.0,0.0,0.0,0.0,0.0,0.0,0.0,6.004,6.1147,0.0,6.1495,6.2192,6.264,6.2612,6.4063,6.4974,6.4974,6.6013,6.6859,6.7475,6.7513,6.809,6.9244,6.9244,6.9783,7.086,7.086,7.1129,7.1706,7.2014,7.2322,7.2591,7.2899,7.3206,7.3399,7.2206,7.186,7.2168,7.2476,7.2745,7.3091,7.3399,7.3514,7.3514,0.0,0.0,0.0,0.0,0.0,0.0,0.0,0.0,0.0,0.0,0.0,0.0,0.0,0.0,0.0,0.0,0.0,0.0,0.0,0.0,0.0,0.0,0.0,0.0,0.0,0.0,0.0,0.0,0.0,0.0,0.0,0.0,0.0,0.0,0.0,0.0,0.0,0.0,0.0,0.0,0.0,0.0,6.0103,0.0,0.0,0.0,0.0,0.0,0.0,0.0,0.0,0.0,0.0,0.0,0.0,0.0,0.0,0.0,0.0,0.0,0.0,0.0,0.0,0.0,0.0,0.0,0.0,0.0,0.0,0.0,0.0,0.0,0.0,0.0,0.0,0.0,0.0,0.0,6.1621,6.1155,6.2395,6.3203,6.3023,6.3705,6.4257,6.4537,6.592,6.6744,6.6744,6.809,6.8975,6.9244,6.9552,7.009,7.0975,7.0975,7.1552,7.2629,7.2629,7.2937,7.3514,7.3783,7.3899,7.3937,7.4207,7.4361,7.4361,7.4361,7.4361,7.4322,7.4014,7.4091,7.4361,7.4361,7.4361,7.4361,0.0,0.0,0.0,0.0,0.0,0.0,0.0,0.0,0.0,0.0,0.0,0.0,0.0,0.0,0.0,0.0,0.0,0.0,0.0,0.0,0.0,0.0,0.0,0.0,0.0,0.0,0.0,0.0,0.0,0.0,0.0,0.0,0.0,0.0,0.0,0.0,0.0,0.0,0.0,0.0,0.0,0.0,6.0132,0.0,0.0,0.0,0.0,0.0,0.0,0.0,0.0,0.0,0.0,0.0,0.0,0.0,0.0,0.0,0.0,0.0,0.0,0.0,0.0,0.0,0.0,0.0,0.0,0.0,0.0,0.0,0.0,0.0,0.0,0.0,0.0,0.0,6.1984,6.2363,6.2528,6.2097,6.2844,6.3924,6.5154,6.5712,6.6667,6.8321,6.8475,6.8513,6.8513,6.936,7.0167,7.0975,7.1783,7.2668,7.3553,7.3553,7.3553,7.3591,7.3591,7.3591,7.363,7.4399,7.4784,7.4822,7.5707,7.6092,7.6092,7.6092,7.6092,7.5976,7.5091,7.5245,7.6015,7.6015,7.6015,7.6015,0.0,0.0,0.0,0.0,0.0,0.0,0.0,0.0,0.0,0.0,0.0,0.0,0.0,0.0,0.0,0.0,0.0,0.0,0.0,0.0,0.0,0.0,0.0,0.0,0.0,0.0,0.0,0.0,0.0,0.0,0.0,0.0,0.0,0.0,0.0,0.0,0.0,0.0,0.0,0.0,0.0,0.0,6.0622,0.0,0.0,0.0,0.0,0.0,0.0,0.0,0.0,0.0,0.0,0.0,0.0,0.0,0.0,0.0,0.0,0.0,0.0,0.0,0.0,0.0,0.0,0.0,0.0,0.0,0.0,0.0,0.0,0.0,0.0,0.0,0.0,6.3993,6.2611,6.336,6.4216,6.4747,6.5525,6.6449,6.7418,6.7653,6.8167,6.9244,6.9898,7.0475,7.1129,7.1975,7.2552,7.2783,7.3014,7.3553,7.4361,7.4361,7.4707,7.5322,7.5322,7.5322,7.5322,7.6207,7.6592,7.663,7.7438,7.7823,7.7823,7.7823,7.7823,7.7669,7.6207,7.5784,7.6015,7.6015,7.6015,7.6015,0.0,0.0,0.0,0.0,0.0,0.0,0.0,0.0,0.0,0.0,0.0,0.0,0.0,0.0,0.0,0.0,0.0,0.0,0.0,0.0,0.0,0.0,0.0,0.0,0.0,0.0,0.0,0.0,0.0,0.0,0.0,0.0,0.0,0.0,0.0,0.0,0.0,0.0,0.0,0.0,0.0,0.0,6.1858,6.1858,6.1659,6.1464,6.1464,6.1287,6.0974,6.0817,0.0,0.0,0.0,0.0,0.0,0.0,0.0,0.0,0.0,0.0,0.0,0.0,0.0,0.0,0.0,0.0,0.0,0.0,0.0,0.0,0.0,0.0,0.0,0.0,6.6085,6.6174,6.5178,6.569,6.6397,6.6898,6.7359,6.8129,6.9321,6.9436,6.9975,7.1206,7.1706,7.2206,7.2706,7.3553,7.4014,7.4014,7.4361,7.4784,7.5245,7.563,7.6053,7.6553,7.6899,7.7053,7.7053,7.7553,7.7784,0.0,7.8284,7.8477,7.8477,7.8477,7.8477,0.0,0.0,0.0,0.0,0.0,7.7053,7.7053,0.0,0.0,0.0,0.0,0.0,0.0,0.0,0.0,0.0,0.0,0.0,0.0,0.0,0.0,0.0,0.0,0.0,0.0,0.0,0.0,0.0,0.0,0.0,0.0,0.0,0.0,0.0,0.0,0.0,0.0,0.0,0.0,0.0,0.0,0.0,0.0,0.0,0.0,0.0,0.0,0.0,0.0,6.332,6.332,6.332,6.332,6.332,6.332,6.3232,6.2825,0.0,0.0,0.0,0.0,0.0,0.0,0.0,0.0,0.0,0.0,0.0,0.0,0.0,0.0,0.0,0.0,0.0,0.0,0.0,0.0,0.0,0.0,0.0,0.0,6.8254,6.8706,6.8706,6.8859,6.8898,6.8706,6.8706,6.936,7.1014,7.1206,7.186,7.3514,7.363,7.3668,7.3783,0.0,0.0,0.0,0.0,7.6207,7.6284,7.7053,7.7438,7.7438,7.8169,7.8477,7.8515,7.8707,7.8784,7.8784,7.8977,7.9054,7.9054,7.9054,7.9054,7.9015,7.8631,7.8477,7.8477,7.8477,7.8477,7.8477,0.0,0.0,0.0,0.0,0.0,0.0,0.0,0.0,0.0,0.0,0.0,0.0,0.0,0.0,0.0,0.0,0.0,0.0,0.0,0.0,0.0,0.0,0.0,0.0,0.0,0.0,0.0,0.0,0.0,0.0,0.0,0.0,0.0,0.0,0.0,0.0,0.0,0.0,0.0,0.0,0.0,0.0,6.332,6.332,6.332,6.332,6.332,6.332,6.3295,6.3207,6.3143,6.3143,6.3065,0.0,0.0,0.0,0.0,0.0,0.0,0.0,0.0,0.0,0.0,0.0,0.0,0.0,0.0,0.0,0.0,0.0,0.0,0.0,0.0,6.8119,6.9459,7.0437,7.0437,7.1629,7.2014,7.0591,7.0437,7.1091,7.2822,7.3014,7.3399,7.4399,7.4476,7.4784,7.5476,7.5668,7.6053,7.6784,7.6938,7.7361,7.8015,7.8169,7.8246,7.8246,0.0,0.0,7.8554,7.9939,8.0592,8.0669,8.2016,8.2593,8.2593,8.2593,8.2593,8.2324,7.9554,7.8477,7.8477,7.8477,7.8477,7.8477,0.0,0.0,0.0,0.0,0.0,0.0,0.0,0.0,0.0,0.0,0.0,0.0,0.0,0.0,0.0,0.0,0.0,0.0,0.0,0.0,0.0,0.0,0.0,0.0,0.0,0.0,0.0,0.0,0.0,0.0,0.0,0.0,0.0,0.0,0.0,0.0,0.0,0.0,0.0,0.0,0.0,0.0,6.5166,6.4743,6.4589,6.4589,6.4589,6.4589,6.4589,6.4589,6.4589,6.4589,6.4589,6.4589,6.4475,0.0,0.0,0.0,0.0,0.0,0.0,0.0,0.0,0.0,0.0,0.0,0.0,0.0,0.0,6.7525,0.0,0.0,6.951,7.0179,7.136,7.2206,7.2206,7.2937,7.3168,7.2322,7.2206,7.2706,7.3976,7.4091,7.4437,7.5284,7.5361,7.5745,7.6592,7.663,7.7015,7.7861,7.79,7.8092,7.8477,7.9361,7.9785,7.9823,8.0631,8.1054,8.1093,8.1939,8.2362,8.2401,8.3247,8.3593,8.3593,8.3593,8.3593,8.3439,8.1708,8.1054,8.1054,8.1054,8.1054,8.1054,0.0,0.0,0.0,0.0,0.0,0.0,0.0,0.0,0.0,0.0,0.0,0.0,0.0,0.0,0.0,0.0,0.0,0.0,0.0,0.0,0.0,0.0,0.0,0.0,0.0,0.0,0.0,0.0,0.0,0.0,0.0,0.0,0.0,0.0,0.0,0.0,0.0,0.0,0.0,0.0,0.0,0.0,6.7282,6.6628,6.6167,6.5897,6.5897,6.5897,6.5897,6.5897,6.5897,6.5897,6.5897,6.6013,6.6038,6.5618,6.5605,0.0,0.0,0.0,0.0,0.0,0.0,0.0,0.0,0.0,6.761,6.8101,6.8387,6.8901,7.019,7.0975,7.1629,7.2322,7.3168,7.3745,7.3745,7.3899,7.4014,7.4014,7.386,7.4053,7.4861,7.4938,7.5322,7.6207,7.6245,7.663,7.7476,7.7515,7.79,7.8707,7.89,7.9092,7.9246,8.0785,8.1593,8.1593,8.2939,8.3593,8.3593,8.3939,8.4093,8.4093,8.4439,8.4593,8.4593,8.4593,8.4593,8.4593,8.4593,8.4593,8.4516,8.3824,8.3593,8.3593,0.0,0.0,0.0,0.0,0.0,0.0,0.0,0.0,0.0,0.0,0.0,0.0,0.0,0.0,0.0,0.0,0.0,0.0,0.0,0.0,0.0,0.0,0.0,0.0,0.0,0.0,0.0,0.0,0.0,0.0,0.0,0.0,0.0,0.0,0.0,0.0,0.0,0.0,0.0,0.0,0.0,0.0,6.8244,6.8167,6.7205,6.5897,6.5897,6.5897,6.5897,6.5897,6.5897,6.5897,6.5897,6.6397,6.6936,6.6884,0.0,6.801,6.7983,6.801,6.8075,6.8152,6.8202,6.8224,0.0,0.0,6.9596,7.0382,7.1151,7.1958,7.2899,7.3168,7.3245,7.336,7.4053,7.4591,7.4591,7.5245,7.5707,7.5707,7.5053,7.4899,7.5784,7.5861,7.6207,7.7092,7.713,7.7515,7.8323,7.8361,7.8746,7.9631,8.04,8.1131,8.1862,8.2824,8.3324,8.3324,8.3516,8.3593,8.3632,8.5132,8.5824,8.5901,8.744,8.8132,8.8132,8.8132,8.8132,8.8132,8.8132,8.8132,8.7748,8.4709,8.3593,8.3593,0.0,0.0,0.0,0.0,0.0,0.0,0.0,0.0,0.0,0.0,0.0,0.0,0.0,0.0,0.0,0.0,0.0,0.0,0.0,0.0,0.0,0.0,0.0,0.0,0.0,0.0,0.0,0.0,0.0,0.0,0.0,0.0,0.0,0.0,0.0,0.0,0.0,0.0,0.0,0.0,0.0,0.0,6.909,6.859,6.7975,6.7359,6.7359,6.7359,0.0,0.0,6.7359,6.7359,6.7359,6.759,6.7859,6.7859,6.8129,0.0,6.8398,6.8783,6.9167,6.9167,6.9898,7.0591,7.0591,7.1283,7.2014,7.236,7.2706,7.3091,7.3437,7.3899,7.4207,0.0,7.4899,7.5476,7.5476,7.5784,7.6015,7.6015,7.613,7.6361,7.6707,7.6746,7.7092,7.7938,7.7977,7.8592,7.9939,8.0015,8.0631,8.1977,8.2362,8.2708,8.3054,8.3901,8.4593,8.5055,8.5555,8.6094,8.6594,8.7286,8.7594,8.7632,8.8363,8.8709,8.8709,8.8709,8.8709,8.8709,8.8709,8.8709,8.8517,8.7094,8.6555,8.6555,0.0,0.0,0.0,0.0,0.0,0.0,0.0,0.0,0.0,0.0,0.0,0.0,0.0,0.0,0.0,0.0,0.0,0.0,0.0,0.0,0.0,0.0,0.0,0.0,0.0,0.0,0.0,0.0,0.0,0.0,0.0,0.0,0.0,0.0,0.0,0.0,0.0,0.0,0.0,0.0,0.0,0.0,6.9975,6.9321,6.909,6.9052,6.859,6.8398,0.0,0.0,6.8398,6.8398,6.8398,6.8552,6.8821,6.9013,6.9436,6.9821,6.9821,7.0283,7.0744,7.0744,7.1668,7.2552,7.2552,7.3053,7.3553,7.3783,7.3822,7.3899,7.4168,7.4668,7.5053,7.5053,7.5592,7.6015,7.6015,7.6207,7.6361,7.6361,7.7092,7.7707,7.7977,7.7784,7.7977,7.8784,7.9092,7.9862,8.1362,8.167,8.2362,8.3555,8.4055,8.4286,8.4286,8.5401,8.6247,8.6824,8.744,8.8094,8.8709,8.894,8.9171,8.9402,8.9633,8.9748,8.9748,8.9979,9.0056,9.0056,9.0056,9.0056,9.0056,9.0056,8.9479,8.8709,0.0,0.0,0.0,0.0,0.0,0.0,0.0,0.0,0.0,0.0,0.0,0.0,0.0,0.0,0.0,0.0,0.0,0.0,0.0,0.0,0.0,0.0,0.0,0.0,6.3281,6.332,6.4166,6.5897,6.6667,6.709,6.7167,6.8013,6.8436,6.8513,6.936,0.0,0.0,0.0,0.0,0.0,0.0,0.0,7.086,7.0821,7.0821,7.0591,6.8975,0.0,0.0,0.0,6.8398,6.8398,6.8398,6.8975,0.0,7.0591,7.2014,7.336,7.336,7.336,7.3399,7.3399,7.3437,7.3476,7.3476,7.3476,7.3745,7.4514,7.4668,7.4938,7.5784,7.5938,7.5976,7.5976,7.5976,7.6015,7.6015,7.6746,7.7246,7.7246,7.7977,7.8784,0.0,7.8977,7.8823,7.9708,8.0554,8.1362,8.2208,8.3054,8.3555,8.3593,8.517,8.6017,8.6017,8.7709,8.8594,8.8632,8.8632,8.8671,8.8709,8.9517,9.0325,9.1171,9.2018,9.2364,9.2441,9.321,9.3557,9.3557,9.3557,9.3557,9.3557,9.3557,9.1479,8.8709,0.0,0.0,0.0,0.0,0.0,0.0,0.0,0.0,0.0,0.0,0.0,0.0,0.0,0.0,0.0,0.0,0.0,0.0,0.0,0.0,6.0311,6.0781,6.0781,6.1589,6.3281,6.332,6.4166,6.5897,6.6167,6.659,6.709,6.7398,6.7859,6.8436,6.9321,6.9706,6.9744,7.0552,7.0898,7.0898,7.0898,7.0898,7.0898,7.0898,7.0898,7.0821,0.0,0.0,0.0,0.0,7.0437,7.0937,7.0937,0.0,7.2283,7.2552,7.3053,7.3514,7.3514,7.3514,7.3514,7.3514,7.3899,7.4322,7.4322,7.4745,7.5245,7.5515,7.5553,7.5668,7.5938,7.6015,7.6015,7.6015,7.6015,7.6207,7.6784,7.713,7.7476,7.8015,7.8861,0.0,0.0,0.0,0.0,8.14,8.2285,8.3131,8.3978,8.4824,8.5517,8.6094,8.7209,8.7825,8.7825,8.8402,8.8979,8.9517,9.0671,9.1479,9.2018,9.2287,9.2595,9.2864,9.3172,9.3287,9.3326,9.3595,9.371,9.371,9.371,9.371,9.371,9.371,9.2979,9.2018,0.0,0.0,0.0,0.0,0.0,0.0,0.0,0.0,0.0,0.0,0.0,0.0,0.0,0.0,0.0,0.0,0.0,0.0,0.0,0.0,6.0074,6.0508,6.1003,6.1897,6.3281,6.3628,6.4474,6.5897,6.5897,6.6167,6.6667,6.6667,6.6974,6.7552,6.8706,6.9244,6.9321,7.0437,7.0898,7.0898,7.0898,7.0898,7.0898,7.0898,7.0898,0.0,0.0,0.0,0.0,0.0,7.1937,7.2668,7.2668,7.3245,7.3937,7.3937,7.4168,7.4399,7.4399,7.4399,7.4399,7.4399,7.4784,7.5168,7.5168,7.5592,7.6015,7.6015,7.6015,7.6015,7.6015,7.6015,7.6092,7.6399,7.6476,7.6746,7.7592,7.7977,7.8515,7.9323,8.0169,8.1054,0.0,0.0,0.0,8.2747,8.3555,8.4439,8.5286,8.6094,8.6978,8.7825,8.8671,8.9133,8.9133,8.9748,9.0441,9.1287,9.2402,9.321,9.371,9.371,9.371,9.371,9.4018,9.4172,9.4172,9.448,9.4634,9.4634,9.4634,9.4634,9.4634,9.4634,9.4634,9.4557,0.0,0.0,0.0,0.0,0.0,0.0,0.0,0.0,0.0,0.0,0.0,0.0,0.0,0.0,0.0,0.0,0.0,0.0,0.0,0.0,0.0,6.0103,6.1339,6.2411,6.3281,6.4128,6.4974,6.5897,6.5897,6.5897,6.5974,6.5974,6.5974,6.609,6.7744,6.8475,6.859,7.0206,7.0898,7.0898,7.0898,7.0898,7.0898,7.0898,0.0,0.0,0.0,0.0,0.0,0.0,7.2822,7.3591,7.363,7.4168,7.4784,7.4784,7.5361,7.6015,7.6015,7.6015,7.6015,7.6015,7.6015,7.6015,7.6015,7.6015,7.6015,7.6015,7.6015,7.6015,0.0,0.0,7.6361,7.7207,7.7361,7.763,7.8438,7.9323,8.0208,0.0,0.0,0.0,0.0,0.0,0.0,8.3862,0.0,8.5401,8.6209,8.7055,8.7902,8.8748,8.9594,9.0056,9.0056,9.171,9.2979,9.3749,9.3749,9.3787,9.3826,9.3826,9.3826,9.3864,9.4711,9.5057,9.5134,9.5942,9.6288,9.6288,9.6288,9.6288,9.6288,9.6288,9.6288,9.6057,0.0,0.0,0.0,0.0,0.0,0.0,0.0,0.0,0.0,0.0,0.0,0.0,0.0,0.0,0.0,0.0,0.0,0.0,0.0,0.0,0.0,0.0,0.0,0.0,0.0,0.0,0.0,0.0,0.0,6.6205,6.6782,6.6782,6.7128,6.7821,6.8898,6.936,6.9436,7.0475,7.0898,7.0898,0.0,7.0898,7.0898,0.0,0.0,0.0,0.0,0.0,0.0,0.0,7.3707,7.4514,7.5168,7.5515,7.5668,7.5668,7.5822,7.6015,7.6015,7.6015,7.6015,7.6015,7.6015,7.6015,7.6015,7.6015,7.6015,7.6015,7.6015,7.6207,0.0,0.0,0.0,7.8054,7.8169,0.0,7.9361,8.0208,0.0,8.19,0.0,8.3593,8.4478,8.5324,0.0,0.0,8.6632,8.7132,8.7979,8.8825,8.9363,8.9594,9.1056,9.1825,9.1825,9.2864,9.3826,9.4672,9.4672,9.5018,9.5634,9.5634,9.5634,9.5634,9.5865,9.598,9.598,9.6211,9.6288,9.6288,9.6288,9.6288,9.6288,9.6288,9.6288,9.6249,0.0,0.0,0.0,0.0,0.0,0.0,0.0,0.0,0.0,0.0,0.0,0.0,0.0,0.0,0.0,0.0,0.0,0.0,0.0,0.0,0.0,0.0,0.0,0.0,0.0,0.0,0.0,0.0,0.0,0.0,0.0,6.6936,6.7359,6.7898,6.9129,6.9706,6.9744,0.0,0.0,0.0,0.0,0.0,0.0,0.0,0.0,0.0,0.0,0.0,0.0,0.0,0.0,7.5361,7.5861,7.6015,7.6015,7.6015,7.6015,7.6015,7.6015,7.6015,7.6015,7.6015,7.6015,7.6015,7.6015,7.6015,7.6015,7.6015,7.6284,7.6707,7.7207,7.7592,7.8092,0.0,0.0,0.0,8.0708,8.1323,8.2093,0.0,8.417,0.0,8.5901,8.6748,8.7594,0.0,8.8171,8.8325,8.9171,9.0017,9.0671,9.1018,9.2326,9.321,9.3595,9.4018,9.4711,9.5557,9.5557,9.5826,9.6288,9.6288,9.6288,9.6288,0.0,9.6288,9.6288,9.6288,9.6288,9.6288,9.6288,9.6288,9.6288,9.6288,9.6288,9.6288,0.0,0.0,0.0,0.0,0.0,0.0,0.0,0.0,0.0,0.0,0.0,0.0,0.0,0.0,0.0,0.0,0.0,0.0,0.0,0.0,0.0,0.0,0.0,0.0,0.0,0.0,0.0,0.0,0.0,0.0,0.0,0.0,0.0,0.0,0.0,0.0,0.0,0.0,0.0,0.0,0.0,0.0,0.0,0.0,0.0,0.0,0.0,0.0,0.0,0.0,7.6015,7.6015,7.6015,7.6015,7.6015,7.6015,7.6015,7.6015,7.6015,7.6015,7.6015,7.6015,7.6015,7.6015,7.6015,7.6092,7.6169,7.6169,7.6861,7.7476,7.7592,7.8207,7.8938,7.9823,0.0,8.0516,8.2093,8.2401,8.3131,8.4863,8.5786,8.6594,8.7478,8.8363,8.921,9.0017,8.9517,8.9517,9.021,9.0979,9.1825,9.2787,9.3518,9.4287,9.5172,9.5172,9.5557,9.6288,9.6288,9.6288,9.6288,9.6288,9.6288,9.6288,0.0,0.0,9.6288,9.6288,9.6288,9.6288,9.6288,9.6288,9.6288,9.6288,9.6288,9.6288,0.0,0.0,0.0,0.0,0.0,0.0,0.0,0.0,0.0,0.0,5.3225,5.3555,0.0,0.0,0.0,0.0,0.0,0.0,0.0,0.0,0.0,0.0,0.0,0.0,0.0,0.0,0.0,0.0,0.0,0.0,0.0,0.0,0.0,0.0,0.0,0.0,0.0,0.0,0.0,0.0,0.0,0.0,0.0,0.0,0.0,0.0,0.0,0.0,0.0,0.0,7.6015,7.6015,7.6015,7.6015,7.6015,7.6015,7.6015,7.6015,7.6015,7.6015,7.6015,7.6015,7.6015,7.6015,7.6015,7.6553,0.0,7.7053,7.7707,7.8515,7.9246,7.9477,7.9862,8.0746,8.0862,8.1208,8.217,8.2901,8.3978,0.0,8.6632,8.7517,8.8402,8.921,0.0,0.0,9.1518,9.1902,9.2056,9.2172,9.2979,9.4518,9.4711,9.5172,9.6057,9.6057,9.6134,9.6288,9.6288,9.6288,9.6288,9.6288,9.6288,9.6288,9.6288,0.0,9.6288,9.6288,9.6288,9.6288,9.6288,9.6288,9.6288,9.6288,9.6288,9.6288,0.0,0.0,0.0,0.0,0.0,0.0,0.0,0.0,5.3225,5.3225,5.3225,5.3518,5.4326,5.5097,0.0,0.0,0.0,0.0,0.0,0.0,0.0,0.0,0.0,0.0,0.0,0.0,0.0,0.0,0.0,0.0,0.0,0.0,0.0,0.0,0.0,0.0,0.0,0.0,0.0,0.0,0.0,0.0,0.0,0.0,0.0,0.0,0.0,0.0,0.0,0.0,7.6015,7.6015,7.6015,7.6015,7.6015,7.6015,7.6015,7.6015,7.6015,7.6015,7.6015,7.6015,7.6015,7.613,7.6553,7.6976,7.74,7.7823,7.8592,7.9285,7.9708,8.0169,8.0631,8.1016,8.1093,8.1554,8.2785,8.3324,8.4401,8.6517,8.7555,8.8402,0.0,9.0479,9.1441,9.1864,9.2633,9.3133,9.3133,9.3557,9.4364,9.5634,9.5672,9.5865,9.6288,9.6288,9.6288,9.6288,9.6288,9.6288,9.6288,9.6288,9.6288,9.6288,9.6288,0.0,9.6288,9.6288,9.6288,9.6288,9.6288,9.6288,9.6365,9.6788,9.6903,9.698,0.0,0.0,0.0,0.0,0.0,0.0,0.0,5.3225,5.3225,5.3225,5.3225,5.3445,5.4069,5.4987,5.5831,0.0,0.0,0.0,0.0,0.0,0.0,0.0,0.0,0.0,0.0,0.0,0.0,6.418,6.5141,0.0,0.0,0.0,0.0,0.0,6.8513,0.0,0.0,0.0,0.0,0.0,0.0,0.0,0.0,0.0,0.0,0.0,0.0,0.0,0.0,0.0,7.6015,7.6015,7.6015,7.6015,7.6015,7.6015,7.6015,7.6015,7.6015,7.6015,7.6015,7.6015,7.6015,7.6245,7.7092,7.7438,7.7784,7.8592,7.9477,8.0092,8.0092,8.0631,8.1093,0.0,8.1246,8.1862,8.3401,8.3747,8.4824,8.7363,8.8286,0.0,9.0364,9.171,0.0,9.3018,9.3787,9.4172,9.398,9.4788,9.5595,9.6288,9.6288,9.6288,9.6288,9.6288,9.6288,9.6288,9.6288,9.6288,9.6288,9.6288,9.6288,9.6288,9.6365,0.0,0.0,9.6557,9.6596,9.6596,9.6749,9.6826,9.6903,9.7596,9.7865,9.798,0.0,0.0,0.0,0.0,0.0,0.0,0.0,5.3225,5.3225,5.3225,5.3225,5.3225,5.3298,5.4693,5.5611,0.0,0.0,0.0,0.0,0.0,0.0,0.0,0.0,0.0,0.0,0.0,0.0,6.2756,6.4089,0.0,0.0,0.0,0.0,0.0,0.0,6.8205,6.9706,0.0,0.0,0.0,0.0,0.0,0.0,0.0,0.0,0.0,0.0,0.0,0.0,0.0,7.6015,7.6015,7.6015,7.6015,7.6015,7.6015,7.6015,7.6015,7.6015,7.6015,7.6015,7.6015,7.6015,7.6245,7.7092,7.7861,7.8631,7.9515,8.0362,8.0977,8.0977,8.1054,0.0,0.0,0.0,8.2516,8.3478,8.4286,8.5747,8.8286,0.0,0.0,9.2018,9.2402,9.3133,9.4634,9.5557,9.5711,9.4903,9.5711,9.6211,9.6288,9.6288,9.6288,9.6288,9.6288,9.6288,9.6288,9.6288,9.6288,9.6288,9.6288,9.6288,9.6326,9.648,0.0,0.0,9.7365,9.7596,9.748,9.825,9.8557,9.8596,9.8942,9.9057,9.9095,0.0,0.0,0.0,0.0,0.0,0.0,0.0,5.3225,5.3225,5.3225,5.3225,5.3225,5.3225,5.4216,5.506,0.0,0.0,0.0,0.0,0.0,0.0,0.0,0.0,0.0,0.0,0.0,0.0,6.1887,6.3408,0.0,0.0,0.0,0.0,0.0,0.0,6.7475,6.8167,0.0,0.0,0.0,0.0,0.0,0.0,0.0,0.0,0.0,0.0,0.0,7.4168,7.5553,7.6015,7.6015,7.6015,7.6015,0.0,7.6015,7.6015,7.6015,7.6015,7.6015,7.6015,7.6015,7.6399,7.7015,7.7823,7.8669,7.9515,8.04,8.0862,8.1093,8.1093,8.1093,8.1093,8.1093,0.0,0.0,8.3478,8.4786,8.6401,8.844,8.9133,0.0,0.0,0.0,9.3941,9.5634,9.6095,9.6134,9.5788,9.6095,9.6288,9.6288,9.6288,9.6288,9.6288,9.6288,9.6365,9.648,9.6365,9.6442,9.6711,9.6442,9.6442,9.6749,9.721,0.0,0.0,9.8537,9.8865,9.8788,9.9135,9.925,9.9365,9.9942,10.0182,10.0289,0.0,0.0,0.0,0.0,0.0,5.3225,5.3225,5.3225,5.3225,5.3225,5.3225,5.3225,5.3225,5.3702,5.4473,5.55,0.0,0.0,0.0,0.0,0.0,0.0,0.0,0.0,0.0,0.0,0.0,0.0,6.2513,6.3657,0.0,0.0,6.5628,6.5897,0.0,0.0,0.0,0.0,0.0,0.0,0.0,0.0,0.0,0.0,0.0,0.0,0.0,0.0,0.0,0.0,0.0,7.6015,0.0,0.0,0.0,0.0,7.6015,7.6015,7.6015,7.6015,7.6015,7.6015,7.6669,7.7515,7.8323,7.9169,8.0054,8.0939,8.1093,8.1093,8.1093,8.1093,8.117,8.14,8.2131,8.2978,8.3862,8.544,8.7055,8.8517,0.0,9.0979,0.0,9.3826,9.498,9.6211,9.6288,9.6288,9.6288,9.6288,9.6288,9.6288,9.6288,9.6288,9.6288,9.6288,9.6403,9.6596,9.6442,9.6596,9.7017,9.6917,9.7071,9.7441,9.8172,0.0,0.0,9.9716,9.9996,9.9977,10.0209,10.0292,10.0408,10.1094,10.1291,10.141,0.0,0.0,0.0,0.0,0.0,0.0,0.0,5.3225,5.3225,5.3225,5.3225,5.3225,5.3225,5.3225,5.3849,5.5464,0.0,0.0,0.0,0.0,0.0,0.0,0.0,0.0,0.0,0.0,0.0,0.0,0.0,0.0,6.4589,6.4628,6.5051,6.5897,0.0,0.0,0.0,0.0,0.0,0.0,0.0,0.0,0.0,0.0,0.0,0.0,0.0,0.0,0.0,0.0,0.0,0.0,0.0,0.0,0.0,0.0,7.6015,7.6015,7.6015,7.6015,7.6015,7.6015,7.6669,7.7515,7.8323,7.9169,8.0054,8.0939,8.1093,8.1093,8.1093,8.1093,8.1362,8.217,8.3016,8.3901,8.4747,8.6324,8.7709,8.8594,9.0171,9.1864,9.3518,9.5249,9.6288,9.6288,9.6288,0.0,9.6288,9.6288,9.6288,9.6288,9.6288,9.6288,9.6288,9.6288,9.6403,9.6596,9.6596,9.6711,9.7017,9.7882,9.8298,0.0,0.0,0.0,0.0,10.0713,10.0993,10.0883,10.1682,10.211,10.2127,10.2388,10.252,10.2508,0.0,0.0,0.0,0.0,0.0,0.0,0.0,5.3225,5.3225,5.3225,5.3225,5.3225,5.3225,5.3225,5.3849,5.5464,0.0,0.0,0.0,0.0,0.0,0.0,0.0,0.0,0.0,0.0,0.0,0.0,0.0,0.0,0.0,0.0,0.0,6.5051,6.5628,6.6051,0.0,0.0,0.0,0.0,0.0,0.0,0.0,0.0,0.0,0.0,0.0,0.0,0.0,0.0,0.0,0.0,0.0,0.0,0.0,0.0,0.0,7.6015,7.6015,7.6015,7.613,7.6746,7.7515,7.8323,7.9208,8.0054,8.0785,8.1054,8.1093,8.1093,8.1093,8.1093,8.1362,8.217,8.3016,8.3901,8.4786,8.6863,8.8402,8.8671,9.1171,9.3364,0.0,0.0,9.6288,9.6288,9.6288,9.6288,9.6288,9.6288,9.6288,9.6288,9.6288,9.6288,9.6288,9.6442,9.6634,9.6902,9.7489,9.7966,9.8408,9.8929,9.9374,0.0,0.0,0.0,0.0,10.199,10.2298,10.2308,10.2504,10.2615,10.2686,10.2694,10.2815,10.28,0.0,0.0,0.0,0.0,0.0,0.0,0.0,5.3225,5.3225,5.3225,5.3225,5.3225,5.3225,5.3225,5.3849,5.5464,0.0,0.0,0.0,0.0,0.0,0.0,0.0,0.0,0.0,0.0,0.0,0.0,0.0,0.0,0.0,0.0,0.0,0.0,6.5513,0.0,0.0,0.0,0.0,0.0,0.0,0.0,6.9744,0.0,0.0,0.0,0.0,0.0,0.0,0.0,0.0,0.0,0.0,0.0,0.0,0.0,7.6015,7.6015,7.6015,7.6015,7.6207,7.7092,7.79,7.8707,7.9592,8.0477,8.1093,8.1093,8.1093,8.1093,8.1093,8.1362,8.1823,8.267,8.3516,8.4401,8.5247,8.7286,0.0,9.0441,0.0,0.0,0.0,9.598,9.6288,9.6288,9.6288,9.6326,9.6403,9.6403,9.6442,9.6557,9.648,9.6442,9.6557,9.6673,9.7056,9.7633,9.8196,9.8813,9.9492,10.0087,10.0493,0.0,0.0,0.0,0.0,10.2695,10.289,10.289,10.289,10.289,10.289,10.289,10.289,10.289,0.0,0.0,0.0,0.0,0.0,0.0,0.0,0.0,0.0,5.3225,5.3225,5.3225,5.3225,5.3225,5.3849,5.5464,0.0,0.0,0.0,0.0,0.0,0.0,0.0,0.0,0.0,0.0,0.0,0.0,5.9176,6.0042,6.1353,0.0,0.0,0.0,0.0,0.0,0.0,0.0,0.0,0.0,0.0,0.0,0.0,0.0,0.0,0.0,0.0,0.0,0.0,0.0,0.0,0.0,0.0,0.0,0.0,0.0,0.0,0.0,0.0,7.6053,7.6284,7.7169,7.7977,7.8823,7.9708,0.0,0.0,0.0,0.0,0.0,0.0,8.1747,8.2593,8.3439,8.4324,8.5209,8.6055,8.7748,0.0,0.0,9.3749,0.0,9.6134,9.6288,9.6288,9.6288,9.6326,9.6403,9.6596,9.663,9.6746,9.7056,9.6788,9.6748,9.6975,9.7056,9.7633,9.8709,9.8854,9.9436,10.039,10.1289,10.1719,0.0,0.0,0.0,0.0,10.289,10.289,10.289,10.289,10.289,10.289,10.289,10.289,10.289,0.0,0.0,0.0,0.0,0.0,0.0,0.0,0.0,0.0,0.0,5.3225,5.3225,5.3225,5.3225,5.3849,0.0,0.0,0.0,0.0,0.0,0.0,0.0,0.0,0.0,0.0,0.0,0.0,5.8713,5.9176,5.9739,6.0437,6.1748,0.0,0.0,0.0,0.0,0.0,0.0,0.0,0.0,0.0,0.0,0.0,0.0,0.0,0.0,7.1129,7.2206,0.0,0.0,0.0,0.0,0.0,0.0,0.0,0.0,7.6015,7.6015,7.6015,0.0,7.7169,7.8015,7.8861,7.9708,0.0,0.0,0.0,0.0,0.0,0.0,0.0,0.0,8.2593,8.3439,8.4324,8.5401,8.6901,0.0,0.0,0.0,0.0,0.0,0.0,9.6288,9.6288,9.6288,9.6442,9.6557,9.6596,9.6793,9.7003,9.7287,9.7248,9.7137,9.6998,9.7865,9.844,9.8709,10.0219,10.1098,10.1289,10.2187,10.2617,0.0,0.0,0.0,10.289,10.289,10.289,10.289,10.289,10.289,10.289,10.289,10.289,10.289,0.0,0.0,0.0,0.0,0.0,0.0,0.0,0.0,0.0,0.0,0.0,0.0,0.0,0.0,0.0,0.0,0.0,0.0,0.0,0.0,0.0,0.0,0.0,0.0,0.0,0.0,0.0,0.0,0.0,5.9526,0.0,0.0,0.0,0.0,0.0,0.0,0.0,0.0,0.0,0.0,6.6359,0.0,0.0,0.0,0.0,0.0,7.0898,7.2014,0.0,7.3514,7.463,7.6015,0.0,0.0,0.0,0.0,7.6015,7.6015,7.6015,7.663,7.7476,7.8284,7.9169,8.0054,0.0,0.0,0.0,0.0,0.0,0.0,0.0,0.0,0.0,8.4055,8.4901,8.6055,0.0,0.0,9.1825,9.348,9.448,9.5326,0.0,0.0,9.6326,9.6442,9.6519,9.6711,9.6942,9.7109,9.7294,9.7518,9.7556,9.7644,9.7934,9.8523,9.923,10.0008,10.1092,10.1797,10.2187,10.2695,10.289,0.0,0.0,0.0,10.289,10.289,10.289,10.289,10.289,10.289,10.289,10.289,10.289,10.289,0.0,0.0,0.0,0.0,0.0,0.0,0.0,0.0,0.0,0.0,0.0,0.0,0.0,0.0,0.0,0.0,0.0,0.0,0.0,0.0,0.0,0.0,0.0,0.0,0.0,0.0,0.0,0.0,0.0,0.0,0.0,0.0,0.0,0.0,0.0,0.0,0.0,0.0,0.0,0.0,6.5897,0.0,0.0,0.0,0.0,0.0,0.0,0.0,0.0,7.3514,7.463,7.6015,7.6015,0.0,0.0,0.0,0.0,0.0,7.6169,7.6823,7.763,7.8323,7.9246,8.0208,0.0,0.0,0.0,0.0,0.0,0.0,0.0,0.0,0.0,8.4786,8.5786,0.0,8.8671,9.0441,9.2095,9.3518,9.4595,0.0,9.6249,0.0,0.0,0.0,0.0,9.6903,9.7402,9.7418,9.7542,9.7697,9.7813,9.8313,9.9179,9.9219,10.0,10.1601,10.1719,10.2187,10.289,10.289,10.289,10.289,0.0,0.0,10.289,10.289,10.289,10.289,10.289,10.289,10.289,10.289,10.289,10.289,0.0,0.0,0.0,0.0,0.0,0.0,0.0,0.0,0.0,0.0,0.0,0.0,0.0,0.0,0.0,0.0,0.0,0.0,0.0,0.0,0.0,0.0,0.0,0.0,0.0,0.0,0.0,0.0,0.0,0.0,5.9424,6.0518,6.182,0.0,0.0,0.0,0.0,0.0,0.0,0.0,6.5897,0.0,0.0,0.0,0.0,0.0,0.0,0.0,0.0,7.3514,7.463,7.6015,7.6015,0.0,0.0,0.0,0.0,0.0,7.6899,7.7707,7.8361,7.8477,7.9708,8.0939,0.0,0.0,0.0,0.0,0.0,0.0,0.0,0.0,0.0,0.0,0.0,8.8632,0.0,0.0,9.3403,0.0,0.0,9.6134,9.6288,0.0,0.0,0.0,0.0,9.7325,9.7402,9.7572,9.7662,9.7701,9.8404,9.9203,10.0117,10.0117,10.0586,10.1601,10.2304,10.2812,10.289,10.289,10.289,10.289,0.0,10.289,10.289,10.289,10.289,10.289,10.289,10.289,10.289,10.289,10.289,10.289,0.0,0.0,0.0,0.0,0.0,0.0,0.0,0.0,0.0,0.0,0.0,0.0,0.0,0.0,0.0,0.0,0.0,0.0,0.0,0.0,0.0,0.0,0.0,0.0,0.0,0.0,0.0,0.0,0.0,5.9139,5.9462,6.1283,6.2551,6.3397,0.0,0.0,0.0,0.0,0.0,0.0,0.0,0.0,0.0,0.0,0.0,0.0,0.0,0.0,0.0,0.0,7.463,7.6015,7.6015,0.0,0.0,0.0,0.0,0.0,7.7053,7.79,7.8592,7.9092,8.0169,8.1093,0.0,0.0,0.0,0.0,0.0,0.0,0.0,0.0,0.0,0.0,0.0,0.0,0.0,0.0,0.0,0.0,0.0,0.0,9.6288,0.0,0.0,0.0,0.0,0.0,9.7554,9.7656,9.7695,9.7695,9.8554,9.9414,10.0312,10.0781,10.1406,10.2304,10.2695,10.289,10.289,10.289,10.289,10.289,0.0,10.289,10.289,10.289,10.289,10.289,10.289,10.289,10.289,10.289,10.289,10.289,0.0,0.0,0.0,0.0,0.0,0.0,0.0,0.0,0.0,0.0,0.0,0.0,0.0,0.0,0.0,0.0,0.0,0.0,0.0,0.0,0.0,0.0,0.0,0.0,0.0,0.0,5.7997,5.7997,5.8503,5.9028,5.9597,6.2032,6.3207,0.0,0.0,0.0,0.0,0.0,0.0,0.0,0.0,0.0,0.0,0.0,0.0,0.0,0.0,0.0,0.0,0.0,0.0,0.0,0.0,0.0,0.0,7.6015,7.613,7.6476,7.7361,7.8169,7.9015,7.99,0.0,0.0,0.0,0.0,0.0,0.0,0.0,0.0,0.0,0.0,0.0,0.0,0.0,0.0,0.0,0.0,0.0,0.0,0.0,0.0,0.0,0.0,0.0,0.0,0.0,0.0,9.7694,9.7695,9.7695,9.7695,9.875,9.9609,10.0312,10.1406,10.2187,10.289,10.289,10.289,10.289,10.289,10.289,10.289,10.289,10.289,10.289,10.289,10.289,10.289,10.289,10.289,10.289,10.289,10.289,10.289,0.0,0.0,0.0,0.0,0.0,0.0,0.0,0.0,0.0,0.0,0.0,0.0,0.0,0.0,0.0,0.0,0.0,0.0,0.0,0.0,0.0,0.0,0.0,0.0,0.0,5.7997,5.7997,5.7997,5.8503,5.9139,6.0112,6.1849,6.2853,6.3397,0.0,0.0,0.0,0.0,0.0,0.0,0.0,0.0,0.0,0.0,0.0,0.0,0.0,0.0,0.0,0.0,0.0,0.0,0.0,0.0,7.6015,7.6015,7.6553,7.7361,7.8169,7.9054,0.0,0.0,0.0,0.0,0.0,0.0,0.0,0.0,0.0,0.0,0.0,0.0,8.7517,0.0,0.0,0.0,0.0,0.0,0.0,0.0,0.0,0.0,0.0,0.0,0.0,0.0,0.0,0.0,9.7695,9.7695,9.7695,9.7695,9.9336,10.0195,10.0312,10.1992,10.2812,10.289,10.289,10.289,10.289,10.289,10.289,10.289,10.289,10.289,10.289,10.289,10.289,10.289,10.289,10.289,10.289,10.289,10.289,10.289,0.0,0.0,0.0,0.0,0.0,0.0,0.0,0.0,0.0,0.0,0.0,0.0,0.0,0.0,0.0,0.0,0.0,0.0,0.0,0.0,0.0,0.0,0.0,5.7997,5.7997,5.7997,5.7997,5.7997,5.8756,5.9319,5.9696,6.1965,0.0,0.0,0.0,0.0,0.0,0.0,0.0,0.0,0.0,0.0,0.0,0.0,0.0,0.0,0.0,0.0,0.0,0.0,7.5284,7.6015,7.6015,7.6015,7.6015,7.6015,7.663,7.7476,7.8284,7.9131,0.0,0.0,0.0,0.0,0.0,0.0,0.0,0.0,0.0,0.0,0.0,0.0,0.0,0.0,0.0,0.0,0.0,0.0,0.0,0.0,0.0,0.0,0.0,0.0,0.0,0.0,0.0,0.0,9.7695,9.7695,9.7969,9.8476,9.9687,10.0586,10.1094,10.2304,10.289,10.289,10.289,10.289,10.289,10.289,10.289,10.289,10.289,10.289,10.289,10.289,10.289,10.3008,10.3515,10.3711,10.3789,10.4297,10.4492,10.4492,0.0,0.0,0.0,0.0,0.0,0.0,0.0,0.0,0.0,0.0,0.0,0.0,0.0,0.0,0.0,0.0,0.0,0.0,0.0,0.0,0.0,0.0,0.0,5.7997,5.7997,5.7997,5.7997,5.7997,5.8796,5.9399,5.9877,0.0,0.0,0.0,0.0,0.0,0.0,0.0,0.0,0.0,6.6859,6.7782,0.0,0.0,0.0,0.0,0.0,0.0,0.0,0.0,7.5515,7.6015,7.6015,7.6015,7.6053,7.6322,7.7015,7.7861,7.8669,7.9554,8.0362,8.0939,0.0,0.0,0.0,0.0,0.0,0.0,0.0,0.0,0.0,0.0,0.0,0.0,0.0,0.0,9.348,9.4441,0.0,0.0,0.0,0.0,0.0,0.0,0.0,0.0,0.0,0.0,0.0,9.7695,9.8086,9.8984,9.9844,10.0703,10.1601,10.25,10.289,10.289,10.289,10.289,10.289,10.289,10.289,10.289,10.289,10.289,10.289,10.289,10.3086,10.3398,10.4297,10.4609,10.4687,10.5312,10.5508,10.5508,0.0,0.0,0.0,0.0,0.0,0.0,0.0,0.0,0.0,0.0,0.0,0.0,0.0,0.0,0.0,0.0,0.0,0.0,0.0,0.0,0.0,0.0,0.0,5.7997,5.7997,5.7997,5.7997,5.7997,5.8503,5.9402,6.0707,6.2046,0.0,0.0,0.0,0.0,0.0,0.0,0.0,6.709,6.7128,6.8167,6.9706,0.0,0.0,0.0,0.0,0.0,0.0,0.0,7.6015,7.6015,7.6015,7.6015,7.6169,7.7053,7.7861,7.8669,7.9554,8.0439,8.1093,8.1093,0.0,0.0,0.0,0.0,0.0,0.0,0.0,0.0,0.0,0.0,0.0,0.0,0.0,0.0,9.3595,9.4441,9.5326,9.6211,0.0,0.0,0.0,0.0,0.0,0.0,0.0,0.0,0.0,9.7695,9.8086,9.8984,9.9844,10.0703,10.1601,10.25,10.289,10.289,10.289,10.289,10.289,10.289,10.289,10.289,10.289,10.289,10.289,10.289,10.3398,10.4297,10.5195,10.5508,10.5508,10.5508,10.5508,10.5508,0.0,0.0,0.0,0.0,0.0,0.0,0.0,0.0,0.0,0.0,0.0,0.0,0.0,0.0,0.0,0.0,0.0,0.0,0.0,0.0,0.0,0.0,0.0,0.0,0.0,0.0,5.7997,5.7997,5.9433,6.0301,0.0,0.0,0.0,6.4628,0.0,0.0,0.0,0.0,0.0,6.7205,6.8436,6.9244,6.9744,0.0,0.0,0.0,0.0,0.0,0.0,0.0,0.0,0.0,7.6015,7.6015,7.6169,7.7053,7.7861,7.8669,7.9554,8.0439,0.0,0.0,0.0,0.0,0.0,0.0,0.0,0.0,0.0,0.0,0.0,0.0,0.0,0.0,0.0,0.0,9.3672,9.498,9.6019,9.6288,9.6403,0.0,0.0,0.0,0.0,0.0,0.0,0.0,0.0,9.7695,9.8398,9.9883,10.0195,10.1015,10.25,10.2812,10.289,10.289,10.289,10.289,10.289,10.289,10.289,10.289,10.289,10.289,10.289,10.3594,10.4297,10.5195,10.6015,10.6289,10.6406,10.6992,10.7304,10.7304,0.0,0.0,0.0,0.0,0.0,0.0,0.0,0.0,0.0,0.0,0.0,0.0,0.0,0.0,0.0,0.0,0.0,0.0,0.0,0.0,0.0,0.0,0.0,0.0,0.0,5.7997,5.8143,0.0,0.0,0.0,0.0,0.0,0.0,6.5128,0.0,6.609,0.0,0.0,6.7513,6.8205,6.9283,6.9898,7.0283,0.0,0.0,0.0,0.0,0.0,0.0,0.0,0.0,0.0,7.6015,7.6015,7.6245,7.7438,7.813,7.8746,7.9977,0.0,0.0,0.0,0.0,0.0,0.0,0.0,0.0,0.0,0.0,0.0,0.0,0.0,0.0,0.0,0.0,0.0,0.0,9.5403,9.6288,9.6288,9.648,9.6702,0.0,0.0,0.0,0.0,0.0,0.0,0.0,9.8047,9.8867,10.0312,10.0586,10.1484,10.289,10.289,10.289,10.289,10.289,10.289,10.289,10.289,10.289,10.289,10.289,10.3086,10.3515,10.4414,10.5195,10.6093,10.6914,10.7187,10.7304,10.7812,10.8008,10.8008,0.0,0.0,0.0,0.0,0.0,0.0,0.0,0.0,0.0,0.0,0.0,0.0,0.0,0.0,0.0,0.0,0.0,0.0,0.0,0.0,0.0,0.0,0.0,0.0,0.0,0.0,0.0,0.0,0.0,0.0,0.0,0.0,6.4623,6.5897,0.0,6.6397,0.0,6.7282,6.8244,6.9706,6.9783,7.0283,7.1091,7.1898,0.0,0.0,0.0,0.0,0.0,0.0,0.0,0.0,7.6015,7.6053,7.6438,7.8015,7.8554,7.8977,8.0631,0.0,0.0,0.0,0.0,0.0,0.0,0.0,0.0,0.0,0.0,0.0,0.0,0.0,0.0,0.0,0.0,0.0,0.0,9.5749,9.6288,9.6288,9.648,9.6745,0.0,0.0,0.0,0.0,0.0,0.0,0.0,9.8515,9.9414,10.0312,10.1094,10.1992,10.289,10.289,10.289,10.289,10.289,10.289,10.289,10.289,10.289,10.289,10.3008,10.3515,10.4414,10.5312,10.6093,10.6914,10.7695,10.8008,10.8008,10.8008,10.8008,10.8008,0.0,0.0,0.0,0.0,0.0,0.0,0.0,0.0,0.0,0.0,0.0,0.0,0.0,0.0,0.0,0.0,0.0,0.0,0.0,0.0,0.0,0.0,0.0,0.0,0.0,0.0,0.0,0.0,0.0,0.0,0.0,0.0,0.0,6.5936,0.0,6.6936,6.7167,6.8552,6.936,6.9744,7.0398,7.1168,7.1937,7.2129,7.3129,0.0,0.0,0.0,0.0,0.0,0.0,0.0,7.6015,7.6476,7.7207,7.8207,7.8977,7.9746,8.0823,8.1093,0.0,0.0,0.0,0.0,0.0,0.0,0.0,0.0,0.0,0.0,0.0,0.0,0.0,0.0,0.0,0.0,0.0,9.5749,9.6288,9.6288,9.6634,9.6938,9.6993,0.0,0.0,0.0,0.0,0.0,9.7695,9.8515,9.9414,10.0312,10.1094,10.1992,10.289,10.289,10.289,0.0,10.289,10.289,10.289,10.289,10.289,10.289,10.3594,10.4414,10.5312,10.6093,10.6914,10.7695,10.789,10.8008,10.8008,10.8008,10.8008,10.8008,0.0,0.0,0.0,0.0,0.0,0.0,0.0,0.0,0.0,0.0,0.0,0.0,0.0,0.0,0.0,0.0,0.0,0.0,0.0,0.0,0.0,0.0,0.0,0.0,0.0,0.0,0.0,0.0,0.0,0.0,0.0,0.0,0.0,6.6474,0.0,6.7552,6.8398,6.9321,7.0167,7.0937,7.136,7.2052,7.286,7.3245,7.3937,7.4745,7.5168,0.0,0.0,0.0,0.0,0.0,0.0,0.0,7.7438,7.8246,7.9131,7.9977,8.0862,0.0,0.0,8.3247,0.0,0.0,0.0,0.0,0.0,0.0,0.0,0.0,0.0,9.1248,9.2095,9.2941,9.3787,9.4634,9.548,9.6019,9.6326,9.6442,9.6749,9.7042,9.7169,0.0,0.0,0.0,0.0,9.7695,9.7695,9.8906,9.9844,10.0312,10.1601,10.2383,10.289,10.289,10.289,10.289,10.289,10.289,10.289,10.289,10.3086,10.3515,10.3984,10.4883,10.6093,10.6484,10.7187,10.8008,10.8008,10.8008,10.8008,10.8008,10.8008,10.8008,0.0,0.0,0.0,0.0,0.0,0.0,0.0,0.0,0.0,0.0,0.0,0.0,0.0,0.0,0.0,0.0,0.0,0.0,0.0,0.0,0.0,0.0,0.0,0.0,5.9391,5.9538,6.0517,0.0,0.0,0.0,0.0,0.0,0.0,6.709,0.0,6.8359,6.9706,7.0014,7.0937,7.2206,7.236,7.2937,7.3783,7.4437,7.4784,7.5014,7.5745,7.6015,7.6015,7.6015,0.0,0.0,0.0,0.0,7.763,7.8284,7.9208,8.0169,8.09,0.0,8.2901,8.4516,8.5517,0.0,8.7209,8.7517,8.8055,8.9594,8.9902,9.0171,9.1056,9.1902,9.2749,9.3557,9.4441,9.5288,9.6172,9.6326,9.6403,9.6557,9.6865,9.7171,9.7402,9.7589,0.0,0.0,0.0,9.7695,9.7695,9.9336,10.0312,10.0312,10.1992,10.289,10.289,10.289,10.289,10.289,10.289,10.289,10.289,10.3086,10.3515,10.4219,10.4414,10.5312,10.6719,10.6914,10.7304,10.8008,10.8008,10.8008,10.8008,10.8008,10.8008,10.8008,0.0,0.0,0.0,0.0,0.0,0.0,0.0,0.0,0.0,0.0,0.0,0.0,0.0,0.0,0.0,0.0,0.0,0.0,0.0,0.0,0.0,0.0,0.0,0.0,6.0236,6.0933,6.1422,0.0,0.0,0.0,0.0,0.0,0.0,6.7167,0.0,0.0,6.9821,7.1245,7.2014,7.2283,7.3014,7.3822,7.4553,7.4668,7.5168,7.5822,7.5976,7.6015,7.6015,7.6015,7.6015,0.0,0.0,0.0,7.8361,7.8477,7.9631,8.0939,0.0,0.0,8.367,0.0,8.5517,8.6324,0.0,0.0,8.8786,0.0,8.9902,9.0171,9.1056,9.1902,9.2749,9.3557,9.4441,9.5288,9.6172,9.6442,9.6557,9.6596,9.7056,9.7364,9.7402,9.7589,9.7695,0.0,9.7695,9.7695,9.7695,9.9336,10.0312,10.0312,10.1992,10.289,10.289,10.289,10.289,10.289,10.289,10.289,10.289,10.3711,10.4101,10.4219,10.5,10.5781,10.6797,10.75,10.789,10.8008,10.8008,10.8008,10.8008,10.8008,10.8008,10.8008,0.0,0.0,0.0,0.0,0.0,0.0,0.0,0.0,0.0,0.0,0.0,0.0,0.0,0.0,0.0,5.7997,5.7997,5.818,5.8657,5.8694,0.0,0.0,0.0,0.0,6.1043,6.141,0.0,0.0,0.0,0.0,0.0,6.7546,6.8377,0.0,0.0,0.0,0.0,0.0,0.0,7.363,7.4014,7.4668,7.5438,7.5438,7.5668,7.6015,0.0,0.0,7.6015,7.6015,7.6015,7.6092,7.6553,0.0,0.0,0.0,8.0131,8.1285,8.2247,8.3401,8.4516,0.0,8.5863,8.6478,8.7825,8.8402,8.9056,9.0364,9.0633,9.0902,9.1787,9.2595,9.3441,9.4287,9.5249,9.6019,9.6403,9.6673,9.6865,9.7019,9.7287,9.7433,9.7554,9.765,9.7695,9.7695,9.7695,9.789,9.8398,9.9609,10.0508,10.1015,10.2187,10.289,10.289,10.289,10.289,10.289,10.289,10.289,10.289,10.3789,10.4492,10.5,10.5781,10.6719,10.75,10.7812,10.8008,10.8008,10.8008,10.8008,10.8008,10.8008,10.8008,10.8008,0.0,0.0,0.0,0.0,0.0,0.0,0.0,0.0,0.0,0.0,0.0,0.0,0.0,0.0,0.0,0.0,5.818,5.8657,5.9465,5.9501,0.0,0.0,0.0,0.0,6.1887,0.0,0.0,0.0,0.0,0.0,6.684,6.879,6.9937,0.0,7.0321,0.0,0.0,0.0,0.0,0.0,0.0,7.5438,7.6015,7.6015,0.0,7.6015,7.6015,0.0,0.0,0.0,0.0,0.0,7.7092,7.7977,0.0,0.0,0.0,0.0,0.0,0.0,8.5093,8.5901,8.6094,8.6555,0.0,0.0,8.9171,0.0,9.1248,9.1595,9.271,9.3403,9.4095,9.4941,9.598,9.6705,9.668,9.693,9.721,9.7402,9.7465,9.7517,9.7691,9.7695,9.7695,9.7695,9.7695,9.8086,9.8945,9.9844,10.0703,10.1601,10.2383,10.289,10.289,10.289,10.289,10.289,10.289,10.289,10.289,10.3984,10.4883,10.5508,10.6406,10.7187,10.8008,10.8008,10.8008,10.8008,10.8008,10.8008,10.8008,10.8008,10.8008,10.8008,0.0,0.0,0.0,0.0,0.0,0.0,0.0,0.0,0.0,0.0,0.0,0.0,0.0,5.7997,5.7997,5.7997,5.8694,5.9501,6.0272,6.0346,6.0713,6.1484,6.152,0.0,6.2732,6.2768,0.0,0.0,0.0,0.0,6.8033,6.9169,7.0552,7.2052,7.2052,7.2129,7.2283,0.0,0.0,0.0,0.0,0.0,0.0,0.0,0.0,0.0,0.0,0.0,0.0,0.0,0.0,0.0,0.0,0.0,0.0,0.0,0.0,0.0,0.0,8.4247,0.0,8.5901,8.6094,8.6555,0.0,0.0,8.9171,9.0864,9.1364,9.1979,9.3708,9.4054,9.4362,9.5247,9.6249,9.6989,9.697,9.7209,9.7402,9.7402,9.7566,9.7693,9.7695,9.7695,9.7695,9.7695,9.7695,9.8086,9.8945,9.9844,10.0703,10.1601,10.2383,10.289,10.289,10.289,10.289,10.289,10.289,10.289,10.3008,10.4687,10.5508,10.5508,10.6406,10.7187,10.8008,10.8008,10.8008,10.8008,10.8008,10.8008,10.8008,10.8008,10.8008,10.8008,0.0,0.0,0.0,0.0,0.0,0.0,0.0,0.0,0.0,0.0,0.0,0.0,0.0,5.9399,5.958,5.9239,5.9697,6.0309,6.1117,6.1153,6.152,6.2365,6.2365,6.2768,6.3613,6.3613,0.0,0.0,0.0,6.7695,6.8631,7.0478,7.1629,7.2206,7.2206,7.2783,7.386,7.4437,0.0,0.0,0.0,0.0,0.0,0.0,0.0,0.0,0.0,0.0,0.0,0.0,0.0,0.0,0.0,0.0,0.0,0.0,0.0,0.0,0.0,0.0,8.5747,8.6017,8.6094,8.6555,8.8286,8.8709,8.9171,9.0864,9.1364,9.2018,9.3785,9.4208,9.4767,9.6165,9.6892,9.728,9.7233,9.744,9.7578,9.7578,9.7662,9.7695,9.7695,9.7695,9.7695,9.7695,9.7695,9.832,9.9765,10.0117,10.1015,10.2383,10.2695,10.289,10.289,10.289,10.289,10.289,10.289,10.289,10.3008,10.4687,10.5508,10.5586,10.6914,10.7695,10.8008,10.8008,10.8008,10.8008,10.8008,10.8008,10.8008,10.8008,10.8008,10.8008,0.0,0.0,0.0,0.0,0.0,0.0,0.0,0.0,0.0,0.0,0.0,0.0,0.0,0.0,6.1054,6.0973,6.1204,6.1767,6.288,6.2955,6.3234,6.3885,6.3922,6.418,6.4734,6.4217,0.0,0.0,0.0,0.0,0.0,0.0,7.2514,7.3053,7.3053,0.0,0.0,0.0,0.0,7.6015,0.0,0.0,7.6015,0.0,0.0,0.0,0.0,0.0,0.0,0.0,0.0,0.0,0.0,0.0,0.0,0.0,0.0,0.0,8.3939,0.0,0.0,8.6094,8.6324,8.6901,8.8363,8.8902,8.9517,9.1018,9.1479,9.2207,9.3977,9.4552,9.5225,9.6889,9.7353,9.7508,9.7508,9.7622,9.7695,9.7695,9.7695,9.7695,9.7695,9.7695,9.7695,9.7695,9.7695,0.0,10.0195,10.0312,10.1094,10.2812,10.289,10.289,10.289,10.289,10.289,10.289,10.289,10.289,10.289,10.4414,10.5195,10.5586,10.6992,10.7695,10.8008,10.8008,10.8008,10.8008,10.8008,10.8008,10.8008,10.8008,10.8008,10.8008,0.0,0.0,0.0,0.0,0.0,0.0,0.0,0.0,0.0,0.0,0.0,0.0,0.0,0.0,0.0,6.3124,6.3199,6.3916,6.554,6.5653,6.5795,6.6105,6.6097,6.6097,6.618,6.4525,6.5165,0.0,0.0,0.0,0.0,0.0,7.3129,0.0,7.4745,7.4745,7.4784,0.0,7.6015,7.6015,0.0,7.6015,7.613,0.0,0.0,0.0,7.8246,7.8515,0.0,0.0,0.0,0.0,0.0,0.0,0.0,0.0,0.0,0.0,0.0,0.0,0.0,8.6094,8.6748,8.7632,8.8479,8.9325,9.021,9.1287,9.1707,9.2511,9.4433,9.5007,9.5696,9.7167,9.7582,9.7695,9.7695,9.7695,9.7695,9.7695,9.7695,9.7695,9.7695,9.7695,9.7695,9.7695,9.7695,9.8476,10.0195,10.0312,10.1211,10.2812,10.289,10.289,10.289,10.289,10.289,10.289,10.289,10.289,10.289,10.3789,10.4687,10.5508,10.6406,10.7187,10.8008,10.8008,10.8008,10.8008,10.8008,10.8008,10.8008,10.8008,10.8008,10.8008,0.0,0.0,0.0,0.0,0.0,0.0,0.0,0.0,0.0,0.0,0.0,0.0,0.0,0.0,0.0,6.5394,6.5724,6.6031,6.6521,6.6521,6.6596,6.6663,6.6701,6.6965,6.7526,6.7074,6.8033,0.0,0.0,0.0,0.0,0.0,0.0,0.0,7.5361,7.563,7.5668,7.5899,0.0,0.0,7.6015,7.6361,0.0,0.0,0.0,0.0,0.0,7.9438,7.9554,0.0,8.0554,8.0746,0.0,0.0,0.0,0.0,0.0,0.0,8.467,0.0,0.0,0.0,0.0,0.0,8.8479,8.9325,9.021,9.1287,9.1716,9.2508,9.4458,9.5006,9.571,9.7348,9.7672,9.7695,9.7695,9.7695,9.7695,9.7695,9.7695,9.7695,9.7695,9.7695,9.7695,0.0,9.7695,9.8476,10.0195,10.1484,10.2383,10.289,10.289,10.289,10.289,10.289,10.289,10.289,10.289,10.289,10.289,10.3789,10.4687,10.5508,10.6406,10.7187,10.8008,10.8008,10.8008,10.8008,10.8008,10.8008,10.8008,10.8008,10.8008,10.8008,0.0,0.0,0.0,0.0,0.0,0.0,0.0,0.0,0.0,0.0,0.0,0.0,0.0,0.0,0.0,6.7178,6.7414,6.7702,6.8045,6.8388,6.8628,6.8791,6.9094,6.9512,6.9967,6.9285,7.0033,7.2269,0.0,0.0,0.0,0.0,0.0,0.0,0.0,0.0,0.0,0.0,0.0,0.0,7.6553,0.0,0.0,7.8207,7.8631,0.0,0.0,0.0,8.0439,8.0939,8.1323,0.0,0.0,0.0,0.0,0.0,0.0,0.0,0.0,0.0,0.0,0.0,0.0,0.0,8.8556,8.9594,9.0671,9.1479,9.1773,9.242,9.4106,9.484,9.5625,9.6992,9.7461,9.7695,9.7695,9.7695,9.7695,9.7695,9.7695,9.7695,9.7695,9.7695,9.7695,9.7695,9.7695,9.8476,10.0195,10.1601,10.25,10.289,10.289,10.289,10.289,10.289,10.289,10.289,10.289,10.289,10.289,10.3398,10.4101,10.5,10.5781,10.6719,10.75,10.789,10.8008,10.8008,10.8008,10.8008,10.8008,10.8008,10.8008,10.8008,0.0,0.0,0.0,0.0,0.0,0.0,0.0,0.0,0.0,0.0,0.0,0.0,0.0,0.0,0.0,0.0,6.8859,6.9321,7.009,7.0783,7.1334,7.1608,7.2334,7.2716,7.2716,7.1264,7.1504,7.363,0.0,0.0,0.0,0.0,0.0,0.0,0.0,0.0,0.0,0.0,0.0,7.7438,7.7438,7.79,0.0,0.0,7.9862,0.0,8.0862,8.1131,8.117,8.1246,8.1823,0.0,0.0,0.0,0.0,0.0,8.4901,0.0,0.0,0.0,0.0,0.0,0.0,0.0,8.8709,9.0017,9.1325,9.1748,9.1851,9.2265,9.3585,9.4473,9.531,9.6289,9.707,9.7578,9.7695,9.7695,9.7695,9.7695,9.7695,9.7695,9.7695,9.7695,9.7695,9.7695,9.7773,9.8554,10.0195,10.1094,10.1992,10.289,10.289,10.289,10.289,10.289,10.289,10.289,10.289,10.289,10.289,10.289,10.3398,10.4219,10.5,10.5781,10.6601,10.75,10.789,10.8008,10.8008,10.8008,10.8008,10.8008,10.8008,10.8008,6.0781,0.0,0.0,0.0,0.0,0.0,0.0,0.0,0.0,0.0,0.0,0.0,0.0,0.0,0.0,0.0,7.1706,7.2591,7.2745,7.2899,7.3024,7.3091,7.3245,7.3321,7.3321,7.3014,7.3351,7.4476,0.0,0.0,0.0,0.0,0.0,0.0,0.0,0.0,0.0,0.0,0.0,7.8246,7.8246,0.0,7.9554,7.9746,8.0323,8.1093,8.1285,8.1439,8.1631,0.0,8.2862,8.3548,0.0,0.0,0.0,0.0,0.0,0.0,0.0,0.0,0.0,0.0,0.0,0.0,8.8709,9.0017,9.1287,9.1518,9.16,9.195,9.3141,9.3506,9.4167,9.5896,9.6328,9.6719,9.7578,9.7695,9.7695,9.7695,9.7695,9.7695,9.7695,9.7695,9.7695,9.7695,9.8359,9.9219,10.0195,10.1094,10.1992,10.289,10.289,10.289,10.289,10.289,10.289,10.289,10.289,10.289,10.289,10.289,10.3398,10.4219,10.4414,10.4883,10.5781,10.6601,10.7383,10.8008,10.8008,10.8008,10.8008,10.8008,10.8008,10.8008,6.205,0.0,0.0,0.0,0.0,0.0,0.0,0.0,0.0,0.0,0.0,0.0,0.0,0.0,0.0,0.0,0.0,0.0,0.0,0.0,7.4091,7.4091,7.4514,7.4745,7.4745,7.4745,7.4938,7.5361,0.0,0.0,0.0,0.0,0.0,0.0,0.0,0.0,0.0,0.0,7.8361,7.9131,7.9131,0.0,8.0477,8.0554,8.0939,8.1462,8.2006,8.2553,8.3018,8.3367,8.395,0.0,0.0,8.4593,8.4939,0.0,8.5517,8.5593,0.0,0.0,0.0,8.6632,0.0,0.0,0.0,9.0287,9.1248,9.1441,9.1483,9.1726,9.2444,9.2897,9.3527,9.4503,9.5481,9.6289,9.6836,9.7344,9.7695,9.7695,9.7695,9.7695,9.7695,9.7695,9.7695,9.7695,9.8086,9.8711,9.9609,10.0508,10.1406,10.2187,10.2695,10.289,10.289,10.289,10.289,10.289,10.289,10.289,10.289,10.289,10.3086,10.3594,10.3984,10.4414,10.4883,10.5781,10.6406,10.6797,10.7695,10.8008,10.8008,10.8008,10.8008,10.8008,6.3358,0.0,0.0,0.0,0.0,0.0,0.0,0.0,0.0,0.0,0.0,0.0,0.0,0.0,0.0,0.0,0.0,0.0,0.0,0.0,7.4938,7.4938,7.563,7.6015,7.6015,7.6015,7.6015,7.6015,0.0,0.0,0.0,0.0,0.0,0.0,0.0,0.0,0.0,0.0,0.0,7.9823,0.0,8.0554,8.1362,8.1554,8.1792,8.2057,8.3026,8.3948,8.465,8.4611,0.0,8.5505,8.5466,8.5747,0.0,0.0,0.0,0.0,0.0,0.0,0.0,0.0,0.0,8.9094,0.0,0.0,0.0,9.1402,9.1441,9.1518,9.171,9.2361,9.2784,9.2665,9.4251,9.5469,9.5528,9.6599,9.7461,9.7695,9.7695,9.7695,9.7695,9.7695,9.7695,9.7695,9.7695,9.8086,9.8945,9.9844,10.0703,10.1601,10.2383,10.289,10.289,10.289,10.289,10.289,10.289,10.289,10.289,10.289,10.289,10.289,10.3594,10.3906,10.3984,10.4883,10.5195,10.539,10.7109,10.7695,10.7812,10.789,10.8008,10.8008,6.3589,6.3935,0.0,0.0,0.0,0.0,0.0,0.0,0.0,0.0,0.0,0.0,0.0,0.0,0.0,0.0,0.0,0.0,7.5707,0.0,0.0,7.5861,7.5938,7.6015,7.6015,7.6015,7.6015,7.6015,0.0,0.0,0.0,0.0,0.0,0.0,7.6823,0.0,0.0,0.0,7.9708,0.0,8.0631,8.1439,0.0,8.2432,8.3089,8.3937,8.4492,8.5231,8.5934,0.0,8.6072,8.6573,0.0,8.6247,8.6094,0.0,0.0,0.0,0.0,0.0,0.0,0.0,8.8594,0.0,0.0,0.0,9.121,9.1248,0.0,9.1248,9.1287,0.0,0.0,9.074,9.2062,9.3242,9.351,9.5105,9.664,9.7578,9.7695,9.7695,9.7695,9.7695,9.7695,9.7695,9.7695,9.8086,9.8945,9.9844,10.0703,10.1601,10.2383,10.289,10.289,10.289,10.289,10.289,10.289,10.289,10.289,10.289,10.289,10.289,10.3008,10.3008,10.3086,10.3984,10.4297,10.4492,10.6211,10.6797,10.6914,10.7695,10.8008,10.8008,6.5743,0.0,0.0,0.0,0.0,6.7859,0.0,0.0,0.0,0.0,0.0,0.0,0.0,0.0,0.0,0.0,0.0,7.6015,0.0,0.0,0.0,7.6015,7.6015,7.6015,7.6015,7.6015,7.6015,7.6015,7.6015,0.0,0.0,0.0,0.0,0.0,7.763,0.0,7.8784,0.0,8.0362,0.0,0.0,0.0,0.0,8.3131,8.3889,8.5384,8.5582,8.6211,8.6953,0.0,8.7216,0.0,0.0,0.0,0.0,0.0,0.0,0.0,0.0,0.0,0.0,0.0,0.0,0.0,9.0556,0.0,9.121,0.0,0.0,0.0,0.0,0.0,0.0,0.0,9.1934,9.2839,9.2925,9.4768,9.6437,9.7418,9.7617,0.0,9.7695,9.7695,9.7695,9.7695,9.7695,9.7851,9.8242,9.9531,10.0508,10.0781,10.2187,10.289,10.289,10.289,10.289,10.289,10.289,10.289,10.289,10.289,10.289,10.289,10.289,10.289,10.289,10.3281,10.3398,10.3594,10.4804,10.5586,10.6093,10.6914,10.7187,10.7304,6.7898,0.0,0.0,0.0,0.0,0.0,0.0,0.0,0.0,0.0,0.0,0.0,7.5014,7.563,0.0,0.0,0.0,7.6015,0.0,0.0,7.6245,0.0,0.0,0.0,0.0,7.6015,7.6015,7.6015,7.6245,0.0,0.0,0.0,0.0,0.0,0.0,7.9208,7.9823,0.0,8.1016,8.2432,8.2624,8.3811,8.5312,8.4439,8.5155,8.6562,8.6562,8.6953,8.7539,8.7734,8.8086,0.0,8.7934,0.0,0.0,0.0,0.0,0.0,8.8786,0.0,0.0,0.0,0.0,0.0,0.0,0.0,0.0,0.0,0.0,0.0,0.0,0.0,0.0,0.0,0.0,9.2315,9.2053,9.3826,9.5613,9.6816,9.734,9.7656,0.0,9.7695,9.7695,9.7695,9.7695,9.7695,9.7695,9.914,10.0117,10.0312,10.1797,10.2695,10.289,10.289,10.289,10.289,10.289,10.289,10.289,10.289,10.289,10.289,10.289,10.289,10.289,10.289,10.289,10.3008,10.3594,10.4219,10.4883,10.6015,10.6406,10.6484,6.9475,6.8936,0.0,0.0,0.0,0.0,0.0,0.0,0.0,0.0,0.0,0.0,0.0,0.0,0.0,0.0,0.0,7.6015,7.6015,0.0,7.6861,0.0,0.0,7.6861,0.0,0.0,7.6015,7.6015,0.0,0.0,0.0,0.0,0.0,0.0,0.0,7.9785,7.9862,8.0708,8.1701,8.2663,8.2733,8.3996,8.5953,0.0,8.7176,8.7461,8.7461,0.0,0.0,8.8398,8.8554,0.0,0.0,0.0,0.0,0.0,0.0,0.0,0.0,0.0,0.0,8.9979,0.0,0.0,0.0,0.0,9.121,0.0,0.0,0.0,0.0,0.0,0.0,0.0,0.0,0.0,0.0,9.1668,9.3616,9.5535,9.6738,9.75,0.0,9.7695,9.7695,9.7695,9.7695,9.7695,9.7695,9.8554,9.9414,10.0312,10.1211,10.1992,10.289,10.289,10.289,10.289,10.289,10.289,10.289,10.289,10.289,10.289,10.289,10.289,10.289,10.289,10.289,10.289,10.289,10.3008,10.3203,10.4883,10.5508,10.5703,0.0,0.0,0.0,0.0,0.0,0.0,0.0,7.4284,0.0,0.0,0.0,0.0,0.0,0.0,7.6015,0.0,0.0,7.6861,7.6861,7.763,0.0,0.0,0.0,7.7938,0.0,0.0,0.0,0.0,0.0,0.0,0.0,0.0,0.0,0.0,0.0,8.0669,0.0,0.0,0.0,0.0,0.0,8.6461,8.7726,0.0,0.0,8.7578,8.8086,8.8281,0.0,8.9258,8.9883,9.0273,9.0,9.0539,9.1162,9.0618,9.0725,0.0,0.0,0.0,9.1287,9.1018,0.0,0.0,0.0,0.0,0.0,0.0,0.0,0.0,0.0,0.0,0.0,0.0,0.0,0.0,0.0,9.2018,9.362,9.5695,9.6941,9.7617,9.7695,9.7695,9.7695,9.7695,9.7695,9.7695,9.7695,9.8515,9.9414,10.0312,10.1094,10.1992,10.289,10.289,10.289,10.289,10.289,10.289,10.289,10.289,10.289,10.289,10.289,10.289,10.289,10.289,10.289,10.289,10.289,10.289,10.3008,10.4219,10.4609,10.4804,7.3514,0.0,0.0,0.0,0.0,0.0,0.0,0.0,0.0,0.0,7.6015,0.0,7.6438,0.0,7.6592,0.0,7.74,7.7707,7.7707,7.8515,0.0,7.8515,7.8784,0.0,0.0,0.0,0.0,0.0,0.0,7.8977,0.0,0.0,0.0,0.0,0.0,8.1246,8.1554,8.2093,8.3163,0.0,0.0,8.7831,0.0,0.0,8.8125,8.8476,0.0,8.914,8.9297,9.0156,9.0859,9.125,9.1015,9.1562,9.2226,9.1719,9.1843,9.2117,9.2039,9.2026,0.0,9.1705,9.1638,0.0,9.1479,0.0,0.0,0.0,0.0,0.0,0.0,0.0,0.0,0.0,0.0,0.0,0.0,9.2249,9.347,9.5181,9.6426,9.728,9.7655,9.7695,9.7695,9.7695,9.7695,9.7695,9.7695,0.0,9.8945,9.9804,10.0703,10.1601,10.2383,10.2695,10.289,10.289,10.289,10.289,10.289,10.289,10.289,10.289,10.289,10.289,10.289,10.289,10.289,10.289,10.289,10.289,10.3008,10.3515,10.3906,10.4414,0.0,0.0,0.0,0.0,7.4284,0.0,0.0,0.0,7.6015,0.0,7.6053,7.6399,7.7284,7.7361,7.7669,7.8477,7.8554,0.0,7.8592,7.94,0.0,0.0,7.9438,7.9477,7.8631,0.0,0.0,0.0,0.0,0.0,0.0,0.0,0.0,0.0,8.1131,0.0,8.2324,8.2401,8.3702,8.5774,8.7032,8.805,8.8828,8.8828,8.9375,9.0117,9.0078,9.0078,9.0195,9.1054,9.1367,9.1523,9.2344,9.2617,9.2656,9.2656,9.2695,9.2656,9.2422,9.2344,9.2297,9.2093,0.0,0.0,0.0,0.0,9.2045,0.0,0.0,0.0,0.0,0.0,0.0,0.0,0.0,0.0,0.0,9.2245,9.3103,9.402,9.5245,9.6461,9.7572,9.7695,9.7695,9.7695,9.7695,9.7695,9.7695,0.0,9.8086,9.8984,9.9844,10.0703,10.1601,10.25,10.289,10.289,10.289,10.289,10.289,10.289,10.289,10.289,10.289,10.289,10.289,10.289,10.289,10.289,10.289,10.289,10.289,10.289,10.3398,10.4101,7.5438,7.563,7.5822,0.0,7.563,7.5745,0.0,0.0,0.0,0.0,7.6976,7.7323,7.8314,7.843,7.8584,7.8968,7.9546,0.0,0.0,0.0,0.0,8.0669,8.0746,8.0669,8.0439,8.0439,0.0,8.0439,0.0,0.0,8.0785,0.0,0.0,0.0,0.0,8.2208,8.2663,8.3933,8.5703,8.768,8.8204,8.9305,0.0,0.0,9.1172,9.1836,9.1211,9.0976,9.1094,9.1953,9.2265,9.2304,9.2539,9.3047,9.3554,9.3554,9.4023,9.4531,9.4453,9.4414,9.4374,9.4126,9.4051,9.4039,0.0,0.0,0.0,0.0,0.0,0.0,0.0,0.0,0.0,0.0,0.0,0.0,0.0,0.0,0.0,9.4409,9.4933,9.5736,9.7338,9.7617,9.7695,9.7695,9.7695,9.7695,9.7695,0.0,0.0,9.8984,9.9844,10.0703,10.1601,10.25,10.289,10.289,10.289,10.289,10.289,10.289,10.289,10.289,10.289,10.289,10.289,10.289,10.289,10.289,10.289,10.289,10.289,10.289,10.3008,10.3281,7.6297,0.0,0.0,7.6939,0.0,0.0,7.6833,0.0,0.0,7.7852,7.7968,0.0,7.9276,7.9469,7.9718,8.0237,8.0725,0.0,8.0957,0.0,0.0,8.1547,8.14,8.1516,8.1932,8.1823,0.0,8.1816,0.0,0.0,8.1093,0.0,0.0,8.167,8.2593,8.3317,8.3933,8.578,8.7281,8.8444,8.9047,9.0078,0.0,9.1289,9.207,9.3086,9.2617,9.2422,9.25,9.3008,9.3437,9.375,9.375,9.4062,9.4453,9.4453,9.4804,9.5195,9.5195,9.5195,9.5156,9.5,9.4961,9.4957,9.4848,9.4812,9.4812,0.0,0.0,0.0,0.0,0.0,0.0,0.0,0.0,0.0,0.0,0.0,0.0,0.0,9.5322,9.5919,9.7282,9.7571,9.7695,9.7695,9.7695,0.0,0.0,0.0,0.0,9.8437,9.9648,10.0508,10.1015,10.2304,10.289,10.289,10.289,10.289,10.289,10.289,10.289,10.289,10.289,10.289,10.289,10.289,10.289,10.289,10.289,10.289,10.289,10.289,10.289,10.3008,0.0,0.0,0.0,0.0,0.0,0.0,0.0,7.7996,0.0,7.8921,0.0,7.9392,8.0431,8.0678,8.1158,8.2026,0.0,8.2117,8.2117,8.2078,8.2064,8.2057,8.2063,8.2391,8.3153,8.2931,0.0,0.0,0.0,0.0,8.1439,8.2208,8.2516,8.2554,8.3625,8.4664,8.5742,8.7649,8.8548,8.8853,8.9774,9.0703,9.1484,9.1601,9.2578,9.3906,9.4023,9.4062,9.4062,9.4062,9.457,9.5195,9.5195,9.5273,9.5351,9.5351,9.5429,9.5547,9.5547,9.5547,9.5547,9.5547,9.5547,9.5547,9.5547,9.5547,9.5547,9.5547,9.5547,9.5547,0.0,0.0,0.0,0.0,0.0,0.0,0.0,0.0,0.0,0.0,0.0,0.0,9.7364,9.7589,9.7695,9.7695,9.7695,0.0,0.0,0.0,0.0,9.7695,9.9297,10.0195,10.0312,0.0,10.2812,10.289,10.289,10.289,10.289,10.289,10.289,10.289,10.289,10.289,10.289,10.289,10.289,10.289,10.289,10.289,10.289,10.289,10.289,10.289,0.0,0.0,0.0,0.0,0.0,7.9618,8.037,7.9576,7.9213,8.001,8.0115,8.0808,8.254,8.2776,8.3208,8.4238,8.4326,0.0,0.0,0.0,0.0,8.4107,8.3948,8.3911,8.4085,8.4028,8.3917,0.0,0.0,0.0,8.317,0.0,8.3849,8.3664,8.4773,8.6197,8.7873,8.8417,0.0,9.0823,9.1012,9.1601,9.2461,9.3164,9.3633,9.3984,9.4726,9.4961,9.4961,9.4961,9.5078,9.5195,9.5195,9.5703,9.6289,9.6289,9.6758,9.7265,9.7265,9.7265,9.7265,9.7265,9.7265,9.7265,9.7265,9.7265,9.7265,9.7265,9.7265,9.7265,9.7265,0.0,0.0,0.0,0.0,0.0,0.0,0.0,0.0,0.0,0.0,9.6512,9.7556,9.7667,9.7695,9.7695,9.7695,0.0,0.0,0.0,0.0,0.0,9.8672,0.0,0.0,0.0,10.2187,10.289,10.289,10.289,10.289,10.289,10.289,10.289,10.289,10.289,10.289,10.289,10.289,10.289,10.289,10.289,10.289,10.289,10.289,10.3008,0.0,0.0,0.0,0.0,0.0,0.0,0.0,8.1577,0.0,8.187,8.1886,8.2425,8.3842,8.4061,8.4345,8.4843,8.4883,8.4883,8.4883,8.4804,8.4765,8.4765,8.4658,0.0,8.5286,8.5168,8.5029,8.4926,0.0,0.0,0.0,0.0,0.0,8.4824,8.6307,8.7565,0.0,0.0,0.0,9.1367,9.2265,9.289,9.3359,9.4258,9.4844,9.5312,9.5703,9.6133,9.6445,9.6015,9.6133,9.6484,9.6484,9.6797,9.7109,9.7109,9.7383,9.7695,9.7695,9.7695,9.7695,9.7695,9.7695,9.7695,9.7695,9.7695,9.7695,9.7695,9.7695,9.7695,9.7695,9.7695,0.0,0.0,0.0,0.0,0.0,0.0,0.0,0.0,0.0,0.0,0.0,9.7596,9.7603,9.7694,9.7695,0.0,0.0,0.0,0.0,0.0,0.0,0.0,0.0,0.0,0.0,10.289,10.289,10.289,10.289,10.289,10.289,10.289,10.289,10.289,10.289,10.289,10.289,10.289,10.289,10.289,10.289,10.289,10.289,10.3008,0.0,8.0143,0.0,0.0,8.1548,0.0,8.2734,8.3437,8.375,8.3398,8.3531,8.3977,8.4854,8.5078,8.5234,8.5429,8.5625,8.5703,8.5703,8.5898,8.5898,8.5703,8.5703,8.5937,8.6484,8.6289,8.6172,0.0,0.0,0.0,0.0,0.0,0.0,0.0,0.0,0.0,0.0,0.0,9.1523,9.1953,9.3359,9.4023,9.4258,9.5156,9.5898,9.6523,9.6679,9.7148,9.7617,9.6953,9.7187,9.7695,9.7695,9.7695,9.7695,9.7695,9.7695,9.7695,9.7695,9.7695,9.7695,9.7695,9.7695,9.7695,9.7695,9.7695,9.7695,9.7695,9.7695,9.7695,9.7695,9.7695,0.0,0.0,0.0,0.0,0.0,0.0,0.0,0.0,0.0,0.0,9.7691,9.7548,9.7538,9.768,0.0,0.0,9.7695,0.0,0.0,0.0,0.0,9.9219,10.0312,0.0,10.1914,10.289,10.289,10.289,10.289,10.289,10.289,10.289,10.289,10.289,10.289,10.289,10.289,10.289,10.289,10.289,10.289,10.289,10.3008,10.3281,0.0,0.0,0.0,0.0,0.0,0.0,8.4531,8.4726,8.4492,8.3672,8.4254,8.5068,8.5966,8.6053,8.6406,8.7187,8.7929,8.8359,8.8359,8.9062,8.9179,8.8398,8.8359,8.8047,8.7383,8.7344,8.7226,0.0,0.0,0.0,0.0,0.0,0.0,0.0,0.0,0.0,0.0,9.1211,9.2226,9.3672,9.3828,9.4375,9.5156,9.6054,9.6445,9.6601,9.7344,9.7656,9.7695,9.7617,9.7656,9.7695,9.7695,9.7695,9.7695,9.7695,9.7695,9.7695,9.7695,9.7695,9.7695,9.7695,9.7695,9.7695,9.7695,9.7695,9.7695,9.7695,9.7695,9.7695,9.7695,9.7695,9.7695,0.0,0.0,0.0,0.0,0.0,9.7695,9.7695,0.0,0.0,9.7695,9.7665,9.7668,9.7688,9.7526,0.0,0.0,0.0,0.0,9.7695,0.0,9.8633,10.0312,10.039,10.1289,10.289,10.289,10.289,10.289,10.289,10.289,10.289,10.289,10.289,10.289,10.289,10.289,10.289,10.289,10.289,10.289,10.289,10.3398,10.4219,0.0,0.0,0.0,0.0,0.0,0.0,0.0,8.5781,8.6328,8.5976,8.625,8.6797,8.7617,8.8164,8.8633,8.8984,8.9297,8.9492,8.9492,8.9804,8.9844,8.9492,8.9492,8.9336,8.9023,8.8984,8.8945,0.0,0.0,0.0,0.0,0.0,0.0,0.0,0.0,9.0664,9.1367,9.2422,9.3242,9.3984,9.5039,9.5664,9.6054,9.6914,9.7226,9.7265,9.7578,9.7695,9.7695,9.7695,9.7695,9.7695,9.7695,9.7695,9.7695,9.7695,9.7695,9.7695,9.7695,9.7695,9.7695,9.7695,9.7695,9.7695,9.7695,9.7695,9.7695,9.7695,9.7695,9.7695,9.7695,9.7695,9.7695,0.0,0.0,0.0,0.0,0.0,0.0,9.7695,0.0,9.7695,9.7695,9.7611,9.7575,9.7668,0.0,0.0,0.0,0.0,0.0,9.7695,0.0,9.9062,10.0312,10.0781,10.1719,10.289,10.289,10.289,10.289,10.289,10.289,10.289,10.289,10.289,10.289,10.289,10.289,10.289,10.289,10.289,10.289,10.289,10.3515,10.4297,8.3984,0.0,8.5078,0.0,8.5664,8.582,8.6328,8.7422,8.8242,8.8242,8.8476,8.875,8.9062,8.9648,9.0,9.0,9.0234,9.039,9.039,9.0625,9.0664,9.039,9.039,0.0,9.0,9.0,9.0,9.0,9.0,0.0,0.0,0.0,0.0,0.0,9.1289,9.1836,9.2148,9.3633,9.4414,9.4765,9.6015,9.664,9.6914,9.7461,9.7695,9.7695,9.7695,9.7695,9.7695,9.7695,9.7695,9.7695,9.7695,9.7695,9.7695,9.7695,9.7695,9.7695,9.7695,9.7695,9.7695,9.7695,9.7695,9.7695,9.7695,9.7695,9.7695,9.7695,9.7695,9.7695,9.7695,9.7695,9.7695,9.7695,0.0,0.0,0.0,0.0,0.0,9.7695,9.7695,9.7695,9.7695,9.7578,9.7558,9.7702,0.0,0.0,0.0,0.0,0.0,0.0,0.0,0.0,0.0,10.1211,10.1992,10.289,10.289,10.289,10.289,10.289,10.289,10.289,10.289,10.289,10.289,10.289,10.289,10.289,10.289,10.289,10.289,10.289,10.3594,10.4687,8.4883,8.4883,8.5429,8.7187,8.7461,8.8047,8.9687,8.9961,8.9961,8.9961,9.0703,9.0937,9.0078,9.0,9.0,9.0,9.0781,9.1289,9.1289,9.2109,9.2187,0.0,0.0,9.0898,9.0039,9.0,9.0,9.0,0.0,0.0,8.8711,0.0,8.9648,9.1328,9.2187,9.3047,9.3945,9.4804,9.5664,9.6484,9.6484,9.6992,9.7695,9.7695,9.7695,9.7695,9.7695,9.7695,9.7695,9.7695,9.7695,9.7695,9.7695,9.7695,9.7695,9.7695,9.7695,9.7695,9.7695,9.7695,9.7695,9.7695,9.7695,9.7695,9.7695,9.7695,9.7695,9.7695,9.7695,9.7695,9.7695,9.7695,9.7695,9.7695,0.0,0.0,0.0,0.0,0.0,9.7695,9.7695,9.7695,9.7695,9.7695,9.7695,0.0,0.0,0.0,0.0,0.0,0.0,9.7695,9.8554,0.0,10.0312,10.1211,10.1992,10.289,10.289,10.289,10.289,10.289,10.289,10.289,10.289,10.289,10.289,10.289,10.289,10.289,10.289,10.289,10.289,10.289,10.3984,10.5508,8.6679,8.7578,8.8554,8.9101,8.9219,8.9375,8.9922,9.0508,9.1094,9.1679,9.2539,9.3203,9.3515,9.2461,9.1992,0.0,9.289,9.332,0.0,9.4219,9.4258,9.3984,9.3945,9.3554,9.2695,9.2656,9.2383,9.1758,0.0,0.0,0.0,9.1953,9.2539,9.3125,9.3984,9.4531,9.4844,9.5703,9.625,9.6562,9.7109,9.7461,9.7695,9.7695,9.7695,9.7695,9.7695,9.7695,9.7695,9.7695,9.7695,9.7695,9.7695,9.7695,9.7695,9.7695,9.7695,9.7695,9.7695,9.7695,9.7695,9.7695,9.7695,9.7695,9.7695,9.7695,9.7695,9.7695,9.7695,9.7695,9.7695,9.7695,9.7695,9.7695,9.7695,0.0,0.0,0.0,9.7695,9.7695,9.7695,9.7695,9.7695,9.7695,0.0,0.0,0.0,0.0,0.0,0.0,0.0,0.0,9.9101,0.0,10.0312,10.1797,10.2617,10.289,10.289,10.289,10.289,10.289,10.289,10.289,10.289,10.289,10.289,10.289,10.289,10.289,10.289,10.289,10.289,10.289,10.3984,10.5508,8.8437,8.9297,9.0117,9.0429,9.0742,9.1094,9.1406,9.2187,9.2969,9.3515,9.4062,9.4609,9.5156,9.4219,0.0,9.4336,9.4375,9.4609,9.5156,9.5195,9.5195,9.5195,9.5195,9.4961,9.4414,0.0,0.0,9.3594,9.3594,9.3594,9.3594,9.414,9.4375,9.4414,9.5312,9.5703,9.5742,9.6601,9.6953,9.6992,9.75,9.7695,9.7695,9.7695,9.7695,9.7695,9.7695,9.7695,9.7695,9.7695,9.7695,9.7695,9.7695,9.7695,9.7695,9.7695,9.7695,9.7695,9.7695,9.7695,9.7695,9.7695,9.7695,9.7695,9.7695,9.7695,9.7695,9.7695,9.7695,9.7695,9.7695,9.7695,9.7695,9.7695,9.7695,9.7695,9.7695,0.0,9.7695,0.0,0.0,0.0,0.0,9.7695,9.7695,0.0,0.0,0.0,0.0,0.0,0.0,9.7695,9.9375,0.0,10.0312,10.1992,10.289,10.289,10.289,10.289,10.289,10.289,10.289,10.289,10.289,10.289,10.289,10.289,10.289,10.289,10.289,10.289,10.289,10.289,10.3984,10.5508,9.0078,9.0195,9.0547,0.0,9.2187,0.0,9.3867,9.4687,9.5234,9.5273,9.5273,9.5312,9.5351,9.5351,9.5351,9.5351,0.0,0.0,0.0,9.5351,9.5351,9.5351,9.5351,9.5351,9.5273,9.5273,9.5273,9.5195,9.5195,9.5195,9.5195,9.5273,9.5273,9.5312,9.6211,9.6562,9.664,9.7383,9.7695,9.7695,9.7695,9.7695,9.7695,9.7695,9.7695,9.7695,9.7695,9.7695,9.7695,9.7695,9.7695,9.7695,9.7695,9.7695,9.7695,9.7695,9.7695,9.7695,9.7695,9.7695,9.7695,9.7695,9.7695,9.7695,9.7695,9.7695,9.7695,9.7695,9.7695,9.7695,9.7695,9.7695,9.7695,9.7695,9.7695,9.7695,9.7695,0.0,9.7695,0.0,0.0,0.0,0.0,9.7695,9.7695,0.0,0.0,0.0,0.0,0.0,9.7769,9.7773,9.9414,10.0312,10.039,10.2109,10.289,10.289,10.289,10.289,10.289,10.289,10.289,10.289,10.289,10.289,10.289,10.289,10.289,10.289,10.289,10.289,10.289,10.289,10.3984,10.5508,0.0,0.0,9.3047,9.3242,9.4023,9.4648,9.4844,9.5078,9.5429,9.6094,9.6172,9.6445,9.7031,9.7109,9.7109,9.7109,9.6562,9.6445,9.707,9.7109,9.7109,9.7109,9.7109,9.6836,9.6211,9.6172,9.5859,9.5195,9.5195,9.5195,9.5195,9.5898,9.6172,9.6211,9.7031,9.7422,9.7422,9.7617,9.7695,9.7695,9.7695,9.7695,9.7695,9.7695,9.7695,9.7695,9.7695,9.7695,9.7695,9.7695,9.7695,9.7695,9.7695,9.7695,9.7695,9.7695,9.7695,9.7695,9.7695,9.7695,9.7695,9.7695,9.7695,9.7695,9.7695,9.7695,9.7695,9.7695,9.7695,9.7695,9.7695,9.7695,9.7695,9.7695,9.7695,9.7695,9.7695,9.7695,0.0,0.0,9.7695,9.7695,9.7695,9.7695,9.7695,0.0,0.0,0.0,0.0,9.8141,9.849,9.8671,9.9531,10.039,10.1289,10.2383,10.289,10.289,10.289,10.289,10.289,10.289,10.289,10.289,10.289,10.289,10.289,10.289,10.289,10.289,10.289,10.289,10.289,10.289,10.3984,10.5508,9.3008,9.3828,9.4492,9.4492,9.5234,9.5781,9.5781,9.6094,9.6523,9.6992,9.7031,9.7226,9.7656,9.7695,9.7695,9.7695,9.7304,9.7226,9.7656,9.7695,9.7695,9.7695,9.7695,9.75,9.707,9.7031,9.6836,9.6328,9.6328,9.6328,9.6367,9.6836,9.7031,9.707,9.75,9.7695,9.7695,9.7695,9.7695,9.7695,9.7695,9.7695,9.7695,9.7695,9.7695,9.7695,9.7695,9.7695,9.7695,9.7695,9.7695,9.7695,9.7695,9.7695,9.7695,9.7695,9.7695,9.7695,9.7695,9.7695,9.7695,9.7695,9.7695,9.7812,9.8203,9.8281,9.8398,9.8828,9.8554,9.8281,9.8281,9.7969,9.7695,9.7695,9.7695,9.7695,9.7695,9.7695,0.0,9.7695,9.7695,9.7695,9.7695,9.7695,9.7695,9.7695,9.7695,0.0,9.8281,9.8517,9.8747,9.8973,9.9966,10.0898,10.1601,10.25,10.289,10.289,10.289,10.289,10.289,10.289,10.289,10.289,10.289,10.289,10.289,10.289,10.289,10.289,10.289,10.289,10.289,10.289,10.3984,10.5508,9.5039,9.5312,9.539,9.539,9.6094,9.6679,9.6679,9.7265,9.7695,9.7695,9.7695,9.7695,9.7695,9.7695,9.7695,9.7695,9.7695,9.7695,9.7695,9.7695,9.7695,9.7695,9.7695,9.7695,9.7695,9.7695,9.7695,9.7695,9.7695,9.7695,9.7695,9.7695,9.7695,9.7695,9.7695,9.7695,9.7695,9.7695,9.7695,9.7695,9.7695,9.7695,9.7695,9.7695,9.7695,9.7695,9.7695,9.7695,9.7695,9.7695,9.7695,9.7695,9.7695,9.7695,9.7695,9.7695,9.7773,9.7851,9.7734,9.7812,9.7929,9.8047,9.8086,9.8281,9.9023,9.9219,9.9414,10.0117,9.9726,9.9219,9.9219,9.8594,9.8086,9.8086,9.8086,9.8047,9.789,0.0,9.7851,9.7734,9.7695,9.7695,9.7695,9.7695,9.7734,9.789,9.789,9.8281,9.914,9.9124,9.9173,9.9402,10.0604,10.1391,10.1797,10.25,10.289,10.289,10.289,10.289,10.289,10.289,10.289,10.289,10.289,10.289,10.289,10.289,10.289,10.289,10.289,10.289,10.289,10.289,10.3906,10.5312,9.5156,9.5781,9.6289,9.6289,9.6953,9.75,9.75,9.7617,9.7695,9.7695,9.7695,9.7695,9.7695,9.7695,9.7695,9.7695,9.7695,9.7695,9.7695,9.7695,9.7695,9.7695,9.7695,9.7695,9.7695,9.7695,9.7695,9.7695,9.7695,9.7695,9.7695,9.7695,9.7695,9.7695,9.7695,9.7695,9.7695,9.7695,9.7695,9.7695,9.7695,9.7695,9.7695,9.7695,9.7695,9.7695,9.7695,9.7695,9.7695,9.7695,9.7695,9.7695,9.7695,9.7695,9.7695,9.7695,9.8203,9.8633,9.789,9.8242,9.8984,9.9726,9.9883,9.9922,10.0117,10.0117,10.0117,10.0312,10.0195,10.0117,10.0117,10.0,9.9883,9.9883,9.9883,9.9648,9.8906,0.0,9.8515,9.7773,9.7695,9.7695,9.7695,9.7695,9.8008,9.875,9.8789,9.9179,10.0117,10.0599,10.0904,10.1173,10.1191,10.1678,10.2695,10.2812,10.289,10.289,10.289,10.289,10.289,10.289,10.289,10.289,10.289,10.289,10.289,10.289,10.289,10.289,10.289,10.289,10.289,10.289,10.3515,10.4492,9.6445,9.6875,9.7148,9.7148,9.7461,9.7695,9.7695,9.7695,9.7695,9.7695,9.7695,9.7695,9.7695,9.7695,9.7695,9.7695,9.7695,9.7695,9.7695,9.7695,9.7695,9.7695,9.7695,9.7695,9.7695,9.7695,9.7695,9.7695,9.7695,9.7695,9.7695,9.7695,9.7695,9.7695,9.7695,9.7695,9.7695,9.7695,9.7695,9.7695,9.7695,9.7695,9.7695,9.7695,9.7695,9.7695,9.7695,9.7695,9.7695,9.7695,9.7695,9.7695,9.7695,9.8008,9.8398,9.8398,9.8672,9.9023,9.9062,9.9375,9.9804,10.0195,10.0312,10.039,10.0898,10.1015,10.1094,10.1601,10.1289,10.1015,10.1015,10.0586,10.0312,10.0312,10.0312,0.0,0.0,9.9687,9.9531,9.914,9.9101,9.9101,9.9101,9.9101,9.9258,9.9687,9.9687,10.0117,10.1015,10.1306,10.1696,10.229,10.2177,10.2398,10.289,10.289,10.289,10.289,10.289,10.289,10.289,10.289,10.289,10.289,10.289,10.289,10.289,10.289,10.289,10.289,10.289,10.289,10.289,10.289,10.3515,10.4297,9.7578,9.7695,9.7695,9.7695,9.7695,9.7695,9.7695,9.7695,9.7695,9.7695,9.7695,9.7695,9.7695,9.7695,9.7695,9.7695,9.7695,9.7695,9.7695,9.7695,9.7695,9.7695,9.7695,9.7695,9.7695,9.7695,9.7695,9.7695,9.7695,9.7695,9.7695,9.7695,9.7695,9.7695,9.7695,9.7695,9.7695,9.7695,9.7695,9.7695,9.7695,9.7695,9.7695,9.7695,9.7695,9.7695,9.7695,9.7695,9.7695,9.7695,9.7695,9.7734,9.7929,9.8476,9.9023,9.9258,9.9453,9.9765,10.039,10.0586,10.0703,10.0898,10.0898,10.1094,10.1719,10.1914,10.2109,10.2812,10.2383,10.1914,10.1914,10.1406,10.0898,10.0898,0.0,0.0,0.0,10.0586,10.0508,10.0312,10.0312,10.0312,10.0312,10.0312,10.039,10.0586,10.0586,10.1015,10.1914,10.1914,10.2217,10.2901,10.2899,10.289,10.289,10.289,10.289,10.289,10.289,10.289,10.289,10.289,10.289,10.289,10.289,10.289,10.289,10.289,10.289,10.289,10.289,10.289,10.289,10.289,10.3281,10.3906,9.7695,9.7695,9.7695,9.7695,9.7695,9.7695,9.7695,9.7695,9.7695,9.7695,9.7695,9.7695,9.7695,9.7695,9.7695,9.7695,9.7695,9.7695,9.7695,9.7695,9.7695,9.7695,9.7695,9.7695,9.7695,9.7695,9.7695,9.7695,9.7695,9.7695,9.7695,9.7695,9.7695,9.7695,9.7695,9.7695,9.7695,9.7695,9.7695,9.7695,9.7695,9.7695,9.7695,9.7695,9.7695,9.7695,9.7695,9.7695,9.7695,9.7695,9.7695,9.7851,9.8633,9.8945,9.914,9.9961,10.0781,10.1406,10.1484,10.1484,10.1719,10.25,10.2695,10.2695,10.2812,10.2812,10.2812,10.289,10.2812,10.2812,10.2812,10.2812,10.2695,10.2695,0.0,0.0,10.1601,10.1484,10.1211,10.039,10.0312,10.0312,10.0312,10.0312,10.0586,10.1406,10.1484,10.1914,10.2812,10.2812,10.2811,10.2882,10.2889,10.289,10.289,10.289,10.289,10.289,10.289,10.289,10.289,10.289,10.289,10.289,10.289,10.289,10.289,10.289,10.289,10.289,10.289,10.289,10.289,10.289,10.289,10.3086,9.7695,9.7695,9.7695,9.7695,9.7695,9.7695,9.7695,9.7695,9.7695,9.7695,9.7695,9.7695,9.7695,9.7695,9.7695,9.7695,9.7695,9.7695,9.7695,9.7695,9.7695,9.7695,9.7695,9.7695,9.7695,9.7695,9.7695,9.7695,9.7695,9.7695,9.7695,9.7695,9.7695,9.7695,9.7695,9.7695,9.7695,9.7695,9.7695,9.7695,9.7695,9.7695,9.7695,9.7695,9.7695,9.7695,9.7695,9.7695,9.7773,9.832,9.8515,9.8672,9.9531,10.0195,10.0781,10.1719,10.2109,10.2383,10.2383,10.2383,10.25,10.2812,10.289,10.289,10.289,10.289,10.289,10.289,10.289,10.289,10.289,10.289,10.289,10.289,0.0,10.2812,10.25,10.2383,10.2304,10.1992,10.1914,10.1914,10.1914,10.1914,10.1992,10.2383,10.2383,10.2617,10.289,10.289,10.289,10.289,10.289,10.289,10.289,10.289,10.289,10.289,10.289,10.289,10.289,10.289,10.289,10.289,10.289,10.289,10.289,10.289,10.289,10.289,10.289,10.289,10.289,10.289,10.289,10.2884,9.7695,9.7695,9.7695,9.7695,9.7695,9.7695,9.7695,9.7695,9.7695,9.7695,9.7695,9.7695,9.7695,9.7695,9.7695,9.7695,9.7695,9.7695,9.7695,9.7695,9.7695,9.7695,9.7695,9.7695,9.7695,9.7695,9.7695,9.7695,9.7695,9.7695,9.7695,9.7695,9.7695,9.7695,9.7695,9.7695,9.7695,9.7695,9.7695,9.7695,9.7695,9.7695,9.7695,9.7695,9.7695,9.7695,9.7695,9.789,9.8203,9.8789,9.9179,9.957,10.039,10.1289,10.2109,10.2695,10.289,10.289,10.289,10.289,10.289,10.289,10.289,10.289,10.289,10.289,10.289,10.289,10.289,10.289,10.289,10.289,10.289,10.289,10.289,10.289,10.289,10.289,10.289,10.289,10.289,10.289,10.289,10.289,10.289,10.289,10.289,10.289,10.289,10.289,10.289,10.289,10.289,10.289,10.289,10.289,10.289,10.289,10.289,10.289,10.289,10.289,10.289,10.289,10.289,10.289,10.289,10.289,10.289,10.289,10.289,10.289,10.289,10.289,10.289,10.2914,9.7695,9.7695,9.7695,9.7695,9.7695,9.7695,9.7695,9.7695,9.7695,9.7695,9.7695,9.7695,9.7695,9.7695,9.7695,9.7695,9.7695,9.7695,9.7695,9.7695,9.7695,9.7695,9.7695,9.7695,9.7695,9.7695,9.7695,9.7695,9.7695,9.7695,9.7695,9.7695,9.7695,9.7695,9.7695,9.7695,9.7695,9.7695,9.7695,9.7695,9.7695,9.7695,9.7695,9.7695,9.7695,9.7695,9.7734,9.8281,9.9023,9.9023,9.9609,10.0508,10.1289,10.2187,10.289,10.289,10.289,10.289,10.289,10.289,10.289,10.289,10.289,10.289,10.289,10.289,10.289,10.289,10.289,10.289,10.289,10.289,10.289,10.289,10.289,10.289,10.289,10.289,10.289,10.289,10.289,10.289,10.289,10.289,10.289,10.289,10.289,10.289,10.289,10.289,10.289,10.289,10.289,10.289,10.289,10.289,10.289,10.289,10.289,10.289,10.289,10.289,10.289,10.289,10.289,10.289,10.289,10.289,10.289,10.289,10.289,10.289,10.289,10.289,10.289,10.2914,9.7695,9.7695,9.7695,9.7695,9.7695,9.7695,9.7695,9.7695,9.7695,9.7695,9.7695,9.7695,9.7695,9.7695,9.7695,9.7695,9.7695,9.7695,9.7695,9.7695,9.7695,9.7695,9.7695,9.7695,9.7695,9.7695,9.7695,9.7695,9.7695,9.7695,9.7695,9.7695,9.7695,9.7695,9.7695,9.7695,9.7695,9.7695,9.7695,9.7695,9.7695,9.7695,9.7773,9.8398,9.8594,9.8672,9.9297,9.9687,10.0,10.0586,10.1015,10.1406,10.2187,10.2695,10.289,10.289,10.289,10.289,10.289,10.289,10.289,10.289,10.289,10.289,10.289,10.289,10.289,10.289,10.289,10.289,10.289,10.289,10.289,10.289,10.289,10.289,10.289,10.289,10.289,10.289,10.289,10.289,10.289,10.289,10.289,10.289,10.289,10.289,10.289,10.289,10.289,10.289,10.289,10.289,10.289,10.289,10.289,10.289,10.289,10.289,10.289,10.289,10.289,10.289,10.289,10.289,10.289,10.289,10.289,10.289,10.289,10.289,10.289,10.289,10.2894,10.2787,9.7695,9.7695,9.7695,9.7695,9.7695,9.7695,9.7695,9.7695,9.7695,9.7695,9.7695,9.7695,9.7695,9.7695,9.7695,9.7695,9.7695,9.7695,9.7695,9.7695,9.7695,9.7695,9.7695,9.7695,9.7695,9.7695,9.7695,9.7695,9.7695,9.7695,9.7695,9.7695,9.7695,9.7695,9.7695,9.7695,9.7695,9.7695,9.789,9.8203,9.8203,9.8437,9.8789,9.9297,9.9492,9.957,10.0117,10.0508,10.0898,10.1406,10.1797,10.2187,10.2695,10.289,10.289,10.289,10.289,10.289,10.289,10.289,10.289,10.289,10.289,10.289,10.289,10.289,10.289,10.289,10.289,10.289,10.289,10.289,10.289,10.289,10.289,10.289,10.289,10.289,10.289,10.289,10.289,10.289,10.289,10.289,10.289,10.289,10.289,10.289,10.289,10.289,10.289,10.289,10.289,10.289,10.289,10.289,10.289,10.289,10.289,10.289,10.289,10.289,10.289,10.289,10.289,10.289,10.289,10.289,10.289,10.2889,10.28,10.2679,10.2709,10.2597,10.2608,10.2518,9.7695,9.7695,9.7695,9.7695,9.7695,9.7695,9.7695,9.7695,9.7695,9.7695,9.7695,9.7695,9.7695,9.7695,9.7695,9.7695,9.7695,9.7695,9.7695,9.7695,9.7695,9.7695,9.7695,9.7695,9.7695,9.7695,9.7695,9.7695,9.7695,9.7695,9.7695,9.7695,9.7695,9.7695,9.7773,9.7812,9.7812,9.789,9.8398,9.9101,9.9101,9.9609,10.0312,10.039,10.039,10.039,10.0508,10.1015,10.1719,10.1719,10.2187,10.289,10.289,10.289,10.289,10.289,10.289,10.289,10.289,10.289,10.289,10.289,10.289,10.289,10.289,10.289,10.289,10.289,10.289,10.289,10.289,10.289,10.289,10.289,10.289,10.289,10.289,10.289,10.289,10.289,10.289,10.289,10.289,10.289,10.289,10.289,10.289,10.289,10.289,10.289,10.289,10.289,10.289,10.289,10.289,10.289,10.289,10.289,10.289,10.289,10.289,10.289,10.289,10.289,10.289,10.289,10.289,10.289,10.2888,10.2816,10.26,10.252,10.2404,10.219,10.2127,10.2117,9.7695,9.7695,9.7695,9.7695,9.7695,9.7695,9.7695,9.7695,9.7695,9.7695,9.7695,9.7695,9.7695,9.7695,9.7695,9.7695,9.7695,9.7695,9.7695,9.7695,9.7695,9.7695,9.7695,9.7695,9.7695,9.7695,9.7695,9.7695,9.7695,9.7695,9.7695,9.7695,9.7695,9.7734,9.8398,9.8711,9.875,9.9453,9.9844,10.0,10.0,10.0117,10.039,10.1094,10.1289,10.1406,10.2109,10.25,10.2617,10.2617,10.2695,10.289,10.289,10.289,10.289,10.289,10.289,10.289,10.289,10.289,10.289,10.289,10.289,10.289,10.289,10.289,10.289,10.289,10.289,10.289,10.289,10.289,10.289,10.289,10.289,10.289,10.289,10.289,10.289,10.289,10.289,10.289,10.289,10.289,10.289,10.289,10.289,10.289,10.289,10.289,10.289,10.289,10.289,10.289,10.289,10.289,10.289,10.289,10.289,10.289,10.289,10.289,10.289,10.289,10.289,10.289,10.289,10.289,10.2776,10.2617,10.248,10.2405,10.2174,10.209,10.2083,10.2087,9.7695,9.7695,9.7695,9.7695,9.7695,9.7695,9.7695,9.7695,9.7695,9.7695,9.7695,9.7695,9.7695,9.7695,9.7851,9.8281,9.832,9.8515,9.8906,9.8945,9.8945,9.8945,9.8945,9.8945,9.8945,9.8945,9.8515,9.7695,9.8125,9.832,9.832,9.875,9.8945,9.8945,9.9414,9.9609,9.9648,10.0117,10.0508,10.0898,10.0898,10.1211,10.1601,10.1992,10.2187,10.2304,10.2695,10.289,10.289,10.289,10.289,10.289,10.289,10.289,10.289,10.289,10.289,10.289,10.289,10.289,10.289,10.289,10.289,10.289,10.289,10.289,10.289,10.289,10.289,10.289,10.289,10.289,10.289,10.289,10.289,10.289,10.289,10.289,10.289,10.289,10.289,10.289,10.289,10.289,10.289,10.289,10.289,10.289,10.289,10.289,10.289,10.289,10.289,10.289,10.289,10.289,10.289,10.289,10.289,10.289,10.289,10.289,10.289,10.289,10.289,10.289,10.289,10.289,10.2679,10.252,10.2405,10.2097,10.1904,10.1789,10.1712,10.1712,9.7695,9.7695,9.7695,9.7695,9.7695,9.7695,9.7695,9.7695,9.7695,9.7695,9.7812,9.7929,9.7929,9.8047,9.8437,9.914,9.9219,9.9531,10.0312,10.0312,10.0312,10.0312,10.0312,10.0312,10.0312,10.0312,9.9609,9.8125,9.8867,9.9219,9.9258,9.9961,10.0312,10.0312,10.0508,10.0508,10.0508,10.0703,10.1211,10.1797,10.1797,10.2304,10.289,10.289,10.289,10.289,10.289,10.289,10.289,10.289,10.289,10.289,10.289,10.289,10.289,10.289,10.289,10.289,10.289,10.289,10.289,10.289,10.289,10.289,10.289,10.289,10.289,10.289,10.289,10.289,10.289,10.289,10.289,10.289,10.289,10.289,10.289,10.289,10.289,10.289,10.289,10.289,10.289,10.289,10.289,10.289,10.289,10.289,10.289,10.289,10.289,10.289,10.289,10.289,10.289,10.289,10.289,10.289,10.289,10.289,10.289,10.289,10.289,10.289,10.289,10.2884,10.2803,10.2803,10.2577,10.2328,10.2097,10.1904,10.1597,10.1404,10.1289,10.1289,9.7695,9.7695,9.7695,9.7695,9.7695,9.7695,9.7695,9.7695,9.7695,9.7695,9.8359,9.8828,9.8828,9.9492,10.0,10.0117,10.0117,10.0195,10.0312,10.0312,10.0312,10.0312,10.0312,10.0312,10.0312,10.0312,10.0195,9.9961,10.0117,10.0117,10.0117,10.0195,10.0312,10.0312,10.1094,10.1406,10.1484,10.2187,10.2617,10.2695,10.2695,10.2812,10.289,10.289,10.289,10.289,10.289,10.289,10.289,10.289,10.289,10.289,10.289,10.289,10.289,10.289,10.289,10.289,10.289,10.289,10.289,10.289,10.289,10.289,10.289,10.289,10.289,10.289,10.289,10.289,10.289,10.289,10.289,10.289,10.289,10.289,10.289,10.289,10.289,10.289,10.289,10.289,10.289,10.289,10.289,10.289,10.289,10.289,10.289,10.289,10.289,10.289,10.289,10.289,10.289,10.289,10.289,10.289,10.289,10.289,10.289,10.289,10.289,10.289,10.289,10.2803,10.2576,10.2576,10.2283,10.1789,10.1789,10.1597,10.1289,10.1289,10.1289,10.1289,9.7695,9.7695,9.7695,9.7695,9.7695,9.7851,9.8359,9.8437,9.8594,9.9101,9.9492,9.9726,9.9726,10.0117,10.0508,10.1015,10.1015,10.1211,10.1719,10.1797,10.1797,10.1797,10.1797,10.1797,10.1797,10.1797,10.1797,10.1797,10.1289,10.1015,10.1015,10.1484,10.1797,10.1797,10.2187,10.2304,10.2383,10.2695,10.289,10.289,10.289,10.289,10.289,10.289,10.289,10.289,10.289,10.289,10.289,10.289,10.289,10.289,10.289,10.289,10.289,10.289,10.289,10.289,10.289,10.289,10.289,10.289,10.289,10.289,10.289,10.289,10.289,10.289,10.289,10.289,10.289,10.289,10.289,10.289,10.289,10.289,10.289,10.289,10.289,10.289,10.289,10.289,10.289,10.289,10.289,10.289,10.289,10.289,10.289,10.289,10.289,10.289,10.289,10.289,10.289,10.289,10.289,10.289,10.289,10.289,10.289,10.289,10.289,10.2889,10.2679,10.261,10.252,10.2328,10.1981,10.1712,10.1712,10.1481,10.1289,10.1289,10.1289,10.1289]},{"header":{"parameterUnit":"m.s-1","parameterCategory":1,"la1":30.6,"la2":28.766,"lo1":-90.7593,"lo2":-88.6598,"dy":0.0162,"dx":0.0183,"nx":116,"ny":114,"refTime":"2023-10-11T12:00:00:Z","depth":0,"parameterNumber":3,"parameterNumberName":"V-component_of_WINDS"},"data":[0.0,0.0,0.0,0.0,0.0,0.0,0.0,0.0,0.0,0.0,0.0,0.0,0.0,0.0,0.0,0.0,0.0,0.0,0.0,0.0,0.0,0.0,0.0,0.0,0.0,0.0,0.0,0.0,0.0,0.0,0.0,0.0,0.0,0.0,0.0,0.0,0.0,0.0,0.0,0.0,0.0,0.0,0.0,0.0,0.0,0.0,0.0,0.0,0.0,0.0,0.0,0.0,0.0,0.0,0.0,0.0,0.0,0.0,0.0,0.0,0.0,0.0,0.0,0.0,0.0,0.0,0.0,0.0,0.0,0.0,0.0,0.0,0.0,0.0,0.0,0.0,0.0,0.0,0.0,0.0,0.0,0.0,0.0,0.0,0.0,0.0,0.0,0.0,0.0,0.0,0.0,0.0,0.0,0.0,0.0,0.0,0.0,0.0,0.0,0.0,0.0,0.0,0.0,0.0,0.0,0.0,0.0,0.0,0.0,0.0,0.0,0.0,0.0,0.0,0.0,0.0,0.0,0.0,0.0,0.0,0.0,0.0,0.0,0.0,0.0,0.0,0.0,0.0,0.0,0.0,0.0,0.0,0.0,0.0,0.0,0.0,0.0,0.0,0.0,0.0,0.0,0.0,0.0,0.0,0.0,0.0,0.0,0.0,0.0,0.0,0.0,0.0,0.0,0.0,0.0,0.0,0.0,0.0,0.0,0.0,0.0,0.0,0.0,0.0,0.0,0.0,0.0,0.0,0.0,0.0,0.0,0.0,0.0,0.0,0.0,0.0,0.0,0.0,0.0,0.0,0.0,0.0,0.0,0.0,0.0,0.0,0.0,0.0,0.0,0.0,0.0,0.0,0.0,0.0,0.0,0.0,0.0,0.0,0.0,0.0,0.0,0.0,0.0,0.0,0.0,0.0,0.0,0.0,0.0,0.0,0.0,0.0,0.0,0.0,0.0,0.0,0.0,0.0,0.0,0.0,0.0,0.0,0.0,0.0,0.0,0.0,0.0,0.0,0.0,0.0,0.0,0.0,0.0,0.0,0.0,0.0,0.0,0.0,0.0,0.0,0.0,0.0,0.0,0.0,0.0,0.0,0.0,0.0,0.0,0.0,0.0,0.0,0.0,0.0,0.0,0.0,0.0,0.0,0.0,0.0,0.0,0.0,0.0,0.0,0.0,0.0,0.0,0.0,0.0,0.0,0.0,0.0,0.0,0.0,0.0,0.0,0.0,0.0,0.0,0.0,0.0,0.0,0.0,0.0,0.0,0.0,0.0,0.0,0.0,0.0,0.0,0.0,0.0,0.0,0.0,0.0,0.0,0.0,0.0,0.0,0.0,0.0,0.0,0.0,0.0,0.0,0.0,0.0,0.0,0.0,0.0,0.0,0.0,0.0,0.0,0.0,0.0,0.0,0.0,0.0,0.0,0.0,0.0,0.0,0.0,0.0,0.0,0.0,0.0,0.0,0.0,0.0,0.0,0.0,0.0,0.0,0.0,0.0,0.0,0.0,0.0,0.0,0.0,0.0,0.0,0.0,0.0,0.0,0.0,0.0,0.0,0.0,0.0,0.0,0.0,0.0,0.0,0.0,0.0,0.0,0.0,0.0,0.0,0.0,0.0,0.0,0.0,0.0,0.0,0.0,0.0,0.0,0.0,0.0,0.0,0.0,0.0,0.0,0.0,0.0,0.0,0.0,0.0,0.0,0.0,0.0,0.0,0.0,0.0,0.0,0.0,0.0,0.0,0.0,0.0,0.0,0.0,0.0,0.0,0.0,0.0,0.0,0.0,0.0,0.0,0.0,0.0,0.0,0.0,0.0,0.0,0.0,0.0,0.0,0.0,0.0,0.0,0.0,0.0,0.0,0.0,0.0,0.0,0.0,0.0,0.0,0.0,0.0,0.0,0.0,0.0,0.0,0.0,0.0,0.0,0.0,0.0,0.0,0.0,0.0,0.0,0.0,0.0,0.0,0.0,0.0,0.0,0.0,0.0,0.0,0.0,0.0,0.0,0.0,0.0,0.0,0.0,0.0,0.0,0.0,0.0,0.0,0.0,0.0,0.0,0.0,0.0,0.0,0.0,0.0,0.0,0.0,0.0,0.0,0.0,0.0,0.0,0.0,0.0,0.0,0.0,0.0,0.0,0.0,0.0,0.0,0.0,0.0,0.0,0.0,0.0,0.0,0.0,0.0,0.0,0.0,0.0,0.0,0.0,0.0,0.0,0.0,0.0,0.0,0.0,0.0,0.0,0.0,0.0,0.0,0.0,0.0,0.0,0.0,0.0,0.0,0.0,0.0,0.0,0.0,0.0,0.0,0.0,0.0,0.0,0.0,0.0,0.0,0.0,0.0,0.0,0.0,0.0,0.0,0.0,0.0,0.0,0.0,0.0,0.0,0.0,0.0,0.0,0.0,0.0,0.0,0.0,0.0,0.0,0.0,0.0,0.0,0.0,0.0,0.0,0.0,0.0,0.0,0.0,0.0,0.0,0.0,0.0,0.0,0.0,0.0,0.0,0.0,0.0,0.0,0.0,0.0,0.0,0.0,0.0,0.0,0.0,0.0,0.0,0.0,0.0,0.0,0.0,0.0,0.0,0.0,0.0,0.0,0.0,0.0,0.0,0.0,0.0,0.0,0.0,0.0,0.0,0.0,0.0,0.0,0.0,0.0,0.0,0.0,0.0,0.0,0.0,0.0,0.0,0.0,0.0,0.0,0.0,0.0,0.0,0.0,0.0,0.0,0.0,0.0,0.0,0.0,0.0,0.0,0.0,0.0,0.0,0.0,0.0,0.0,0.0,0.0,0.0,0.0,0.0,0.0,0.0,0.0,0.0,0.0,0.0,0.0,0.0,0.0,0.0,0.0,0.0,0.0,0.0,0.0,0.0,0.0,0.0,0.0,0.0,0.0,0.0,0.0,0.0,0.0,0.0,0.0,0.0,0.0,0.0,0.0,0.0,0.0,0.0,0.0,0.0,0.0,0.0,0.0,0.0,0.0,0.0,0.0,0.0,0.0,0.0,0.0,0.0,0.0,0.0,0.0,0.0,0.0,0.0,0.0,0.0,0.0,0.0,0.0,0.0,0.0,0.0,0.0,0.0,0.0,0.0,0.0,0.0,0.0,0.0,0.0,0.0,0.0,0.0,0.0,0.0,0.0,0.0,0.0,0.0,0.0,0.0,0.0,0.0,0.0,0.0,0.0,0.0,0.0,0.0,0.0,0.0,0.0,0.0,0.0,0.0,0.0,0.0,0.0,0.0,0.0,0.0,0.0,0.0,0.0,0.0,0.0,0.0,0.0,0.0,0.0,0.0,0.0,0.0,0.0,0.0,0.0,0.0,0.0,0.0,0.0,0.0,0.0,0.0,0.0,0.0,0.0,0.0,0.0,0.0,0.0,0.0,0.0,0.0,0.0,0.0,0.0,0.0,0.0,0.0,0.0,0.0,0.0,0.0,0.0,0.0,0.0,0.0,0.0,0.0,0.0,0.0,0.0,0.0,0.0,0.0,0.0,0.0,0.0,0.0,0.0,0.0,0.0,0.0,0.0,0.0,0.0,0.0,0.0,0.0,0.0,0.0,0.0,0.0,0.0,0.0,0.0,0.0,0.0,0.0,0.0,0.0,0.0,0.0,0.0,0.0,0.0,0.0,0.0,0.0,0.0,0.0,0.0,0.0,0.0,0.0,0.0,0.0,0.0,0.0,0.0,0.0,0.0,0.0,0.0,0.0,0.0,0.0,0.0,0.0,0.0,0.0,0.0,0.0,0.0,0.0,0.0,0.0,0.0,0.0,0.0,0.0,0.0,0.0,0.0,0.0,0.0,0.0,0.0,0.0,0.0,0.0,0.0,0.0,0.0,0.0,0.0,0.0,0.0,0.0,0.0,0.0,0.0,0.0,0.0,0.0,0.0,0.0,0.0,0.0,0.0,0.0,0.0,0.0,0.0,0.0,0.0,0.0,0.0,0.0,0.0,0.0,0.0,0.0,0.0,0.0,0.0,0.0,0.0,0.0,0.0,0.0,0.0,0.0,0.0,0.0,0.0,0.0,0.0,0.0,0.0,0.0,0.0,0.0,0.0,0.0,0.0,0.0,0.0,0.0,0.0,0.0,0.0,0.0,0.0,0.0,0.0,0.0,0.0,0.0,0.0,0.0,0.0,0.0,0.0,0.0,0.0,0.0,0.0,0.0,0.0,0.0,0.0,0.0,0.0,0.0,0.0,0.0,0.0,0.0,0.0,0.0,0.0,0.0,0.0,0.0,0.0,0.0,0.0,0.0,0.0,0.0,0.0,0.0,0.0,0.0,0.0,0.0,0.0,0.0,0.0,0.0,0.0,0.0,0.0,0.0,0.0,0.0,0.0,0.0,0.0,0.0,0.0,0.0,0.0,0.0,0.0,0.0,0.0,0.0,0.0,0.0,0.0,0.0,0.0,0.0,0.0,0.0,0.0,0.0,0.0,0.0,0.0,0.0,0.0,0.0,0.0,0.0,0.0,0.0,0.0,0.0,0.0,0.0,0.0,0.0,0.0,0.0,0.0,0.0,0.0,0.0,0.0,0.0,0.0,0.0,0.0,0.0,0.0,0.0,0.0,0.0,0.0,0.0,0.0,0.0,0.0,0.0,0.0,0.0,0.0,0.0,0.0,0.0,0.0,0.0,0.0,0.0,0.0,0.0,0.0,0.0,0.0,0.0,0.0,0.0,0.0,0.0,0.0,0.0,0.0,0.0,0.0,0.0,0.0,0.0,0.0,0.0,0.0,0.0,0.0,0.0,0.0,0.0,0.0,0.0,0.0,0.0,0.0,0.0,0.0,0.0,0.0,0.0,0.0,0.0,0.0,0.0,0.0,0.0,0.0,0.0,0.0,0.0,0.0,0.0,0.0,0.0,0.0,0.0,0.0,0.0,0.0,0.0,0.0,0.0,0.0,0.0,0.0,0.0,0.0,0.0,0.0,0.0,0.0,0.0,0.0,0.0,0.0,0.0,0.0,0.0,0.0,0.0,0.0,0.0,0.0,0.0,0.0,0.0,0.0,0.0,0.0,0.0,0.0,0.0,0.0,0.0,0.0,0.0,0.0,0.0,0.0,0.0,0.0,0.0,0.0,0.0,0.0,0.0,0.0,0.0,0.0,0.0,0.0,0.0,0.0,0.0,0.0,0.0,0.0,0.0,0.0,0.0,0.0,0.0,0.0,0.0,0.0,0.0,0.0,0.0,0.0,0.0,0.0,0.0,0.0,0.0,0.0,0.0,0.0,0.0,0.0,0.0,0.0,0.0,0.0,0.0,0.0,0.0,0.0,0.0,0.0,0.0,0.0,0.0,0.0,0.0,0.0,0.0,0.0,0.0,0.0,0.0,0.0,0.0,0.0,0.0,0.0,0.0,0.0,0.0,0.0,0.0,0.0,0.0,0.0,0.0,0.0,0.0,0.0,0.0,0.0,0.0,0.0,0.0,0.0,0.0,0.0,0.0,0.0,0.0,0.0,0.0,0.0,0.0,0.0,0.0,0.0,0.0,0.0,0.0,0.0,0.0,0.0,0.0,0.0,0.0,0.0,0.0,0.0,0.0,0.0,0.0,0.0,0.0,0.0,0.0,0.0,0.0,0.0,0.0,0.0,0.0,0.0,0.0,0.0,0.0,0.0,0.0,0.0,0.0,0.0,0.0,0.0,0.0,0.0,0.0,0.0,0.0,0.0,0.0,0.0,0.0,0.0,0.0,0.0,0.0,0.0,0.0,0.0,0.0,0.0,0.0,0.0,0.0,0.0,0.0,0.0,0.0,0.0,0.0,0.0,0.0,0.0,0.0,0.0,0.0,0.0,0.0,0.0,0.0,0.0,0.0,0.0,0.0,0.0,0.0,0.0,0.0,0.0,0.0,0.0,0.0,0.0,0.0,0.0,0.0,0.0,0.0,0.0,0.0,0.0,0.0,0.0,0.0,0.0,0.0,0.0,0.0,0.0,0.0,0.0,0.0,0.0,0.0,0.0,0.0,0.0,0.0,0.0,0.0,0.0,0.0,0.0,0.0,0.0,0.0,0.0,0.0,0.0,0.0,0.0,0.0,0.0,0.0,0.0,0.0,0.0,0.0,0.0,0.0,0.0,0.0,0.0,-1.4688,0.0,0.0,0.0,0.0,0.0,0.0,0.0,0.0,0.0,0.0,0.0,0.0,0.0,0.0,0.0,0.0,0.0,0.0,0.0,0.0,0.0,0.0,0.0,0.0,0.0,0.0,0.0,0.0,0.0,0.0,0.0,0.0,0.0,0.0,0.0,0.0,0.0,0.0,0.0,0.0,0.0,0.0,0.0,0.0,0.0,0.0,0.0,0.0,0.0,0.0,0.0,0.0,0.0,0.0,0.0,0.0,0.0,0.0,0.0,0.0,0.0,0.0,0.0,0.0,0.0,0.0,0.0,0.0,0.0,0.0,0.0,0.0,0.0,0.0,0.0,0.0,0.0,0.0,0.0,0.0,0.0,0.0,0.0,0.0,0.0,0.0,0.0,0.0,0.0,0.0,0.0,0.0,0.0,0.0,0.0,0.0,0.0,0.0,0.0,0.0,0.0,0.0,0.0,0.0,0.0,0.0,0.0,0.0,0.0,0.0,0.0,0.0,0.0,0.0,0.0,0.0,-1.3511,0.0,0.0,0.0,0.0,0.0,0.0,0.0,0.0,0.0,0.0,0.0,0.0,0.0,0.0,0.0,0.0,0.0,0.0,0.0,0.0,0.0,0.0,0.0,0.0,0.0,0.0,0.0,0.0,0.0,0.0,0.0,0.0,0.0,0.0,0.0,0.0,0.0,0.0,0.0,0.0,0.0,0.0,0.0,0.0,0.0,0.0,0.0,0.0,0.0,0.0,0.0,0.0,0.0,0.0,0.0,0.0,0.0,0.0,0.0,0.0,0.0,0.0,0.0,0.0,0.0,0.0,0.0,0.0,0.0,0.0,0.0,0.0,0.0,0.0,0.0,0.0,0.0,0.0,0.0,0.0,0.0,0.0,0.0,0.0,0.0,0.0,0.0,0.0,0.0,0.0,0.0,0.0,0.0,0.0,0.0,0.0,0.0,0.0,0.0,0.0,0.0,0.0,0.0,0.0,0.0,0.0,0.0,0.0,-1.1653,-1.105,-1.1165,-1.1165,-1.1192,-1.124,-1.1118,-1.1104,-1.1165,0.0,0.0,0.0,0.0,0.0,0.0,0.0,0.0,0.0,0.0,0.0,0.0,0.0,0.0,0.0,0.0,0.0,0.0,0.0,0.0,0.0,0.0,0.0,0.0,0.0,0.0,0.0,0.0,0.0,0.0,0.0,0.0,0.0,0.0,0.0,0.0,0.0,0.0,0.0,0.0,0.0,0.0,0.0,0.0,0.0,0.0,0.0,0.0,0.0,0.0,0.0,0.0,0.0,0.0,0.0,0.0,0.0,0.0,0.0,0.0,0.0,0.0,0.0,0.0,0.0,0.0,0.0,0.0,0.0,0.0,0.0,0.0,0.0,0.0,0.0,0.0,0.0,0.0,0.0,0.0,0.0,0.0,0.0,0.0,0.0,0.0,0.0,-2.0107,-1.8577,0.0,0.0,0.0,0.0,0.0,0.0,0.0,0.0,0.0,0.0,0.0,0.0,0.0,-1.1646,-1.1776,-1.1646,-1.1523,-1.1544,-1.1269,-1.1145,-1.1165,-1.1165,-1.1307,-1.1558,-1.1538,0.0,-1.1165,-1.1165,0.0,0.0,0.0,0.0,0.0,0.0,0.0,0.0,0.0,0.0,0.0,0.0,0.0,0.0,0.0,0.0,0.0,0.0,0.0,0.0,0.0,0.0,0.0,0.0,0.0,0.0,0.0,0.0,0.0,0.0,0.0,0.0,0.0,0.0,0.0,0.0,0.0,0.0,0.0,0.0,0.0,0.0,0.0,0.0,0.0,0.0,0.0,0.0,0.0,0.0,0.0,0.0,0.0,0.0,0.0,0.0,0.0,0.0,0.0,0.0,0.0,0.0,0.0,0.0,0.0,0.0,0.0,0.0,0.0,0.0,0.0,0.0,0.0,0.0,0.0,0.0,0.0,0.0,0.0,0.0,0.0,0.0,0.0,0.0,0.0,-1.9939,-1.9499,-1.9764,-1.8824,-1.8244,0.0,0.0,0.0,0.0,0.0,0.0,0.0,0.0,0.0,-1.107,-1.107,-1.1097,-1.1165,-1.1165,-1.1246,-1.1416,-1.1416,-1.1504,-1.1667,-1.1667,-1.1742,-1.187,-1.187,-1.1789,-1.1667,-1.1667,-1.1667,-1.1681,0.0,0.0,0.0,0.0,-1.265,-1.3378,0.0,0.0,0.0,0.0,0.0,0.0,0.0,0.0,0.0,0.0,0.0,0.0,0.0,0.0,0.0,0.0,0.0,0.0,0.0,0.0,0.0,0.0,0.0,0.0,0.0,0.0,0.0,0.0,0.0,0.0,0.0,0.0,0.0,0.0,0.0,0.0,0.0,0.0,0.0,0.0,0.0,0.0,0.0,0.0,0.0,0.0,0.0,0.0,0.0,0.0,0.0,0.0,0.0,0.0,0.0,0.0,0.0,0.0,0.0,0.0,0.0,0.0,0.0,0.0,0.0,0.0,0.0,0.0,0.0,0.0,0.0,0.0,0.0,0.0,0.0,0.0,0.0,-1.9546,-1.9024,-2.0322,-1.7731,-1.6452,0.0,0.0,0.0,0.0,0.0,0.0,-1.1002,-1.1104,-1.1199,-1.1274,-1.128,-1.1314,-1.1389,-1.1389,-1.1511,-1.1735,-1.1735,-1.185,-1.206,-1.2101,-1.2142,-1.2176,-1.2216,-1.2257,-1.2277,-1.2128,-1.2088,-1.2121,-1.2162,-1.2196,-1.2237,-1.2277,-1.2291,-1.2291,0.0,0.0,0.0,0.0,0.0,0.0,0.0,0.0,0.0,0.0,0.0,0.0,0.0,0.0,0.0,0.0,0.0,0.0,0.0,0.0,0.0,0.0,0.0,0.0,0.0,0.0,0.0,0.0,0.0,0.0,0.0,0.0,0.0,0.0,0.0,0.0,0.0,0.0,0.0,0.0,0.0,0.0,0.0,0.0,0.0,0.0,0.0,0.0,0.0,0.0,0.0,0.0,0.0,0.0,0.0,0.0,0.0,0.0,0.0,0.0,0.0,0.0,0.0,0.0,0.0,0.0,0.0,0.0,0.0,0.0,0.0,0.0,0.0,0.0,0.0,0.0,0.0,0.0,0.0,-1.864,-1.6947,0.0,0.0,0.0,0.0,-1.3696,-1.2231,-1.1151,-1.1151,-1.1158,-1.1294,-1.1586,-1.1599,-1.1728,-1.2013,-1.2013,-1.2026,-1.204,-1.204,-1.2047,-1.2067,-1.221,-1.2352,-1.2488,-1.263,-1.2779,-1.2874,-1.2298,-1.2149,-1.2291,-1.2427,-1.2569,-1.2712,-1.2861,-1.2915,-1.2915,0.0,0.0,0.0,0.0,0.0,0.0,0.0,0.0,0.0,0.0,0.0,0.0,0.0,0.0,0.0,0.0,0.0,0.0,0.0,0.0,0.0,0.0,0.0,0.0,0.0,0.0,0.0,0.0,0.0,0.0,0.0,0.0,0.0,0.0,0.0,0.0,0.0,0.0,0.0,0.0,0.0,0.0,0.0,0.0,0.0,0.0,0.0,0.0,0.0,0.0,0.0,0.0,0.0,0.0,0.0,0.0,0.0,0.0,0.0,0.0,0.0,0.0,0.0,0.0,0.0,0.0,0.0,0.0,0.0,0.0,0.0,0.0,0.0,0.0,0.0,0.0,0.0,0.0,0.0,-1.6792,-1.4539,0.0,-1.6047,-1.3645,-1.246,-1.3738,-1.2308,-1.1457,-1.1457,-1.164,-1.1789,-1.1898,-1.1904,-1.2006,-1.221,-1.221,-1.2305,-1.2494,-1.2494,-1.2542,-1.2644,-1.2698,-1.2752,-1.28,-1.2854,-1.2908,-1.2942,-1.2732,-1.2671,-1.2725,-1.2779,-1.2827,-1.2888,-1.2942,-1.2963,-1.2963,0.0,0.0,0.0,0.0,0.0,0.0,0.0,0.0,0.0,0.0,0.0,0.0,0.0,0.0,0.0,0.0,0.0,0.0,0.0,0.0,0.0,0.0,0.0,0.0,0.0,0.0,0.0,0.0,0.0,0.0,0.0,0.0,0.0,0.0,0.0,0.0,0.0,0.0,0.0,0.0,0.0,0.0,-1.3325,0.0,0.0,0.0,0.0,0.0,0.0,0.0,0.0,0.0,0.0,0.0,0.0,0.0,0.0,0.0,0.0,0.0,0.0,0.0,0.0,0.0,0.0,0.0,0.0,0.0,0.0,0.0,0.0,0.0,0.0,0.0,0.0,0.0,0.0,0.0,-1.4226,-1.5958,-1.3262,-1.2429,-1.5422,-1.3106,-1.1909,-1.313,-1.2366,-1.1769,-1.1769,-1.2006,-1.2162,-1.221,-1.2264,-1.2359,-1.2515,-1.2515,-1.2617,-1.2807,-1.2807,-1.2861,-1.2963,-1.301,-1.303,-1.3037,-1.3085,-1.3112,-1.3112,-1.3112,-1.3112,-1.3105,-1.3051,-1.3064,-1.3112,-1.3112,-1.3112,-1.3112,0.0,0.0,0.0,0.0,0.0,0.0,0.0,0.0,0.0,0.0,0.0,0.0,0.0,0.0,0.0,0.0,0.0,0.0,0.0,0.0,0.0,0.0,0.0,0.0,0.0,0.0,0.0,0.0,0.0,0.0,0.0,0.0,0.0,0.0,0.0,0.0,0.0,0.0,0.0,0.0,0.0,0.0,-1.3193,0.0,0.0,0.0,0.0,0.0,0.0,0.0,0.0,0.0,0.0,0.0,0.0,0.0,0.0,0.0,0.0,0.0,0.0,0.0,0.0,0.0,0.0,0.0,0.0,0.0,0.0,0.0,0.0,0.0,0.0,0.0,0.0,0.0,-1.603,-1.4828,-1.4292,-1.6059,-1.3215,-1.1992,-1.3998,-1.2624,-1.1755,-1.2047,-1.2074,-1.2081,-1.2081,-1.223,-1.2372,-1.2515,-1.2657,-1.2813,-1.2969,-1.2969,-1.2969,-1.2976,-1.2976,-1.2976,-1.2983,-1.3119,-1.3186,-1.3193,-1.3349,-1.3417,-1.3417,-1.3417,-1.3417,-1.3397,-1.3241,-1.3268,-1.3403,-1.3403,-1.3403,-1.3403,0.0,0.0,0.0,0.0,0.0,0.0,0.0,0.0,0.0,0.0,0.0,0.0,0.0,0.0,0.0,0.0,0.0,0.0,0.0,0.0,0.0,0.0,0.0,0.0,0.0,0.0,0.0,0.0,0.0,0.0,0.0,0.0,0.0,0.0,0.0,0.0,0.0,0.0,0.0,0.0,0.0,0.0,-1.1372,0.0,0.0,0.0,0.0,0.0,0.0,0.0,0.0,0.0,0.0,0.0,0.0,0.0,0.0,0.0,0.0,0.0,0.0,0.0,0.0,0.0,0.0,0.0,0.0,0.0,0.0,0.0,0.0,0.0,0.0,0.0,0.0,-1.4187,-1.4455,-1.3035,-1.2337,-1.2879,-1.2144,-1.1866,-1.2647,-1.2234,-1.202,-1.221,-1.2325,-1.2427,-1.2542,-1.2691,-1.2793,-1.2834,-1.2874,-1.2969,-1.3112,-1.3112,-1.3173,-1.3281,-1.3281,-1.3281,-1.3281,-1.3437,-1.3505,-1.3512,-1.3654,-1.3722,-1.3722,-1.3722,-1.3722,-1.3695,-1.3437,-1.3363,-1.3403,-1.3403,-1.3403,-1.3403,0.0,0.0,0.0,0.0,0.0,0.0,0.0,0.0,0.0,0.0,0.0,0.0,0.0,0.0,0.0,0.0,0.0,0.0,0.0,0.0,0.0,0.0,0.0,0.0,0.0,0.0,0.0,0.0,0.0,0.0,0.0,0.0,0.0,0.0,0.0,0.0,0.0,0.0,0.0,0.0,0.0,0.0,-1.0907,-1.0907,-1.1567,-1.2365,-1.2365,-1.3027,-1.4077,-1.4741,0.0,0.0,0.0,0.0,0.0,0.0,0.0,0.0,0.0,0.0,0.0,0.0,0.0,0.0,0.0,0.0,0.0,0.0,0.0,0.0,0.0,0.0,0.0,0.0,-1.3746,-1.3313,-1.3113,-1.2323,-1.1708,-1.1796,-1.1877,-1.2013,-1.2223,-1.2244,-1.2338,-1.2556,-1.2644,-1.2732,-1.282,-1.2969,-1.3051,-1.3051,-1.3112,-1.3186,-1.3268,-1.3336,-1.341,-1.3498,-1.3559,-1.3587,-1.3587,-1.3675,-1.3715,0.0,-1.3804,-1.3838,-1.3838,-1.3838,-1.3838,0.0,0.0,0.0,0.0,0.0,-1.3587,-1.3587,0.0,0.0,0.0,0.0,0.0,0.0,0.0,0.0,0.0,0.0,0.0,0.0,0.0,0.0,0.0,0.0,0.0,0.0,0.0,0.0,0.0,0.0,0.0,0.0,0.0,0.0,0.0,0.0,0.0,0.0,0.0,0.0,0.0,0.0,0.0,0.0,0.0,0.0,0.0,0.0,0.0,0.0,-1.1165,-1.1165,-1.1165,-1.1165,-1.1165,-1.1165,-1.1434,-1.2925,0.0,0.0,0.0,0.0,0.0,0.0,0.0,0.0,0.0,0.0,0.0,0.0,0.0,0.0,0.0,0.0,0.0,0.0,0.0,0.0,0.0,0.0,0.0,0.0,-1.3267,-1.2115,-1.2115,-1.2142,-1.2149,-1.2115,-1.2115,-1.223,-1.2522,-1.2556,-1.2671,-1.2963,-1.2983,-1.299,-1.301,0.0,0.0,0.0,0.0,-1.3437,-1.3451,-1.3587,-1.3654,-1.3654,-1.3783,-1.3838,-1.3844,-1.3878,-1.3892,-1.3892,-1.3926,-1.3939,-1.3939,-1.3939,-1.3939,-1.3933,-1.3865,-1.3838,-1.3838,-1.3838,-1.3838,-1.3838,0.0,0.0,0.0,0.0,0.0,0.0,0.0,0.0,0.0,0.0,0.0,0.0,0.0,0.0,0.0,0.0,0.0,0.0,0.0,0.0,0.0,0.0,0.0,0.0,0.0,0.0,0.0,0.0,0.0,0.0,0.0,0.0,0.0,0.0,0.0,0.0,0.0,0.0,0.0,0.0,0.0,0.0,-1.1165,-1.1165,-1.1165,-1.1165,-1.1165,-1.1165,-1.1303,-1.1572,-1.1703,-1.1703,-1.2116,0.0,0.0,0.0,0.0,0.0,0.0,0.0,0.0,0.0,0.0,0.0,0.0,0.0,0.0,0.0,0.0,0.0,0.0,0.0,0.0,-1.2933,-1.256,-1.242,-1.242,-1.263,-1.2698,-1.2447,-1.242,-1.2535,-1.284,-1.2874,-1.2942,-1.3119,-1.3132,-1.3186,-1.3308,-1.3342,-1.341,-1.3539,-1.3566,-1.3641,-1.3756,-1.3783,-1.3797,-1.3797,0.0,0.0,-1.3851,-1.4095,-1.4211,-1.4224,-1.4462,-1.4563,-1.4563,-1.4563,-1.4563,-1.4516,-1.4027,-1.3838,-1.3838,-1.3838,-1.3838,-1.3838,0.0,0.0,0.0,0.0,0.0,0.0,0.0,0.0,0.0,0.0,0.0,0.0,0.0,0.0,0.0,0.0,0.0,0.0,0.0,0.0,0.0,0.0,0.0,0.0,0.0,0.0,0.0,0.0,0.0,0.0,0.0,0.0,0.0,0.0,0.0,0.0,0.0,0.0,0.0,0.0,0.0,0.0,-1.1491,-1.1416,-1.1389,-1.1389,-1.1389,-1.1389,-1.1389,-1.1389,-1.1389,-1.1389,-1.1389,-1.1389,-1.1804,0.0,0.0,0.0,0.0,0.0,0.0,0.0,0.0,0.0,0.0,0.0,0.0,0.0,0.0,-1.5745,0.0,0.0,-1.3354,-1.2532,-1.2583,-1.2732,-1.2732,-1.2861,-1.2901,-1.2752,-1.2732,-1.282,-1.3044,-1.3064,-1.3125,-1.3275,-1.3288,-1.3356,-1.3505,-1.3512,-1.358,-1.3729,-1.3736,-1.377,-1.3838,-1.3994,-1.4068,-1.4075,-1.4217,-1.4292,-1.4299,-1.4448,-1.4523,-1.4529,-1.4679,-1.474,-1.474,-1.474,-1.474,-1.4713,-1.4407,-1.4292,-1.4292,-1.4292,-1.4292,-1.4292,0.0,0.0,0.0,0.0,0.0,0.0,0.0,0.0,0.0,0.0,0.0,0.0,0.0,0.0,0.0,0.0,0.0,0.0,0.0,0.0,0.0,0.0,0.0,0.0,0.0,0.0,0.0,0.0,0.0,0.0,0.0,0.0,0.0,0.0,0.0,0.0,0.0,0.0,0.0,0.0,0.0,0.0,-1.1864,-1.1748,-1.1667,-1.1619,-1.1619,-1.1619,-1.1619,-1.1619,-1.1619,-1.1619,-1.1619,-1.164,-1.1942,-1.3499,-1.3945,0.0,0.0,0.0,0.0,0.0,0.0,0.0,0.0,0.0,-1.6232,-1.4786,-1.438,-1.4018,-1.2692,-1.2515,-1.263,-1.2752,-1.2901,-1.3003,-1.3003,-1.303,-1.3051,-1.3051,-1.3024,-1.3057,-1.32,-1.3214,-1.3281,-1.3437,-1.3444,-1.3512,-1.3661,-1.3668,-1.3736,-1.3878,-1.3912,-1.3946,-1.3973,-1.4245,-1.4387,-1.4387,-1.4624,-1.474,-1.474,-1.4801,-1.4828,-1.4828,-1.4889,-1.4916,-1.4916,-1.4916,-1.4916,-1.4916,-1.4916,-1.4916,-1.4903,-1.478,-1.474,-1.474,0.0,0.0,0.0,0.0,0.0,0.0,0.0,0.0,0.0,0.0,0.0,0.0,0.0,0.0,0.0,0.0,0.0,0.0,0.0,0.0,0.0,0.0,0.0,0.0,0.0,0.0,0.0,0.0,0.0,0.0,0.0,0.0,0.0,0.0,0.0,0.0,0.0,0.0,0.0,0.0,0.0,0.0,-1.2033,-1.202,-1.185,-1.1619,-1.1619,-1.1619,-1.1619,-1.1619,-1.1619,-1.1619,-1.1619,-1.1708,-1.1803,-1.2095,0.0,-1.2452,-1.26,-1.2452,-1.231,-1.2324,-1.2487,-1.2799,0.0,0.0,-1.2899,-1.2727,-1.2866,-1.3012,-1.2854,-1.2901,-1.2915,-1.2935,-1.3057,-1.3152,-1.3152,-1.3268,-1.3349,-1.3349,-1.3234,-1.3207,-1.3363,-1.3376,-1.3437,-1.3593,-1.36,-1.3668,-1.381,-1.3817,-1.3885,-1.4041,-1.4177,-1.4306,-1.4434,-1.4604,-1.4692,-1.4692,-1.4726,-1.474,-1.4746,-1.5011,-1.5133,-1.5147,-1.5418,-1.554,-1.554,-1.554,-1.554,-1.554,-1.554,-1.554,-1.5472,-1.4936,-1.474,-1.474,0.0,0.0,0.0,0.0,0.0,0.0,0.0,0.0,0.0,0.0,0.0,0.0,0.0,0.0,0.0,0.0,0.0,0.0,0.0,0.0,0.0,0.0,0.0,0.0,0.0,0.0,0.0,0.0,0.0,0.0,0.0,0.0,0.0,0.0,0.0,0.0,0.0,0.0,0.0,0.0,0.0,0.0,-1.2182,-1.2094,-1.1986,-1.1877,-1.1877,-1.1877,0.0,0.0,-1.1877,-1.1877,-1.1877,-1.1918,-1.1965,-1.1965,-1.2013,0.0,-1.206,-1.2128,-1.2196,-1.2196,-1.2325,-1.2447,-1.2447,-1.2569,-1.2698,-1.2759,-1.282,-1.2888,-1.2949,-1.303,-1.3085,0.0,-1.3207,-1.3308,-1.3308,-1.3363,-1.3403,-1.3403,-1.3424,-1.3464,-1.3526,-1.3532,-1.3593,-1.3743,-1.3749,-1.3858,-1.4095,-1.4109,-1.4217,-1.4455,-1.4523,-1.4584,-1.4645,-1.4794,-1.4916,-1.4997,-1.5086,-1.5181,-1.5269,-1.5391,-1.5445,-1.5452,-1.5581,-1.5642,-1.5642,-1.5642,-1.5642,-1.5642,-1.5642,-1.5642,-1.5608,-1.5357,-1.5262,-1.5262,0.0,0.0,0.0,0.0,0.0,0.0,0.0,0.0,0.0,0.0,0.0,0.0,0.0,0.0,0.0,0.0,0.0,0.0,0.0,0.0,0.0,0.0,0.0,0.0,0.0,0.0,0.0,0.0,0.0,0.0,0.0,0.0,0.0,0.0,0.0,0.0,0.0,0.0,0.0,0.0,0.0,0.0,-1.2338,-1.2223,-1.2182,-1.2176,-1.2094,-1.206,0.0,0.0,-1.206,-1.206,-1.206,-1.2088,-1.2135,-1.2169,-1.2244,-1.2311,-1.2311,-1.2393,-1.2474,-1.2474,-1.2637,-1.2793,-1.2793,-1.2881,-1.2969,-1.301,-1.3017,-1.303,-1.3078,-1.3166,-1.3234,-1.3234,-1.3329,-1.3403,-1.3403,-1.3437,-1.3464,-1.3464,-1.3593,-1.3702,-1.3749,-1.3715,-1.3749,-1.3892,-1.3946,-1.4082,-1.4346,-1.4401,-1.4523,-1.4733,-1.4821,-1.4862,-1.4862,-1.5059,-1.5208,-1.5309,-1.5418,-1.5533,-1.5642,-1.5683,-1.5723,-1.5764,-1.5805,-1.5825,-1.5825,-1.5866,-1.5879,-1.5879,-1.5879,-1.5879,-1.5879,-1.5879,-1.5778,-1.5642,0.0,0.0,0.0,0.0,0.0,0.0,0.0,0.0,0.0,0.0,0.0,0.0,0.0,0.0,0.0,0.0,0.0,0.0,0.0,0.0,0.0,0.0,0.0,0.0,-1.1158,-1.1165,-1.1314,-1.1619,-1.1755,-1.183,-1.1843,-1.1993,-1.2067,-1.2081,-1.223,0.0,0.0,0.0,0.0,0.0,0.0,0.0,-1.2494,-1.2488,-1.2488,-1.2447,-1.2162,0.0,0.0,0.0,-1.206,-1.206,-1.206,-1.2162,0.0,-1.2447,-1.2698,-1.2935,-1.2935,-1.2935,-1.2942,-1.2942,-1.2949,-1.2956,-1.2956,-1.2956,-1.3003,-1.3139,-1.3166,-1.3214,-1.3363,-1.339,-1.3397,-1.3397,-1.3397,-1.3403,-1.3403,-1.3532,-1.362,-1.362,-1.3749,-1.3892,0.0,-1.3926,-1.3899,-1.4055,-1.4204,-1.4346,-1.4496,-1.4645,-1.4733,-1.474,-1.5018,-1.5167,-1.5167,-1.5466,-1.5622,-1.5628,-1.5628,-1.5635,-1.5642,-1.5784,-1.5927,-1.6076,-1.6225,-1.6286,-1.63,-1.6435,-1.6497,-1.6497,-1.6497,-1.6497,-1.6497,-1.6497,-1.613,-1.5642,0.0,0.0,0.0,0.0,0.0,0.0,0.0,0.0,0.0,0.0,0.0,0.0,0.0,0.0,0.0,0.0,0.0,0.0,0.0,0.0,-1.2545,-1.0717,-1.0717,-1.086,-1.1158,-1.1165,-1.1314,-1.1619,-1.1667,-1.1742,-1.183,-1.1884,-1.1965,-1.2067,-1.2223,-1.2291,-1.2298,-1.244,-1.2501,-1.2501,-1.2501,-1.2501,-1.2501,-1.2501,-1.2501,-1.2488,0.0,0.0,0.0,0.0,-1.242,-1.2508,-1.2508,0.0,-1.2745,-1.2793,-1.2881,-1.2963,-1.2963,-1.2963,-1.2963,-1.2963,-1.303,-1.3105,-1.3105,-1.318,-1.3268,-1.3315,-1.3322,-1.3342,-1.339,-1.3403,-1.3403,-1.3403,-1.3403,-1.3437,-1.3539,-1.36,-1.3661,-1.3756,-1.3905,0.0,0.0,0.0,0.0,-1.4353,-1.4509,-1.4658,-1.4808,-1.4957,-1.5079,-1.5181,-1.5377,-1.5486,-1.5486,-1.5588,-1.5689,-1.5784,-1.5988,-1.613,-1.6225,-1.6273,-1.6327,-1.6374,-1.6429,-1.6449,-1.6456,-1.6503,-1.6524,-1.6524,-1.6524,-1.6524,-1.6524,-1.6524,-1.6395,-1.6225,0.0,0.0,0.0,0.0,0.0,0.0,0.0,0.0,0.0,0.0,0.0,0.0,0.0,0.0,0.0,0.0,0.0,0.0,0.0,0.0,-1.3456,-1.1762,-1.1031,-1.0914,-1.1158,-1.1219,-1.1369,-1.1619,-1.1619,-1.1667,-1.1755,-1.1755,-1.1809,-1.1911,-1.2115,-1.221,-1.2223,-1.242,-1.2501,-1.2501,-1.2501,-1.2501,-1.2501,-1.2501,-1.2501,0.0,0.0,0.0,0.0,0.0,-1.2684,-1.2813,-1.2813,-1.2915,-1.3037,-1.3037,-1.3078,-1.3119,-1.3119,-1.3119,-1.3119,-1.3119,-1.3186,-1.3254,-1.3254,-1.3329,-1.3403,-1.3403,-1.3403,-1.3403,-1.3403,-1.3403,-1.3417,-1.3471,-1.3485,-1.3532,-1.3682,-1.3749,-1.3844,-1.3987,-1.4136,-1.4292,0.0,0.0,0.0,-1.459,-1.4733,-1.4889,-1.5038,-1.5181,-1.5337,-1.5486,-1.5635,-1.5716,-1.5716,-1.5825,-1.5947,-1.6096,-1.6293,-1.6435,-1.6524,-1.6524,-1.6524,-1.6524,-1.6578,-1.6605,-1.6605,-1.6659,-1.6686,-1.6686,-1.6686,-1.6686,-1.6686,-1.6686,-1.6686,-1.6673,0.0,0.0,0.0,0.0,0.0,0.0,0.0,0.0,0.0,0.0,0.0,0.0,0.0,0.0,0.0,0.0,0.0,0.0,0.0,0.0,0.0,-1.3325,-1.1784,-1.1145,-1.1158,-1.1307,-1.1457,-1.1619,-1.1619,-1.1619,-1.1633,-1.1633,-1.1633,-1.1653,-1.1945,-1.2074,-1.2094,-1.2379,-1.2501,-1.2501,-1.2501,-1.2501,-1.2501,-1.2501,0.0,0.0,0.0,0.0,0.0,0.0,-1.284,-1.2976,-1.2983,-1.3078,-1.3186,-1.3186,-1.3288,-1.3403,-1.3403,-1.3403,-1.3403,-1.3403,-1.3403,-1.3403,-1.3403,-1.3403,-1.3403,-1.3403,-1.3403,-1.3403,0.0,0.0,-1.3464,-1.3614,-1.3641,-1.3688,-1.3831,-1.3987,-1.4143,0.0,0.0,0.0,0.0,0.0,0.0,-1.4787,0.0,-1.5059,-1.5201,-1.535,-1.5499,-1.5649,-1.5798,-1.5879,-1.5879,-1.6171,-1.6395,-1.653,-1.653,-1.6537,-1.6544,-1.6544,-1.6544,-1.6551,-1.67,-1.6761,-1.6775,-1.6917,-1.6978,-1.6978,-1.6978,-1.6978,-1.6978,-1.6978,-1.6978,-1.6937,0.0,0.0,0.0,0.0,0.0,0.0,0.0,0.0,0.0,0.0,0.0,0.0,0.0,0.0,0.0,0.0,0.0,0.0,0.0,0.0,0.0,0.0,0.0,0.0,0.0,0.0,0.0,0.0,0.0,-1.1674,-1.1775,-1.1775,-1.1837,-1.1959,-1.2149,-1.223,-1.2244,-1.2427,-1.2501,-1.2501,0.0,-1.2501,-1.2501,0.0,0.0,0.0,0.0,0.0,0.0,0.0,-1.2996,-1.3139,-1.3254,-1.3315,-1.3342,-1.3342,-1.337,-1.3403,-1.3403,-1.3403,-1.3403,-1.3403,-1.3403,-1.3403,-1.3403,-1.3403,-1.3403,-1.3403,-1.3403,-1.3437,0.0,0.0,0.0,-1.3763,-1.3783,0.0,-1.3994,-1.4143,0.0,-1.4441,0.0,-1.474,-1.4896,-1.5045,0.0,0.0,-1.5276,-1.5364,-1.5513,-1.5662,-1.5757,-1.5798,-1.6056,-1.6191,-1.6191,-1.6374,-1.6544,-1.6693,-1.6693,-1.6754,-1.6863,-1.6863,-1.6863,-1.6863,-1.6904,-1.6924,-1.6924,-1.6965,-1.6978,-1.6978,-1.6978,-1.6978,-1.6978,-1.6978,-1.6978,-1.6971,0.0,0.0,0.0,0.0,0.0,0.0,0.0,0.0,0.0,0.0,0.0,0.0,0.0,0.0,0.0,0.0,0.0,0.0,0.0,0.0,0.0,0.0,0.0,0.0,0.0,0.0,0.0,0.0,0.0,0.0,0.0,-1.1803,-1.1877,-1.1972,-1.2189,-1.2291,-1.2298,0.0,0.0,0.0,0.0,0.0,0.0,0.0,0.0,0.0,0.0,0.0,0.0,0.0,0.0,-1.3288,-1.3376,-1.3403,-1.3403,-1.3403,-1.3403,-1.3403,-1.3403,-1.3403,-1.3403,-1.3403,-1.3403,-1.3403,-1.3403,-1.3403,-1.3403,-1.3403,-1.3451,-1.3526,-1.3614,-1.3682,-1.377,0.0,0.0,0.0,-1.4231,-1.434,-1.4475,0.0,-1.4841,0.0,-1.5147,-1.5296,-1.5445,0.0,-1.5547,-1.5574,-1.5723,-1.5872,-1.5988,-1.6049,-1.6279,-1.6435,-1.6503,-1.6578,-1.67,-1.6849,-1.6849,-1.6897,-1.6978,-1.6978,-1.6978,-1.6978,0.0,-1.6978,-1.6978,-1.6978,-1.6978,-1.6978,-1.6978,-1.6978,-1.6978,-1.6978,-1.6978,-1.6978,0.0,0.0,0.0,0.0,0.0,0.0,0.0,0.0,0.0,0.0,0.0,0.0,0.0,0.0,0.0,0.0,0.0,0.0,0.0,0.0,0.0,0.0,0.0,0.0,0.0,0.0,0.0,0.0,0.0,0.0,0.0,0.0,0.0,0.0,0.0,0.0,0.0,0.0,0.0,0.0,0.0,0.0,0.0,0.0,0.0,0.0,0.0,0.0,0.0,0.0,-1.3403,-1.3403,-1.3403,-1.3403,-1.3403,-1.3403,-1.3403,-1.3403,-1.3403,-1.3403,-1.3403,-1.3403,-1.3403,-1.3403,-1.3403,-1.3417,-1.3431,-1.3431,-1.3553,-1.3661,-1.3682,-1.379,-1.3919,-1.4075,0.0,-1.4197,-1.4475,-1.4529,-1.4658,-1.4964,-1.5126,-1.5269,-1.5425,-1.5581,-1.573,-1.5872,-1.5784,-1.5784,-1.5906,-1.6042,-1.6191,-1.6361,-1.649,-1.6625,-1.6781,-1.6781,-1.6849,-1.6978,-1.6978,-1.6978,-1.6978,-1.6978,-1.6978,-1.6978,0.0,0.0,-1.6978,-1.6978,-1.6978,-1.6978,-1.6978,-1.6978,-1.6978,-1.6978,-1.6978,-1.6978,0.0,0.0,0.0,0.0,0.0,0.0,0.0,0.0,0.0,0.0,-1.9372,-1.9492,0.0,0.0,0.0,0.0,0.0,0.0,0.0,0.0,0.0,0.0,0.0,0.0,0.0,0.0,0.0,0.0,0.0,0.0,0.0,0.0,0.0,0.0,0.0,0.0,0.0,0.0,0.0,0.0,0.0,0.0,0.0,0.0,0.0,0.0,0.0,0.0,0.0,0.0,-1.3403,-1.3403,-1.3403,-1.3403,-1.3403,-1.3403,-1.3403,-1.3403,-1.3403,-1.3403,-1.3403,-1.3403,-1.3403,-1.3403,-1.3403,-1.3498,0.0,-1.3587,-1.3702,-1.3844,-1.3973,-1.4014,-1.4082,-1.4238,-1.4258,-1.4319,-1.4489,-1.4618,-1.4808,0.0,-1.5276,-1.5432,-1.5588,-1.573,0.0,0.0,-1.6137,-1.6205,-1.6232,-1.6252,-1.6395,-1.6666,-1.67,-1.6781,-1.6937,-1.6937,-1.6951,-1.6978,-1.6978,-1.6978,-1.6978,-1.6978,-1.6978,-1.6978,-1.6978,0.0,-1.6978,-1.6978,-1.6978,-1.6978,-1.6978,-1.6978,-1.6978,-1.6978,-1.6978,-1.6978,0.0,0.0,0.0,0.0,0.0,0.0,0.0,0.0,-1.9372,-1.9372,-1.9372,-1.9479,-1.9773,-2.0054,0.0,0.0,0.0,0.0,0.0,0.0,0.0,0.0,0.0,0.0,0.0,0.0,0.0,0.0,0.0,0.0,0.0,0.0,0.0,0.0,0.0,0.0,0.0,0.0,0.0,0.0,0.0,0.0,0.0,0.0,0.0,0.0,0.0,0.0,0.0,0.0,-1.3403,-1.3403,-1.3403,-1.3403,-1.3403,-1.3403,-1.3403,-1.3403,-1.3403,-1.3403,-1.3403,-1.3403,-1.3403,-1.3424,-1.3498,-1.3573,-1.3648,-1.3722,-1.3858,-1.398,-1.4055,-1.4136,-1.4217,-1.4285,-1.4299,-1.438,-1.4597,-1.4692,-1.4882,-1.5255,-1.5438,-1.5588,0.0,-1.5954,-1.6123,-1.6198,-1.6334,-1.6422,-1.6422,-1.6497,-1.6639,-1.6863,-1.687,-1.6904,-1.6978,-1.6978,-1.6978,-1.6978,-1.6978,-1.6978,-1.6978,-1.6978,-1.6978,-1.6978,-1.6978,0.0,-1.6978,-1.6978,-1.6978,-1.6978,-1.6978,-1.6978,-1.6992,-1.7066,-1.7087,-1.71,0.0,0.0,0.0,0.0,0.0,0.0,0.0,-1.9372,-1.9372,-1.9372,-1.9372,-1.9452,-1.9679,-2.0013,-2.0321,0.0,0.0,0.0,0.0,0.0,0.0,0.0,0.0,0.0,0.0,0.0,0.0,-1.1895,-1.1633,0.0,0.0,0.0,0.0,0.0,-1.2081,0.0,0.0,0.0,0.0,0.0,0.0,0.0,0.0,0.0,0.0,0.0,0.0,0.0,0.0,0.0,-1.3403,-1.3403,-1.3403,-1.3403,-1.3403,-1.3403,-1.3403,-1.3403,-1.3403,-1.3403,-1.3403,-1.3403,-1.3403,-1.3444,-1.3593,-1.3654,-1.3715,-1.3858,-1.4014,-1.4122,-1.4122,-1.4217,-1.4299,0.0,-1.4326,-1.4434,-1.4706,-1.4767,-1.4957,-1.5404,-1.5567,0.0,-1.5934,-1.6171,0.0,-1.6402,-1.6537,-1.6605,-1.6571,-1.6714,-1.6856,-1.6978,-1.6978,-1.6978,-1.6978,-1.6978,-1.6978,-1.6978,-1.6978,-1.6978,-1.6978,-1.6978,-1.6978,-1.6978,-1.6992,0.0,0.0,-1.7026,-1.7032,-1.7032,-1.706,-1.7073,-1.7087,-1.7209,-1.7256,-1.7277,0.0,0.0,0.0,0.0,0.0,0.0,0.0,-1.9372,-1.9372,-1.9372,-1.9372,-1.9372,-1.9399,-1.9907,-2.0241,0.0,0.0,0.0,0.0,0.0,0.0,0.0,0.0,0.0,0.0,0.0,0.0,-1.3626,-1.2168,0.0,0.0,0.0,0.0,0.0,0.0,-1.2026,-1.2291,0.0,0.0,0.0,0.0,0.0,0.0,0.0,0.0,0.0,0.0,0.0,0.0,0.0,-1.3403,-1.3403,-1.3403,-1.3403,-1.3403,-1.3403,-1.3403,-1.3403,-1.3403,-1.3403,-1.3403,-1.3403,-1.3403,-1.3444,-1.3593,-1.3729,-1.3865,-1.4021,-1.417,-1.4278,-1.4278,-1.4292,0.0,0.0,0.0,-1.455,-1.4719,-1.4862,-1.512,-1.5567,0.0,0.0,-1.6225,-1.6293,-1.6422,-1.6686,-1.6849,-1.6876,-1.6734,-1.6876,-1.6965,-1.6978,-1.6978,-1.6978,-1.6978,-1.6978,-1.6978,-1.6978,-1.6978,-1.6978,-1.6978,-1.6978,-1.6978,-1.6985,-1.7012,0.0,0.0,-1.7168,-1.7209,-1.7188,-1.7324,-1.7378,-1.7385,-1.7224,-1.7244,-1.725,0.0,0.0,0.0,0.0,0.0,0.0,0.0,-1.9372,-1.9372,-1.9372,-1.9372,-1.9372,-1.9372,-1.9733,-2.004,0.0,0.0,0.0,0.0,0.0,0.0,0.0,0.0,0.0,0.0,0.0,0.0,-1.3578,-1.3189,0.0,0.0,0.0,0.0,0.0,0.0,-1.1898,-1.202,0.0,0.0,0.0,0.0,0.0,0.0,0.0,0.0,0.0,0.0,0.0,-1.3078,-1.3322,-1.3403,-1.3403,-1.3403,-1.3403,0.0,-1.3403,-1.3403,-1.3403,-1.3403,-1.3403,-1.3403,-1.3403,-1.3471,-1.358,-1.3722,-1.3871,-1.4021,-1.4177,-1.4258,-1.4299,-1.4299,-1.4299,-1.4299,-1.4299,0.0,0.0,-1.4719,-1.495,-1.5235,-1.5594,-1.5716,0.0,0.0,0.0,-1.6564,-1.6863,-1.6944,-1.6951,-1.689,-1.6944,-1.6978,-1.6978,-1.6978,-1.6978,-1.6978,-1.6978,-1.6992,-1.7012,-1.6992,-1.7005,-1.7053,-1.7005,-1.7005,-1.706,-1.6922,0.0,0.0,-1.5607,-1.721,-1.7419,-1.748,-1.75,-1.7297,-1.7398,-1.5196,-1.2092,0.0,0.0,0.0,0.0,0.0,-1.9372,-1.9372,-1.9372,-1.9372,-1.9372,-1.9372,-1.9372,-1.9372,-1.9546,-1.9826,-2.0201,0.0,0.0,0.0,0.0,0.0,0.0,0.0,0.0,0.0,0.0,0.0,0.0,-1.4002,-1.2951,0.0,0.0,-1.1572,-1.1619,0.0,0.0,0.0,0.0,0.0,0.0,0.0,0.0,0.0,0.0,0.0,0.0,0.0,0.0,0.0,0.0,0.0,-1.3403,0.0,0.0,0.0,0.0,-1.3403,-1.3403,-1.3403,-1.3403,-1.3403,-1.3403,-1.3519,-1.3668,-1.381,-1.396,-1.4116,-1.4272,-1.4299,-1.4299,-1.4299,-1.4299,-1.4312,-1.4353,-1.4482,-1.4631,-1.4787,-1.5065,-1.535,-1.5608,0.0,-1.6042,0.0,-1.6544,-1.6748,-1.6965,-1.6978,-1.6978,-1.6978,-1.6978,-1.6978,-1.6978,-1.6978,-1.6978,-1.6978,-1.6978,-1.6998,-1.7032,-1.7005,-1.7032,-1.6889,-1.535,-1.5375,-1.6962,-1.709,0.0,0.0,-1.0921,-1.3165,-1.4719,-1.4753,-1.4989,-1.5006,-1.6917,-1.4912,-1.0882,0.0,0.0,0.0,0.0,0.0,0.0,0.0,-1.9372,-1.9372,-1.9372,-1.9372,-1.9372,-1.9372,-1.9372,-1.9599,-2.0187,0.0,0.0,0.0,0.0,0.0,0.0,0.0,0.0,0.0,0.0,0.0,0.0,0.0,0.0,-1.1389,-1.1396,-1.147,-1.1619,0.0,0.0,0.0,0.0,0.0,0.0,0.0,0.0,0.0,0.0,0.0,0.0,0.0,0.0,0.0,0.0,0.0,0.0,0.0,0.0,0.0,0.0,-1.3403,-1.3403,-1.3403,-1.3403,-1.3403,-1.3403,-1.3519,-1.3668,-1.381,-1.396,-1.4116,-1.4272,-1.4299,-1.4299,-1.4299,-1.4299,-1.4346,-1.4489,-1.4638,-1.4794,-1.4943,-1.5221,-1.5466,-1.5622,-1.59,-1.6198,-1.649,-1.6795,-1.6978,-1.6978,-1.6978,0.0,-1.6978,-1.6978,-1.6978,-1.6978,-1.6978,-1.6978,-1.6978,-1.6978,-1.6998,-1.7032,-1.7032,-1.7053,-1.6889,-1.1152,-1.1634,0.0,0.0,0.0,0.0,-0.2417,-0.3527,-0.8604,-0.8896,-0.8933,-0.9609,-1.5759,-1.7847,-1.6006,0.0,0.0,0.0,0.0,0.0,0.0,0.0,-1.9372,-1.9372,-1.9372,-1.9372,-1.9372,-1.9372,-1.9372,-1.9599,-2.0187,0.0,0.0,0.0,0.0,0.0,0.0,0.0,0.0,0.0,0.0,0.0,0.0,0.0,0.0,0.0,0.0,0.0,-1.147,-1.1572,-1.1647,0.0,0.0,0.0,0.0,0.0,0.0,0.0,0.0,0.0,0.0,0.0,0.0,0.0,0.0,0.0,0.0,0.0,0.0,0.0,0.0,0.0,-1.3403,-1.3403,-1.3403,-1.3424,-1.3532,-1.3668,-1.381,-1.3966,-1.4116,-1.4245,-1.4292,-1.4299,-1.4299,-1.4299,-1.4299,-1.4346,-1.4489,-1.4638,-1.4794,-1.495,-1.5316,-1.5588,-1.5635,-1.6076,-1.6463,0.0,0.0,-1.6978,-1.6978,-1.6978,-1.6978,-1.6978,-1.6978,-1.6978,-1.6978,-1.6978,-1.6978,-1.6978,-1.7005,-1.7039,-1.6869,-1.3051,-0.9217,-0.5373,-0.7569,-0.7385,0.0,0.0,0.0,0.0,-0.0668,-0.1116,-0.2679,-0.2684,-0.2911,-0.3137,-0.4933,-0.5613,-0.5163,0.0,0.0,0.0,0.0,0.0,0.0,0.0,-1.9372,-1.9372,-1.9372,-1.9372,-1.9372,-1.9372,-1.9372,-1.9599,-2.0187,0.0,0.0,0.0,0.0,0.0,0.0,0.0,0.0,0.0,0.0,0.0,0.0,0.0,0.0,0.0,0.0,0.0,0.0,-1.1552,0.0,0.0,0.0,0.0,0.0,0.0,0.0,-1.2298,0.0,0.0,0.0,0.0,0.0,0.0,0.0,0.0,0.0,0.0,0.0,0.0,0.0,-1.3403,-1.3403,-1.3403,-1.3403,-1.3437,-1.3593,-1.3736,-1.3878,-1.4034,-1.419,-1.4299,-1.4299,-1.4299,-1.4299,-1.4299,-1.4346,-1.4428,-1.4577,-1.4726,-1.4882,-1.5031,-1.5391,0.0,-1.5947,0.0,0.0,0.0,-1.6924,-1.6978,-1.6978,-1.6978,-1.6985,-1.6998,-1.6998,-1.7005,-1.7026,-1.7012,-1.7005,-1.7026,-1.7046,-1.6895,-1.6996,-1.3364,-0.756,-0.0217,-0.3714,-0.329,0.0,0.0,0.0,0.0,0.0,0.0,0.0,0.0,0.0,0.0,0.0,0.0,0.0,0.0,0.0,0.0,0.0,0.0,0.0,0.0,0.0,0.0,-1.9372,-1.9372,-1.9372,-1.9372,-1.9372,-1.9599,-2.0187,0.0,0.0,0.0,0.0,0.0,0.0,0.0,0.0,0.0,0.0,0.0,0.0,-1.6689,-1.5109,-1.3461,0.0,0.0,0.0,0.0,0.0,0.0,0.0,0.0,0.0,0.0,0.0,0.0,0.0,0.0,0.0,0.0,0.0,0.0,0.0,0.0,0.0,0.0,0.0,0.0,0.0,0.0,0.0,0.0,-1.341,-1.3451,-1.3607,-1.3749,-1.3899,-1.4055,0.0,0.0,0.0,0.0,0.0,0.0,-1.4414,-1.4563,-1.4713,-1.4869,-1.5025,-1.5174,-1.5472,0.0,0.0,-1.653,0.0,-1.6951,-1.6978,-1.6978,-1.6978,-1.6985,-1.6998,-1.7032,-1.6604,-1.6624,-1.6895,-1.7066,-1.6842,-1.6446,-1.6895,-1.6996,-1.6961,-1.6099,-1.0232,0.0,0.0,0.0,0.0,0.0,0.0,0.0,0.0,0.0,0.0,0.0,0.0,0.0,0.0,0.0,0.0,0.0,0.0,0.0,0.0,0.0,0.0,0.0,0.0,0.0,0.0,-1.9372,-1.9372,-1.9372,-1.9372,-1.9599,0.0,0.0,0.0,0.0,0.0,0.0,0.0,0.0,0.0,0.0,0.0,0.0,-1.8512,-1.6689,-1.5033,-1.326,-1.1723,0.0,0.0,0.0,0.0,0.0,0.0,0.0,0.0,0.0,0.0,0.0,0.0,0.0,0.0,-1.2542,-1.2732,0.0,0.0,0.0,0.0,0.0,0.0,0.0,0.0,-1.3403,-1.3403,-1.3403,0.0,-1.3607,-1.3756,-1.3905,-1.4055,0.0,0.0,0.0,0.0,0.0,0.0,0.0,0.0,-1.4563,-1.4713,-1.4869,-1.5059,-1.5323,0.0,0.0,0.0,0.0,0.0,0.0,-1.6978,-1.6978,-1.6978,-1.7005,-1.7026,-1.7032,-1.2958,-1.2555,-1.6936,-1.6929,-1.4951,-1.0623,-1.4844,-1.6915,-1.6961,-0.8107,-0.2647,0.0,0.0,0.0,0.0,0.0,0.0,0.0,0.0,0.0,0.0,0.0,0.0,0.0,0.0,0.0,0.0,0.0,0.0,0.0,0.0,0.0,0.0,0.0,0.0,0.0,0.0,0.0,0.0,0.0,0.0,0.0,0.0,0.0,0.0,0.0,0.0,0.0,0.0,0.0,0.0,0.0,0.0,0.0,0.0,0.0,-1.5394,0.0,0.0,0.0,0.0,0.0,0.0,0.0,0.0,0.0,0.0,-1.1701,0.0,0.0,0.0,0.0,0.0,-1.2501,-1.2698,0.0,-1.2963,-1.3159,-1.3403,0.0,0.0,0.0,0.0,-1.3403,-1.3403,-1.3403,-1.3512,-1.3661,-1.3804,-1.396,-1.4116,0.0,0.0,0.0,0.0,0.0,0.0,0.0,0.0,0.0,-1.4821,-1.497,-1.5174,0.0,0.0,-1.6191,-1.6483,-1.6659,-1.6809,0.0,0.0,-1.6985,-1.7005,-1.7019,-1.7053,-1.7093,-1.408,-1.389,-1.6976,-1.6982,-1.3072,-0.4704,-0.7754,-0.9118,-0.9189,-0.2868,0.0,0.0,0.0,0.0,0.0,0.0,0.0,0.0,0.0,0.0,0.0,0.0,0.0,0.0,0.0,0.0,0.0,0.0,0.0,0.0,0.0,0.0,0.0,0.0,0.0,0.0,0.0,0.0,0.0,0.0,0.0,0.0,0.0,0.0,0.0,0.0,0.0,0.0,0.0,0.0,0.0,0.0,0.0,0.0,0.0,0.0,0.0,0.0,0.0,0.0,0.0,0.0,0.0,0.0,0.0,0.0,0.0,-1.1619,0.0,0.0,0.0,0.0,0.0,0.0,0.0,0.0,-1.2963,-1.3159,-1.3403,-1.3403,0.0,0.0,0.0,0.0,0.0,-1.3431,-1.3546,-1.3688,-1.381,-1.3973,-1.4143,0.0,0.0,0.0,0.0,0.0,0.0,0.0,0.0,0.0,-1.495,-1.5126,0.0,-1.5635,-1.5947,-1.6239,-1.649,-1.668,0.0,-1.6971,0.0,0.0,0.0,0.0,-1.7087,-1.6956,-1.543,-1.436,-1.4383,-1.44,-0.9683,-0.0,0.0,0.0,0.0,0.0,0.0,0.0,0.0,0.0,0.0,0.0,0.0,0.0,0.0,0.0,0.0,0.0,0.0,0.0,0.0,0.0,0.0,0.0,0.0,0.0,0.0,0.0,0.0,0.0,0.0,0.0,0.0,0.0,0.0,0.0,0.0,0.0,0.0,0.0,0.0,0.0,0.0,0.0,0.0,0.0,0.0,0.0,0.0,0.0,0.0,0.0,0.0,-1.5784,-1.2312,-1.09,0.0,0.0,0.0,0.0,0.0,0.0,0.0,-1.1619,0.0,0.0,0.0,0.0,0.0,0.0,0.0,0.0,-1.2963,-1.3159,-1.3403,-1.3403,0.0,0.0,0.0,0.0,0.0,-1.3559,-1.3702,-1.3817,-1.3838,-1.4055,-1.4272,0.0,0.0,0.0,0.0,0.0,0.0,0.0,0.0,0.0,0.0,0.0,-1.5628,0.0,0.0,-1.6469,0.0,0.0,-1.6951,-1.6978,0.0,0.0,0.0,0.0,-1.6942,-1.6956,-0.7893,-0.2557,-0.2558,-0.2577,-0.1732,-0.0,0.0,0.0,0.0,0.0,0.0,0.0,0.0,0.0,0.0,0.0,0.0,0.0,0.0,0.0,0.0,0.0,0.0,0.0,0.0,0.0,0.0,0.0,0.0,0.0,0.0,0.0,0.0,0.0,0.0,0.0,0.0,0.0,0.0,0.0,0.0,0.0,0.0,0.0,0.0,0.0,0.0,0.0,0.0,0.0,0.0,0.0,0.0,0.0,0.0,0.0,-1.6818,-1.5794,-1.2468,-1.1029,-1.1179,0.0,0.0,0.0,0.0,0.0,0.0,0.0,0.0,0.0,0.0,0.0,0.0,0.0,0.0,0.0,0.0,-1.3159,-1.3403,-1.3403,0.0,0.0,0.0,0.0,0.0,-1.3587,-1.3736,-1.3858,-1.3946,-1.4136,-1.4299,0.0,0.0,0.0,0.0,0.0,0.0,0.0,0.0,0.0,0.0,0.0,0.0,0.0,0.0,0.0,0.0,0.0,0.0,-1.6978,0.0,0.0,0.0,0.0,0.0,-0.8106,-0.277,0.0,0.0,0.0,0.0,0.0,0.0,0.0,0.0,0.0,0.0,0.0,0.0,0.0,0.0,0.0,0.0,0.0,0.0,0.0,0.0,0.0,0.0,0.0,0.0,0.0,0.0,0.0,0.0,0.0,0.0,0.0,0.0,0.0,0.0,0.0,0.0,0.0,0.0,0.0,0.0,0.0,0.0,0.0,0.0,0.0,0.0,0.0,0.0,0.0,0.0,0.0,0.0,-2.1109,-2.1109,-1.9291,-1.7345,-1.5274,-1.2903,-1.1572,0.0,0.0,0.0,0.0,0.0,0.0,0.0,0.0,0.0,0.0,0.0,0.0,0.0,0.0,0.0,0.0,0.0,0.0,0.0,0.0,0.0,0.0,-1.3403,-1.3424,-1.3485,-1.3641,-1.3783,-1.3933,-1.4089,0.0,0.0,0.0,0.0,0.0,0.0,0.0,0.0,0.0,0.0,0.0,0.0,0.0,0.0,0.0,0.0,0.0,0.0,0.0,0.0,0.0,0.0,0.0,0.0,0.0,0.0,-0.0426,0.0,0.0,0.0,0.0,0.0,0.0,0.0,0.0,0.0,0.0,0.0,0.0,0.0,0.0,0.0,0.0,0.0,0.0,0.0,0.0,0.0,0.0,0.0,0.0,0.0,0.0,0.0,0.0,0.0,0.0,0.0,0.0,0.0,0.0,0.0,0.0,0.0,0.0,0.0,0.0,0.0,0.0,0.0,0.0,0.0,0.0,0.0,0.0,0.0,0.0,0.0,0.0,-2.1109,-2.1109,-2.1109,-1.9291,-1.6818,-1.3464,-1.357,-1.2788,-1.1179,0.0,0.0,0.0,0.0,0.0,0.0,0.0,0.0,0.0,0.0,0.0,0.0,0.0,0.0,0.0,0.0,0.0,0.0,0.0,0.0,-1.3403,-1.3403,-1.3498,-1.3641,-1.3783,-1.3939,0.0,0.0,0.0,0.0,0.0,0.0,0.0,0.0,0.0,0.0,0.0,0.0,-1.5432,0.0,0.0,0.0,0.0,0.0,0.0,0.0,0.0,0.0,0.0,0.0,0.0,0.0,0.0,0.0,-0.0,0.0,0.0,0.0,0.0,0.0,0.0,0.0,0.0,0.0,0.0,0.0,0.0,0.0,0.0,0.0,0.0,0.0,0.0,0.0,0.0,0.0,0.0,0.0,0.0,0.0,0.0,0.0,0.0,0.0,0.0,0.0,0.0,0.0,0.0,0.0,0.0,0.0,0.0,0.0,0.0,0.0,0.0,0.0,0.0,0.0,0.0,0.0,0.0,0.0,0.0,-2.1109,-2.1109,-2.1109,-2.1109,-2.1109,-1.8244,-1.6172,-1.4884,-1.303,0.0,0.0,0.0,0.0,0.0,0.0,0.0,0.0,0.0,0.0,0.0,0.0,0.0,0.0,0.0,0.0,0.0,0.0,-1.3275,-1.3403,-1.3403,-1.3403,-1.3403,-1.3403,-1.3512,-1.3661,-1.3804,-1.3953,0.0,0.0,0.0,0.0,0.0,0.0,0.0,0.0,0.0,0.0,0.0,0.0,0.0,0.0,0.0,0.0,0.0,0.0,0.0,0.0,0.0,0.0,0.0,0.0,0.0,0.0,0.0,0.0,0.0,0.0,0.0,0.0,0.0,0.0,0.0,0.0,0.0,0.0,0.0,0.0,0.0,0.0,0.0,0.0,0.0,0.0,0.0,0.0,0.0,0.0,0.0,0.0,0.0,0.0,0.0,0.0,0.0,0.0,0.0,0.0,0.0,0.0,0.0,0.0,0.0,0.0,0.0,0.0,0.0,0.0,0.0,0.0,0.0,0.0,0.0,0.0,0.0,0.0,0.0,-2.1109,-2.1109,-2.1109,-2.1109,-2.1109,-1.8116,-1.6473,-1.5904,0.0,0.0,0.0,0.0,0.0,0.0,0.0,0.0,0.0,-1.1789,-1.1952,0.0,0.0,0.0,0.0,0.0,0.0,0.0,0.0,-1.3315,-1.3403,-1.3403,-1.3403,-1.341,-1.3458,-1.358,-1.3729,-1.3871,-1.4027,-1.417,-1.4272,0.0,0.0,0.0,0.0,0.0,0.0,0.0,0.0,0.0,0.0,0.0,0.0,0.0,0.0,-1.6483,-1.6653,0.0,0.0,0.0,0.0,0.0,0.0,0.0,0.0,0.0,0.0,0.0,0.0,0.0,0.0,0.0,0.0,0.0,0.0,0.0,0.0,0.0,0.0,0.0,0.0,0.0,0.0,0.0,0.0,0.0,0.0,0.0,0.0,0.0,0.0,0.0,0.0,0.0,0.0,0.0,0.0,0.0,0.0,0.0,0.0,0.0,0.0,0.0,0.0,0.0,0.0,0.0,0.0,0.0,0.0,0.0,0.0,0.0,0.0,0.0,0.0,0.0,-2.1109,-2.1109,-2.1109,-2.1109,-2.1109,-1.9291,-1.7596,-1.6125,-1.4467,0.0,0.0,0.0,0.0,0.0,0.0,0.0,-1.183,-1.1837,-1.202,-1.2291,0.0,0.0,0.0,0.0,0.0,0.0,0.0,-1.3403,-1.3403,-1.3403,-1.3403,-1.3431,-1.3587,-1.3729,-1.3871,-1.4027,-1.4183,-1.4299,-1.4299,0.0,0.0,0.0,0.0,0.0,0.0,0.0,0.0,0.0,0.0,0.0,0.0,0.0,0.0,-1.6503,-1.6653,-1.6809,-1.6965,0.0,0.0,0.0,0.0,0.0,0.0,0.0,0.0,0.0,0.0,0.0,0.0,0.0,0.0,0.0,0.0,0.0,0.0,0.0,0.0,0.0,0.0,0.0,0.0,0.0,0.0,0.0,0.0,0.0,0.0,0.0,0.0,0.0,0.0,0.0,0.0,0.0,0.0,0.0,0.0,0.0,0.0,0.0,0.0,0.0,0.0,0.0,0.0,0.0,0.0,0.0,0.0,0.0,0.0,0.0,0.0,0.0,0.0,0.0,0.0,0.0,0.0,-2.1109,-2.1109,-1.817,-1.6581,0.0,0.0,0.0,-1.1396,0.0,0.0,0.0,0.0,0.0,-1.185,-1.2067,-1.221,-1.2298,0.0,0.0,0.0,0.0,0.0,0.0,0.0,0.0,0.0,-1.3403,-1.3403,-1.3431,-1.3587,-1.3729,-1.3871,-1.4027,-1.4183,0.0,0.0,0.0,0.0,0.0,0.0,0.0,0.0,0.0,0.0,0.0,0.0,0.0,0.0,0.0,0.0,-1.6517,-1.6748,-1.6931,-1.6978,-1.6998,0.0,0.0,0.0,0.0,0.0,0.0,0.0,0.0,0.0,0.0,0.0,0.0,0.0,0.0,0.0,0.0,0.0,0.0,0.0,0.0,0.0,0.0,0.0,0.0,0.0,0.0,0.0,0.0,0.0,0.0,0.0,0.0,0.0,0.0,0.0,0.0,0.0,0.0,0.0,0.0,0.0,0.0,0.0,0.0,0.0,0.0,0.0,0.0,0.0,0.0,0.0,0.0,0.0,0.0,0.0,0.0,0.0,0.0,0.0,0.0,-2.1109,-2.1162,0.0,0.0,0.0,0.0,0.0,0.0,-1.1484,0.0,-1.1653,0.0,0.0,-1.1904,-1.2026,-1.2216,-1.2325,-1.2393,0.0,0.0,0.0,0.0,0.0,0.0,0.0,0.0,0.0,-1.3403,-1.3403,-1.3444,-1.3654,-1.3777,-1.3885,-1.4102,0.0,0.0,0.0,0.0,0.0,0.0,0.0,0.0,0.0,0.0,0.0,0.0,0.0,0.0,0.0,0.0,0.0,0.0,-1.6822,-1.6978,-1.6978,-1.7012,-1.6182,0.0,0.0,0.0,0.0,0.0,0.0,0.0,0.0,0.0,0.0,0.0,0.0,0.0,0.0,0.0,0.0,0.0,0.0,0.0,0.0,0.0,0.0,0.0,0.0,0.0,0.0,0.0,0.0,0.0,0.0,0.0,0.0,0.0,0.0,0.0,0.0,0.0,0.0,0.0,0.0,0.0,0.0,0.0,0.0,0.0,0.0,0.0,0.0,0.0,0.0,0.0,0.0,0.0,0.0,0.0,0.0,0.0,0.0,0.0,0.0,0.0,0.0,0.0,0.0,0.0,0.0,-1.3295,-1.1619,0.0,-1.1708,0.0,-1.1864,-1.2033,-1.2291,-1.2305,-1.2393,-1.2535,-1.2678,0.0,0.0,0.0,0.0,0.0,0.0,0.0,0.0,-1.3403,-1.341,-1.3478,-1.3756,-1.3851,-1.3926,-1.4217,0.0,0.0,0.0,0.0,0.0,0.0,0.0,0.0,0.0,0.0,0.0,0.0,0.0,0.0,0.0,0.0,0.0,0.0,-1.6883,-1.6978,-1.6978,-1.7012,-1.4674,0.0,0.0,0.0,0.0,0.0,0.0,0.0,0.0,0.0,0.0,0.0,0.0,0.0,0.0,0.0,0.0,0.0,0.0,0.0,0.0,0.0,0.0,0.0,0.0,0.0,0.0,0.0,0.0,0.0,0.0,0.0,0.0,0.0,0.0,0.0,0.0,0.0,0.0,0.0,0.0,0.0,0.0,0.0,0.0,0.0,0.0,0.0,0.0,0.0,0.0,0.0,0.0,0.0,0.0,0.0,0.0,0.0,0.0,0.0,0.0,0.0,0.0,0.0,0.0,0.0,0.0,0.0,-1.1626,0.0,-1.1803,-1.1843,-1.2088,-1.223,-1.2298,-1.2413,-1.2549,-1.2684,-1.2718,-1.2895,0.0,0.0,0.0,0.0,0.0,0.0,0.0,-1.3403,-1.3485,-1.3614,-1.379,-1.3926,-1.4061,-1.4251,-1.4299,0.0,0.0,0.0,0.0,0.0,0.0,0.0,0.0,0.0,0.0,0.0,0.0,0.0,0.0,0.0,0.0,0.0,-1.6883,-1.6978,-1.6978,-1.7039,-1.4704,-0.9126,0.0,0.0,0.0,0.0,0.0,0.0,0.0,0.0,0.0,0.0,0.0,0.0,0.0,0.0,0.0,0.0,0.0,0.0,0.0,0.0,0.0,0.0,0.0,0.0,0.0,0.0,0.0,0.0,0.0,0.0,0.0,0.0,0.0,0.0,0.0,0.0,0.0,0.0,0.0,0.0,0.0,0.0,0.0,0.0,0.0,0.0,0.0,0.0,0.0,0.0,0.0,0.0,0.0,0.0,0.0,0.0,0.0,0.0,0.0,0.0,0.0,0.0,0.0,0.0,0.0,0.0,-1.1721,0.0,-1.1911,-1.206,-1.2223,-1.2372,-1.2508,-1.2583,-1.2705,-1.2847,-1.2915,-1.3037,-1.318,-1.3254,0.0,0.0,0.0,0.0,0.0,0.0,0.0,-1.3654,-1.3797,-1.3953,-1.4102,-1.4258,0.0,0.0,-1.4679,0.0,0.0,0.0,0.0,0.0,0.0,0.0,0.0,0.0,-1.609,-1.6239,-1.6388,-1.6537,-1.6686,-1.6836,-1.6931,-1.6985,-1.7005,-1.706,-1.5804,-1.2793,0.0,0.0,0.0,0.0,0.0,0.0,0.0,0.0,0.0,0.0,0.0,0.0,0.0,0.0,0.0,0.0,0.0,0.0,0.0,0.0,0.0,0.0,0.0,0.0,0.0,0.0,0.0,0.0,0.0,0.0,0.0,0.0,0.0,0.0,0.0,0.0,0.0,0.0,0.0,0.0,0.0,0.0,0.0,0.0,0.0,0.0,0.0,0.0,0.0,0.0,0.0,0.0,0.0,0.0,0.0,0.0,0.0,-2.1617,-2.167,-2.1134,0.0,0.0,0.0,0.0,0.0,0.0,-1.183,0.0,-1.2054,-1.2291,-1.2345,-1.2508,-1.2732,-1.2759,-1.2861,-1.301,-1.3125,-1.3186,-1.3227,-1.3356,-1.3403,-1.3403,-1.3403,0.0,0.0,0.0,0.0,-1.3688,-1.3804,-1.3966,-1.4136,-1.4265,0.0,-1.4618,-1.4903,-1.5079,0.0,-1.5377,-1.5432,-1.5527,-1.5798,-1.5852,-1.59,-1.6056,-1.6205,-1.6354,-1.6497,-1.6653,-1.6802,-1.6958,-1.6985,-1.6998,-1.7026,-1.708,-1.6915,-1.6956,-0.661,0.0,0.0,0.0,0.0,0.0,0.0,0.0,0.0,0.0,0.0,0.0,0.0,0.0,0.0,0.0,0.0,0.0,0.0,0.0,0.0,0.0,0.0,0.0,0.0,0.0,0.0,0.0,0.0,0.0,0.0,0.0,0.0,0.0,0.0,0.0,0.0,0.0,0.0,0.0,0.0,0.0,0.0,0.0,0.0,0.0,0.0,0.0,0.0,0.0,0.0,0.0,0.0,0.0,0.0,0.0,0.0,-2.1924,-2.2178,-2.2204,0.0,0.0,0.0,0.0,0.0,0.0,-1.1843,0.0,0.0,-1.2311,-1.2562,-1.2698,-1.2745,-1.2874,-1.3017,-1.3146,-1.3166,-1.3254,-1.337,-1.3397,-1.3403,-1.3403,-1.3403,-1.3403,0.0,0.0,0.0,-1.3817,-1.3838,-1.4041,-1.4272,0.0,0.0,-1.4753,0.0,-1.5079,-1.5221,0.0,0.0,-1.5655,0.0,-1.5852,-1.59,-1.6056,-1.6205,-1.6354,-1.6497,-1.6653,-1.6802,-1.6958,-1.7005,-1.7026,-1.7032,-1.6895,-1.6949,-1.6956,-0.661,0.0,0.0,0.0,0.0,0.0,0.0,0.0,0.0,0.0,0.0,0.0,0.0,0.0,0.0,0.0,0.0,0.0,0.0,0.0,0.0,0.0,0.0,0.0,0.0,0.0,0.0,0.0,0.0,0.0,0.0,0.0,0.0,0.0,0.0,0.0,0.0,0.0,0.0,0.0,0.0,0.0,0.0,0.0,0.0,0.0,0.0,0.0,-2.1109,-2.1109,-2.1176,-2.1349,-2.1363,0.0,0.0,0.0,0.0,-2.2218,-2.2352,0.0,0.0,0.0,0.0,0.0,-1.4203,-1.2827,0.0,0.0,0.0,0.0,0.0,0.0,-1.2983,-1.3051,-1.3166,-1.3302,-1.3302,-1.3342,-1.3403,0.0,0.0,-1.3403,-1.3403,-1.3403,-1.3417,-1.3498,0.0,0.0,0.0,-1.4129,-1.4333,-1.4502,-1.4706,-1.4903,0.0,-1.514,-1.5248,-1.5486,-1.5588,-1.5703,-1.5934,-1.5981,-1.6029,-1.6185,-1.6327,-1.6476,-1.6625,-1.6795,-1.6931,-1.6998,-1.7046,-1.708,-1.7107,-1.6936,-1.4562,-0.8106,-0.2983,0.0,0.0,0.0,0.0,0.0,0.0,0.0,0.0,0.0,0.0,0.0,0.0,0.0,0.0,0.0,0.0,0.0,0.0,0.0,0.0,0.0,0.0,0.0,0.0,0.0,0.0,0.0,0.0,0.0,0.0,0.0,0.0,0.0,0.0,0.0,0.0,0.0,0.0,0.0,0.0,0.0,0.0,0.0,0.0,0.0,0.0,0.0,0.0,-2.1176,-2.1349,-2.1643,-2.1657,0.0,0.0,0.0,0.0,-2.2525,0.0,0.0,0.0,0.0,0.0,-1.5585,-1.3372,-1.2332,0.0,-1.24,0.0,0.0,0.0,0.0,0.0,0.0,-1.3302,-1.3403,-1.3403,0.0,-1.3403,-1.3403,0.0,0.0,0.0,0.0,0.0,-1.3593,-1.3749,0.0,0.0,0.0,0.0,0.0,0.0,-1.5004,-1.5147,-1.5181,-1.5262,0.0,0.0,-1.5723,0.0,-1.609,-1.6151,-1.6347,-1.6469,-1.6592,-1.6741,-1.6924,-1.64,-1.5096,-1.6003,-1.6922,-1.6956,-1.4349,-0.939,-0.0853,0.0,0.0,0.0,0.0,0.0,0.0,0.0,0.0,0.0,0.0,0.0,0.0,0.0,0.0,0.0,0.0,0.0,0.0,0.0,0.0,0.0,0.0,0.0,0.0,0.0,0.0,0.0,0.0,0.0,0.0,0.0,0.0,0.0,0.0,0.0,0.0,0.0,0.0,0.0,0.0,0.0,0.0,0.0,0.0,0.0,0.0,-2.1109,-2.1109,-2.1109,-2.1363,-2.1657,-2.1937,-2.1964,-2.2098,-2.2378,-2.2392,0.0,-2.2832,-2.2846,0.0,0.0,0.0,0.0,-1.7912,-1.4073,-1.244,-1.2705,-1.2705,-1.2718,-1.2745,0.0,0.0,0.0,0.0,0.0,0.0,0.0,0.0,0.0,0.0,0.0,0.0,0.0,0.0,0.0,0.0,0.0,0.0,0.0,0.0,0.0,0.0,-1.4855,0.0,-1.5147,-1.5181,-1.5262,0.0,0.0,-1.5723,-1.6022,-1.611,-1.6218,-1.6312,-1.6373,-1.6426,-1.658,-1.6971,-1.5145,-0.9764,-1.3662,-1.6956,-1.6956,-0.7464,-0.0639,-0.0,0.0,0.0,0.0,0.0,0.0,0.0,0.0,0.0,0.0,0.0,0.0,0.0,0.0,0.0,0.0,0.0,0.0,0.0,0.0,0.0,0.0,0.0,0.0,0.0,0.0,0.0,0.0,0.0,0.0,0.0,0.0,0.0,0.0,0.0,0.0,0.0,0.0,0.0,0.0,0.0,0.0,0.0,0.0,0.0,0.0,0.0,-1.7877,-1.8358,-1.9678,-2.0993,-2.1951,-2.2245,-2.2258,-2.2392,-2.2699,-2.2699,-2.2846,-2.3153,-2.3153,0.0,0.0,0.0,-1.735,-1.616,-1.3699,-1.263,-1.2732,-1.2732,-1.2834,-1.3024,-1.3125,0.0,0.0,0.0,0.0,0.0,0.0,0.0,0.0,0.0,0.0,0.0,0.0,0.0,0.0,0.0,0.0,0.0,0.0,0.0,0.0,0.0,0.0,-1.512,-1.5167,-1.5181,-1.5262,-1.5567,-1.5642,-1.5723,-1.6022,-1.611,-1.6225,-1.6326,-1.64,-1.5434,-1.2021,-1.4481,-1.6279,-1.4315,-0.9382,-0.6182,-0.6182,-0.2557,0.0,0.0,0.0,0.0,0.0,0.0,0.0,0.0,0.0,0.0,0.0,0.0,0.0,0.0,0.0,0.0,0.0,0.0,0.0,0.0,0.0,0.0,0.0,0.0,0.0,0.0,0.0,0.0,0.0,0.0,0.0,0.0,0.0,0.0,0.0,0.0,0.0,0.0,0.0,0.0,0.0,0.0,0.0,0.0,0.0,0.0,0.0,0.0,0.0,-1.6788,-1.8206,-1.9444,-2.0368,-2.0735,-2.0759,-2.1158,-2.2153,-2.2166,-2.2256,-2.2448,-2.2269,0.0,0.0,0.0,0.0,0.0,0.0,-1.2786,-1.2881,-1.2881,0.0,0.0,0.0,0.0,-1.3403,0.0,0.0,-1.3403,0.0,0.0,0.0,0.0,0.0,0.0,0.0,0.0,0.0,0.0,0.0,0.0,0.0,0.0,0.0,-1.4801,0.0,0.0,-1.5181,-1.5221,-1.5323,-1.5581,-1.5676,-1.5784,-1.6049,-1.613,-1.6051,-1.6359,-1.6247,-1.5295,-1.1897,-1.1307,-1.1325,-1.1325,-0.4689,0.0,0.0,0.0,0.0,0.0,0.0,0.0,0.0,0.0,0.0,0.0,0.0,0.0,0.0,0.0,0.0,0.0,0.0,0.0,0.0,0.0,0.0,0.0,0.0,0.0,0.0,0.0,0.0,0.0,0.0,0.0,0.0,0.0,0.0,0.0,0.0,0.0,0.0,0.0,0.0,0.0,0.0,0.0,0.0,0.0,0.0,0.0,0.0,0.0,0.0,0.0,0.0,0.0,-1.6766,-1.6786,-1.6977,-1.7408,-1.7438,-1.8401,-2.0526,-2.0682,-2.0682,-2.0549,-2.0345,-1.9457,0.0,0.0,0.0,0.0,0.0,-1.2895,0.0,-1.318,-1.318,-1.3186,0.0,-1.3403,-1.3403,0.0,-1.3403,-1.3424,0.0,0.0,0.0,-1.3797,-1.3844,0.0,0.0,0.0,0.0,0.0,0.0,0.0,0.0,0.0,0.0,0.0,0.0,0.0,-1.5181,-1.5296,-1.5452,-1.5601,-1.575,-1.5906,-1.6096,-1.5964,-1.5896,-1.6014,-1.5899,-1.58,-1.6478,-0.7252,0.0,0.0,0.0,0.0,0.0,0.0,0.0,0.0,0.0,0.0,0.0,0.0,0.0,0.0,0.0,0.0,0.0,0.0,0.0,0.0,0.0,0.0,0.0,0.0,0.0,0.0,0.0,0.0,0.0,0.0,0.0,0.0,0.0,0.0,0.0,0.0,0.0,0.0,0.0,0.0,0.0,0.0,0.0,0.0,0.0,0.0,0.0,0.0,0.0,0.0,0.0,0.0,0.0,0.0,0.0,0.0,-1.5248,-1.6539,-1.7539,-1.7669,-1.7669,-1.7844,-1.8487,-1.8498,-1.8571,-1.8885,-1.8759,-1.7912,0.0,0.0,0.0,0.0,0.0,0.0,0.0,-1.3288,-1.3336,-1.3342,-1.3383,0.0,0.0,-1.3403,-1.3464,0.0,0.0,0.0,0.0,0.0,-1.4007,-1.4027,0.0,-1.4204,-1.4238,0.0,0.0,0.0,0.0,0.0,0.0,-1.493,0.0,0.0,0.0,0.0,0.0,-1.5601,-1.575,-1.5906,-1.6096,-1.289,-1.1359,-1.5384,-0.9776,-0.4597,-0.4676,-0.2131,0.0,0.0,0.0,0.0,0.0,0.0,0.0,0.0,0.0,0.0,0.0,0.0,0.0,0.0,0.0,0.0,0.0,0.0,0.0,0.0,0.0,0.0,0.0,0.0,0.0,0.0,0.0,0.0,0.0,0.0,0.0,0.0,0.0,0.0,0.0,0.0,0.0,0.0,0.0,0.0,0.0,0.0,0.0,0.0,0.0,0.0,0.0,0.0,0.0,0.0,0.0,0.0,0.0,0.0,0.0,0.0,-1.3668,-1.4637,-1.5319,-1.5397,-1.5475,-1.6002,-1.6833,-1.6907,-1.7009,-1.7283,-1.7114,-1.6168,-1.4703,0.0,0.0,0.0,0.0,0.0,0.0,0.0,0.0,0.0,0.0,0.0,0.0,-1.3498,0.0,0.0,-1.379,-1.3865,0.0,0.0,0.0,-1.4183,-1.4272,-1.434,0.0,0.0,0.0,0.0,0.0,0.0,0.0,0.0,0.0,0.0,0.0,0.0,0.0,-1.5615,-1.5798,-1.5988,-1.613,-1.1879,-0.9714,-1.5115,-0.7256,0.0,0.0,0.0,0.0,0.0,0.0,0.0,0.0,0.0,0.0,0.0,0.0,0.0,0.0,0.0,0.0,0.0,0.0,0.0,0.0,0.0,0.0,0.0,0.0,0.0,0.0,0.0,0.0,0.0,0.0,0.0,0.0,0.0,0.0,0.0,0.0,0.0,0.0,0.0,0.0,0.0,0.0,0.0,0.0,0.0,0.0,0.0,0.0,0.0,0.0,0.0,0.0,0.0,0.0,0.0,0.0,0.0,0.0,0.0,0.0,-1.2142,-1.2223,-1.2359,-1.2481,-1.3382,-1.5384,-1.554,-1.5622,-1.5622,-1.531,-1.4548,-1.2983,0.0,0.0,0.0,0.0,0.0,0.0,0.0,0.0,0.0,0.0,0.0,-1.3654,-1.3654,-1.3736,0.0,0.0,-1.4082,0.0,-1.4258,-1.4306,-1.4312,-1.4326,-1.4428,0.0,0.0,0.0,0.0,0.0,-1.497,0.0,0.0,0.0,0.0,0.0,0.0,0.0,-1.5642,-1.5872,-1.6103,-1.6178,-1.1889,-0.9697,-1.4404,-0.7435,-0.0624,-0.0,0.0,0.0,0.0,0.0,0.0,0.0,0.0,0.0,0.0,0.0,0.0,0.0,0.0,0.0,0.0,0.0,0.0,0.0,0.0,0.0,0.0,0.0,0.0,0.0,0.0,0.0,0.0,0.0,0.0,0.0,0.0,0.0,0.0,0.0,0.0,0.0,0.0,0.0,0.0,0.0,0.0,0.0,-1.0717,0.0,0.0,0.0,0.0,0.0,0.0,0.0,0.0,0.0,0.0,0.0,0.0,0.0,0.0,0.0,-1.2644,-1.28,-1.2827,-1.2854,-1.304,-1.3547,-1.3575,-1.3589,-1.3589,-1.3532,-1.3429,-1.3132,0.0,0.0,0.0,0.0,0.0,0.0,0.0,0.0,0.0,0.0,0.0,-1.3797,-1.3797,0.0,-1.4027,-1.4061,-1.4163,-1.4299,-1.4333,-1.436,-1.4394,0.0,-1.4611,-1.4544,0.0,0.0,0.0,0.0,0.0,0.0,0.0,0.0,0.0,0.0,0.0,0.0,-1.5642,-1.5872,-1.6096,-1.6137,-1.2873,-1.007,-0.9584,-0.777,-0.4935,-0.0628,0.0,0.0,0.0,0.0,0.0,0.0,0.0,0.0,0.0,0.0,0.0,0.0,0.0,0.0,0.0,0.0,0.0,0.0,0.0,0.0,0.0,0.0,0.0,0.0,0.0,0.0,0.0,0.0,0.0,0.0,0.0,0.0,0.0,0.0,0.0,0.0,0.0,0.0,0.0,0.0,0.0,0.0,-1.0941,0.0,0.0,0.0,0.0,0.0,0.0,0.0,0.0,0.0,0.0,0.0,0.0,0.0,0.0,0.0,0.0,0.0,0.0,0.0,-1.3064,-1.3064,-1.3139,-1.318,-1.318,-1.318,-1.3214,-1.3288,0.0,0.0,0.0,0.0,0.0,0.0,0.0,0.0,0.0,0.0,-1.3817,-1.3953,-1.3953,0.0,-1.419,-1.4204,-1.4272,-1.3998,-1.1525,-1.0685,-1.0745,-1.079,-1.2546,0.0,0.0,-1.4916,-1.4977,0.0,-1.5079,-1.5092,0.0,0.0,0.0,-1.5276,0.0,0.0,0.0,-1.592,-1.609,-1.6123,-1.4694,-1.3095,-1.2171,-1.2024,-1.107,-0.8476,-0.3543,0.0,0.0,0.0,0.0,0.0,0.0,0.0,0.0,0.0,0.0,0.0,0.0,0.0,0.0,0.0,0.0,0.0,0.0,0.0,0.0,0.0,0.0,0.0,0.0,0.0,0.0,0.0,0.0,0.0,0.0,0.0,0.0,0.0,0.0,0.0,0.0,0.0,0.0,0.0,0.0,0.0,-1.1172,0.0,0.0,0.0,0.0,0.0,0.0,0.0,0.0,0.0,0.0,0.0,0.0,0.0,0.0,0.0,0.0,0.0,0.0,0.0,-1.3214,-1.3214,-1.3336,-1.3403,-1.3403,-1.3403,-1.3403,-1.3403,0.0,0.0,0.0,0.0,0.0,0.0,0.0,0.0,0.0,0.0,0.0,-1.4075,0.0,-1.4204,-1.4346,-1.438,-1.3687,-1.2264,-0.7446,-0.5686,-0.5734,-0.5731,0.0,-1.3734,-1.4686,-1.512,0.0,0.0,0.0,0.0,0.0,0.0,0.0,0.0,0.0,-1.571,0.0,0.0,0.0,-1.6117,-1.6123,-1.6137,-1.6171,-1.6078,-1.6152,-1.5923,-0.866,-0.2708,-0.1876,-0.0632,0.0,0.0,0.0,0.0,0.0,0.0,0.0,0.0,0.0,0.0,0.0,0.0,0.0,0.0,0.0,0.0,0.0,0.0,0.0,0.0,0.0,0.0,0.0,0.0,0.0,0.0,0.0,0.0,0.0,0.0,0.0,0.0,0.0,0.0,0.0,0.0,0.0,0.0,-1.1212,-1.1274,0.0,0.0,0.0,0.0,0.0,0.0,0.0,0.0,0.0,0.0,0.0,0.0,0.0,0.0,0.0,0.0,-1.3349,0.0,0.0,-1.3376,-1.339,-1.3403,-1.3403,-1.3403,-1.3403,-1.3403,0.0,0.0,0.0,0.0,0.0,0.0,-1.3546,0.0,0.0,0.0,-1.4055,0.0,-1.4217,-1.436,0.0,-1.435,-1.1677,-0.7344,-0.2581,-0.0744,-0.075,0.0,-0.4134,-0.929,0.0,-1.5208,-1.5181,0.0,0.0,0.0,0.0,0.0,0.0,0.0,-1.5622,0.0,0.0,0.0,-1.6083,-1.609,0.0,-1.609,-1.6096,0.0,0.0,-1.5592,-1.4787,-1.269,-0.8181,-0.3113,0.0,0.0,0.0,0.0,0.0,0.0,0.0,0.0,0.0,0.0,0.0,0.0,0.0,0.0,0.0,0.0,0.0,0.0,0.0,0.0,0.0,0.0,0.0,0.0,0.0,0.0,0.0,0.0,0.0,0.0,0.0,0.0,0.0,0.0,0.0,0.0,0.0,0.0,-1.1592,0.0,0.0,0.0,0.0,-1.1965,0.0,0.0,0.0,0.0,0.0,0.0,0.0,0.0,0.0,0.0,0.0,-1.3403,0.0,0.0,0.0,-1.3403,-1.3403,-1.3403,-1.3403,-1.3403,-1.3403,-1.3403,-1.3403,0.0,0.0,0.0,0.0,0.0,-1.3688,0.0,-1.3892,0.0,-1.417,0.0,0.0,0.0,0.0,-1.4658,-0.9743,-0.2795,-0.0747,0.0,0.0,0.0,-0.1332,0.0,0.0,0.0,0.0,0.0,0.0,0.0,0.0,0.0,0.0,0.0,0.0,0.0,-1.5967,0.0,-1.6083,0.0,0.0,0.0,0.0,0.0,0.0,0.0,-1.5797,-1.512,-1.3267,-1.1217,-0.7378,-0.085,0.0,0.0,0.0,0.0,0.0,0.0,0.0,0.0,0.0,0.0,0.0,0.0,0.0,0.0,0.0,0.0,0.0,0.0,0.0,0.0,0.0,0.0,0.0,0.0,0.0,0.0,0.0,0.0,0.0,0.0,0.0,0.0,0.0,0.0,0.0,0.0,-1.1972,0.0,0.0,0.0,0.0,0.0,0.0,0.0,0.0,0.0,0.0,0.0,-1.3227,-1.3336,0.0,0.0,0.0,-1.3403,0.0,0.0,-1.3444,0.0,0.0,0.0,0.0,-1.3403,-1.3403,-1.3403,-1.3444,0.0,0.0,0.0,0.0,0.0,0.0,-1.3966,-1.4075,0.0,-1.4285,-1.435,-1.4383,-1.4401,-1.4659,-1.4889,-0.8575,0.0,0.0,0.0,0.0,0.0,0.0,0.0,-0.8661,0.0,0.0,0.0,0.0,0.0,-1.5655,0.0,0.0,0.0,0.0,0.0,0.0,0.0,0.0,0.0,0.0,0.0,0.0,0.0,0.0,0.0,0.0,-1.5655,-1.6024,-1.6544,-1.3225,-0.3381,-0.0849,0.0,0.0,0.0,0.0,0.0,0.0,0.0,0.0,0.0,0.0,0.0,0.0,0.0,0.0,0.0,0.0,0.0,0.0,0.0,0.0,0.0,0.0,0.0,0.0,0.0,0.0,0.0,0.0,0.0,0.0,0.0,0.0,0.0,0.0,0.0,-1.225,-1.2155,0.0,0.0,0.0,0.0,0.0,0.0,0.0,0.0,0.0,0.0,0.0,0.0,0.0,0.0,0.0,-1.3403,-1.3403,0.0,-1.3553,0.0,0.0,-1.3553,0.0,0.0,-1.3403,-1.3403,0.0,0.0,0.0,0.0,0.0,0.0,0.0,-1.4068,-1.4082,-1.4231,-1.4222,-1.439,-1.4216,-1.4245,-1.4384,0.0,-0.8778,0.0,0.0,0.0,0.0,0.0,0.0,0.0,0.0,0.0,0.0,0.0,0.0,0.0,0.0,0.0,0.0,-1.5866,0.0,0.0,0.0,0.0,-1.6083,0.0,0.0,0.0,0.0,0.0,0.0,0.0,0.0,0.0,0.0,-1.5957,-1.42,-0.8778,-0.3378,0.0,0.0,0.0,0.0,0.0,0.0,0.0,0.0,0.0,0.0,0.0,0.0,0.0,0.0,0.0,0.0,0.0,0.0,0.0,0.0,0.0,0.0,0.0,0.0,0.0,0.0,0.0,0.0,0.0,0.0,0.0,0.0,0.0,0.0,0.0,0.0,0.0,0.0,0.0,0.0,0.0,0.0,-1.3098,0.0,0.0,0.0,0.0,0.0,0.0,-1.3403,0.0,0.0,-1.3553,-1.3553,-1.3688,0.0,0.0,0.0,-1.3743,0.0,0.0,0.0,0.0,0.0,0.0,0.0,0.0,0.0,0.0,0.0,-1.4224,0.0,0.0,0.0,0.0,0.0,-1.4663,-1.3698,0.0,0.0,0.0,0.0,0.0,0.0,0.0,0.0,0.0,0.0,-0.1185,-0.2984,-0.4749,-0.7738,0.0,0.0,0.0,-1.6096,-1.6049,0.0,0.0,0.0,0.0,0.0,0.0,0.0,0.0,0.0,0.0,0.0,0.0,0.0,0.0,0.0,-1.6225,-1.5667,-1.4302,-0.5717,0.0,0.0,0.0,0.0,0.0,0.0,0.0,0.0,0.0,0.0,0.0,0.0,0.0,0.0,0.0,0.0,0.0,0.0,0.0,0.0,0.0,0.0,0.0,0.0,0.0,0.0,0.0,0.0,0.0,0.0,0.0,0.0,0.0,0.0,0.0,-1.2963,0.0,0.0,0.0,0.0,0.0,0.0,0.0,0.0,0.0,-1.3403,0.0,-1.3478,0.0,-1.3505,0.0,-1.3648,-1.3702,-1.3702,-1.3844,0.0,-1.3844,-1.3892,0.0,0.0,0.0,0.0,0.0,0.0,-1.3926,0.0,0.0,0.0,0.0,0.0,-1.4326,-1.438,-1.4475,-1.4477,0.0,0.0,-1.2735,0.0,0.0,0.0,0.0,0.0,0.0,0.0,0.0,0.0,0.0,0.0,0.0,0.0,0.0,-0.2405,-0.5231,-0.5226,-0.7647,0.0,-1.2684,-1.4719,0.0,-1.613,0.0,0.0,0.0,0.0,0.0,0.0,0.0,0.0,0.0,0.0,0.0,0.0,-1.6266,-1.5851,-1.5075,-0.971,-0.446,-0.0426,0.0,0.0,0.0,0.0,0.0,0.0,0.0,0.0,0.0,0.0,0.0,0.0,0.0,0.0,0.0,0.0,0.0,0.0,0.0,0.0,0.0,0.0,0.0,0.0,0.0,0.0,0.0,0.0,0.0,0.0,0.0,0.0,0.0,0.0,0.0,0.0,0.0,-1.3098,0.0,0.0,0.0,-1.3403,0.0,-1.341,-1.3471,-1.3627,-1.3641,-1.3695,-1.3838,-1.3851,0.0,-1.3858,-1.4,0.0,0.0,-1.4007,-1.4014,-1.3865,0.0,0.0,0.0,0.0,0.0,0.0,0.0,0.0,0.0,-1.4306,0.0,-1.4516,-1.4529,-1.4571,-1.4739,-1.4564,-0.8672,0.0,0.0,0.0,0.0,0.0,0.0,0.0,0.0,0.0,0.0,0.0,0.0,0.0,0.0,0.0,0.0,0.0,0.0,-0.1208,-0.6238,0.0,0.0,0.0,0.0,-1.561,0.0,0.0,0.0,0.0,0.0,0.0,0.0,0.0,0.0,0.0,-1.6058,-1.4954,-1.1544,-1.466,-1.2485,-0.1064,0.0,0.0,0.0,0.0,0.0,0.0,0.0,0.0,0.0,0.0,0.0,0.0,0.0,0.0,0.0,0.0,0.0,0.0,0.0,0.0,0.0,0.0,0.0,0.0,0.0,0.0,0.0,0.0,0.0,0.0,0.0,0.0,0.0,-1.3302,-1.3336,-1.337,0.0,-1.3336,-1.3356,0.0,0.0,0.0,0.0,-1.3573,-1.3634,-1.3633,-1.3653,-1.368,-1.3747,-1.3847,0.0,0.0,0.0,0.0,-1.4224,-1.4238,-1.4224,-1.4183,-1.4183,0.0,-1.4183,0.0,0.0,-1.4245,0.0,0.0,0.0,0.0,-1.4496,-1.439,-1.4611,-1.4919,-1.4476,-0.6942,-0.2339,0.0,0.0,0.0,0.0,0.0,0.0,0.0,0.0,0.0,0.0,0.0,0.0,0.0,0.0,0.0,0.0,0.0,0.0,-0.0412,-0.1643,-0.3079,-0.5134,0.0,0.0,0.0,0.0,0.0,0.0,0.0,0.0,0.0,0.0,0.0,0.0,0.0,0.0,0.0,-1.4953,-1.6099,-1.2604,-0.1062,0.0,0.0,0.0,0.0,0.0,0.0,0.0,0.0,0.0,0.0,0.0,0.0,0.0,0.0,0.0,0.0,0.0,0.0,0.0,0.0,0.0,0.0,0.0,0.0,0.0,0.0,0.0,0.0,0.0,0.0,0.0,0.0,0.0,-1.0893,0.0,0.0,-1.0813,0.0,0.0,-1.303,0.0,0.0,-1.3552,-1.3573,0.0,-1.38,-1.1877,-1.0672,-1.092,-1.0807,0.0,-1.0838,0.0,0.0,-1.4196,-1.4353,-1.4373,-1.4263,-1.4428,0.0,-1.4242,0.0,0.0,-1.4299,0.0,0.0,-1.4401,-1.4563,-1.4504,-1.4611,-1.4932,-1.5194,-1.4404,-0.4083,0.0,0.0,0.0,0.0,0.0,0.0,0.0,0.0,0.0,0.0,0.0,0.0,0.0,0.0,0.0,0.0,0.0,0.0,0.0,0.0,0.0,0.0,-0.0829,-0.3727,-0.4554,-0.4554,0.0,0.0,0.0,0.0,0.0,0.0,0.0,0.0,0.0,0.0,0.0,0.0,0.0,-1.6379,-1.4121,-0.8083,-0.2981,0.0,0.0,0.0,0.0,0.0,0.0,0.0,0.0,0.0,0.0,0.0,0.0,0.0,0.0,0.0,0.0,0.0,0.0,0.0,0.0,0.0,0.0,0.0,0.0,0.0,0.0,0.0,0.0,0.0,0.0,0.0,0.0,0.0,0.0,0.0,0.0,0.0,0.0,0.0,-1.2702,0.0,-1.3561,0.0,-1.382,-1.4001,-1.0264,-0.7279,-0.6276,0.0,-0.6102,-0.6102,-0.6099,-0.8083,-1.2264,-1.2997,-1.3418,-1.3356,-1.3506,0.0,0.0,0.0,0.0,-1.436,-1.4496,-1.455,-1.4557,-1.4557,-1.4738,-1.4926,-1.3686,-1.3234,-1.2487,-0.3527,0.0,0.0,0.0,0.0,0.0,0.0,0.0,0.0,0.0,0.0,0.0,0.0,0.0,0.0,0.0,0.0,0.0,0.0,0.0,0.0,0.0,0.0,0.0,0.0,0.0,0.0,0.0,0.0,0.0,0.0,0.0,0.0,0.0,0.0,0.0,0.0,0.0,0.0,0.0,0.0,0.0,-1.6949,-0.661,0.0,0.0,0.0,0.0,0.0,0.0,0.0,0.0,0.0,0.0,0.0,0.0,0.0,0.0,0.0,0.0,0.0,0.0,0.0,0.0,0.0,0.0,0.0,0.0,0.0,0.0,0.0,0.0,0.0,0.0,0.0,0.0,0.0,0.0,0.0,0.0,0.0,-0.6966,-0.7739,-0.7838,-0.9375,-1.321,-1.3766,-1.3885,-1.4183,-1.3481,-0.9848,-0.1838,-0.1288,0.0,0.0,0.0,0.0,-0.2386,-0.6238,-0.8449,-0.8282,-0.8461,-1.049,0.0,0.0,0.0,-1.4665,0.0,-1.4408,-1.4564,-1.4567,-1.4811,-1.4508,-0.6183,0.0,-0.2577,-0.0794,0.0,0.0,0.0,0.0,0.0,0.0,0.0,0.0,0.0,0.0,0.0,0.0,0.0,0.0,0.0,0.0,0.0,0.0,0.0,0.0,0.0,0.0,0.0,0.0,0.0,0.0,0.0,0.0,0.0,0.0,0.0,0.0,0.0,0.0,0.0,0.0,0.0,0.0,0.0,0.0,-1.6367,-1.6982,-0.6615,0.0,0.0,0.0,0.0,0.0,0.0,0.0,0.0,0.0,0.0,0.0,0.0,0.0,0.0,0.0,0.0,0.0,0.0,0.0,0.0,0.0,0.0,0.0,0.0,0.0,0.0,0.0,0.0,0.0,0.0,0.0,0.0,0.0,0.0,0.0,0.0,0.0,0.0,0.0,-0.3205,0.0,-0.6264,-1.0962,-1.4163,-1.4218,-0.9949,-0.4974,-0.037,0.0,0.0,0.0,0.0,0.0,0.0,-0.2217,0.0,-0.3351,-0.3346,-0.4642,-0.7243,0.0,0.0,0.0,0.0,0.0,-1.0791,-1.367,-1.2112,0.0,0.0,0.0,0.0,0.0,0.0,0.0,0.0,0.0,0.0,0.0,0.0,0.0,0.0,0.0,0.0,0.0,0.0,0.0,0.0,0.0,0.0,0.0,0.0,0.0,0.0,0.0,0.0,0.0,0.0,0.0,0.0,0.0,0.0,0.0,0.0,0.0,0.0,0.0,0.0,0.0,0.0,0.0,0.0,0.0,0.0,0.0,-0.8539,-0.6397,-0.0426,0.0,0.0,0.0,0.0,0.0,0.0,0.0,0.0,0.0,0.0,0.0,0.0,0.0,0.0,0.0,0.0,0.0,0.0,0.0,0.0,0.0,0.0,0.0,0.0,0.0,0.0,0.0,0.0,0.0,0.0,0.0,-0.578,0.0,0.0,-0.4631,0.0,0.0,0.0,0.0,0.0,-0.6574,-1.1242,-1.1171,-0.4459,0.0,0.0,0.0,0.0,0.0,0.0,0.0,0.0,0.0,0.0,0.0,0.0,0.0,0.0,0.0,0.0,0.0,0.0,0.0,0.0,0.0,0.0,0.0,0.0,0.0,0.0,0.0,0.0,0.0,0.0,0.0,0.0,0.0,0.0,0.0,0.0,0.0,0.0,0.0,0.0,0.0,0.0,0.0,0.0,0.0,0.0,0.0,0.0,0.0,0.0,0.0,0.0,0.0,0.0,0.0,0.0,0.0,0.0,0.0,0.0,0.0,0.0,0.0,0.0,0.0,0.0,0.0,0.0,-0.0853,-1.0253,-1.3274,-0.4265,0.0,0.0,0.0,0.0,0.0,0.0,0.0,0.0,0.0,0.0,0.0,0.0,0.0,0.0,0.0,0.0,0.0,0.0,0.0,0.0,0.0,0.0,0.0,0.0,0.0,0.0,0.0,0.0,0.0,0.0,0.0,0.0,0.0,0.0,0.0,0.0,0.0,0.0,0.0,0.0,-0.0735,-0.1299,-0.1313,-0.0563,0.0,0.0,0.0,0.0,0.0,0.0,0.0,0.0,0.0,0.0,0.0,0.0,0.0,0.0,0.0,0.0,0.0,0.0,0.0,0.0,0.0,0.0,0.0,0.0,0.0,0.0,0.0,0.0,0.0,0.0,0.0,0.0,0.0,0.0,0.0,0.0,0.0,0.0,0.0,0.0,0.0,0.0,0.0,0.0,0.0,0.0,0.0,0.0,0.0,0.0,0.0,0.0,0.0,0.0,0.0,0.0,0.0,0.0,0.0,0.0,0.0,0.0,0.0,0.0,0.0,0.0,0.0,0.0,-0.0,-1.0265,-1.6563,-1.5472,-0.5751,0.0,0.0,0.0,0.0,0.0,0.0,0.0,0.0,0.0,0.0,0.0,0.0,0.0,0.0,0.0,0.0,0.0,0.0,0.0,0.0,0.0,0.0,0.0,0.0,0.0,0.0,0.0,0.0,0.0,0.0,0.0,0.0,0.0,0.0,0.0,0.0,0.0,0.0,0.0,0.0,0.0,0.0,0.0,0.0,0.0,0.0,0.0,0.0,0.0,0.0,0.0,0.0,0.0,0.0,0.0,0.0,0.0,0.0,0.0,0.0,0.0,0.0,0.0,0.0,0.0,0.0,0.0,0.0,0.0,0.0,0.0,0.0,0.0,0.0,0.0,0.0,0.0,0.0,0.0,0.0,0.0,0.0,0.0,0.0,0.0,0.0,0.0,0.0,0.0,0.0,0.0,0.0,0.0,0.0,0.0,0.0,0.0,0.0,0.0,0.0,0.0,0.0,0.0,0.0,0.0,0.0,0.0,0.0,0.0,0.0,0.0,0.0,-0.4048,-0.961,-1.6563,0.0,0.0,0.0,0.0,0.0,0.0,0.0,0.0,0.0,0.0,0.0,0.0,0.0,0.0,0.0,0.0,0.0,0.0,0.0,0.0,0.0,0.0,0.0,0.0,0.0,0.0,0.0,0.0,0.0,0.0,0.0,0.0,0.0,0.0,0.0,0.0,0.0,0.0,0.0,0.0,0.0,0.0,0.0,0.0,0.0,0.0,0.0,0.0,0.0,0.0,0.0,0.0,0.0,0.0,0.0,0.0,0.0,0.0,0.0,0.0,0.0,0.0,0.0,0.0,0.0,0.0,0.0,0.0,0.0,0.0,0.0,0.0,0.0,0.0,0.0,0.0,0.0,0.0,0.0,0.0,0.0,0.0,0.0,0.0,0.0,0.0,0.0,0.0,0.0,0.0,0.0,0.0,0.0,0.0,0.0,0.0,0.0,0.0,0.0,0.0,0.0,0.0,0.0,0.0,0.0,0.0,0.0,0.0,0.0,0.0,0.0,0.0,0.0,0.0,-0.3407,-1.1348,0.0,0.0,0.0,0.0,0.0,0.0,0.0,0.0,0.0,0.0,0.0,0.0,0.0,0.0,0.0,0.0,0.0,0.0,0.0,0.0,0.0,0.0,0.0,0.0,0.0,0.0,0.0,0.0,0.0,0.0,0.0,0.0,0.0,0.0,0.0,0.0,0.0,0.0,0.0,0.0,0.0,0.0,0.0,0.0,0.0,0.0,0.0,0.0,0.0,0.0,0.0,0.0,0.0,0.0,0.0,0.0,0.0,0.0,0.0,0.0,0.0,0.0,0.0,0.0,0.0,0.0,0.0,0.0,0.0,0.0,0.0,0.0,0.0,0.0,0.0,0.0,0.0,0.0,0.0,0.0,0.0,0.0,0.0,0.0,0.0,0.0,0.0,0.0,0.0,0.0,0.0,0.0,0.0,0.0,0.0,0.0,0.0,0.0,0.0,0.0,0.0,0.0,0.0,0.0,0.0,0.0,0.0,0.0,0.0,0.0,0.0,0.0,0.0,0.0,-0.0,0.0,0.0,0.0,0.0,0.0,0.0,0.0,0.0,0.0,0.0,0.0,0.0,0.0,0.0,0.0,0.0,0.0,0.0,0.0,0.0,0.0,0.0,0.0,0.0,0.0,0.0,0.0,0.0,0.0,0.0,0.0,0.0,0.0,0.0,0.0,0.0,0.0,0.0,0.0,0.0,0.0,0.0,0.0,0.0,0.0,0.0,0.0,0.0,0.0,0.0,0.0,0.0,0.0,0.0,0.0,0.0,0.0,0.0,0.0,0.0,0.0,0.0,0.0,0.0,0.0,0.0,0.0,0.0,0.0,0.0,0.0,0.0,0.0,0.0,0.0,0.0,0.0,0.0,0.0,0.0,0.0,0.0,0.0,0.0,0.0,0.0,0.0,0.0,0.0,0.0,0.0,0.0,0.0,0.0,0.0,0.0,0.0,0.0,0.0,0.0,0.0,0.0,0.0,0.0,0.0,0.0,0.0,0.0,0.0,0.0,0.0,0.0,0.0,0.0,0.0,0.0,0.0,0.0,0.0,0.0,0.0,0.0,0.0,0.0,0.0,0.0,0.0,0.0,0.0,0.0,0.0,0.0,0.0,0.0,0.0,0.0,0.0,0.0,0.0,0.0,0.0,0.0,0.0,0.0,0.0,0.0,0.0,0.0,0.0,0.0,0.0,0.0,0.0,0.0,0.0,0.0,0.0,0.0,0.0,0.0,0.0,0.0,0.0,0.0,0.0,0.0,0.0,0.0,0.0,0.0,0.0,0.0,0.0,0.0,0.0,0.0,0.0,0.0,0.0,0.0,0.0,0.0,0.0,0.0,0.0,0.0,0.0,0.0,0.0,0.0,0.0,0.0,0.0,0.0,0.0,0.0,0.0,0.0,0.0,0.0,0.0,0.0,0.0,0.0,0.0,0.0,0.0,0.0,0.0,0.0,0.0,0.0,0.0,0.0,0.0,0.0,0.0,0.0,0.0,0.0,0.0,0.0,0.0,0.0,0.0,0.0,0.0,0.0,0.0,0.0,0.0,0.0,0.0,0.0,0.0,0.0,0.0,0.0,0.0,0.0,0.0,0.0,0.0,0.0,0.0,0.0,0.0,0.0,0.0,0.0,0.0,0.0,0.0,0.0,0.0,0.0,0.0,0.0,0.0,0.0,0.0,0.0,0.0,0.0,0.0,0.0,0.0,0.0,0.0,0.0,0.0,0.0,0.0,0.0,0.0,0.0,0.0,0.0,0.0,0.0,0.0,0.0,0.0,0.0,0.0,0.0,0.0,0.0,0.0,0.0,0.0,0.0,0.0,0.0,0.0,0.0,0.0,0.0,0.0,0.0,0.0,0.0,0.0,0.0,0.0,0.0,0.0,0.0,0.0,0.0,0.0,0.0,0.0,0.0,0.0,0.0,0.0,0.0,0.0,0.0,0.0,0.0,0.0,0.0,0.0,0.0,0.0,0.0,0.0,0.0,0.0,0.0,0.0,0.0,0.0,0.0,0.0,0.0,0.0,0.0,0.0,0.0,0.0,0.0,0.0,0.0,0.0,0.0,0.0,0.0,0.0,0.0,0.0,-0.0853,-0.0,0.0,0.0,0.0,0.0,0.0,0.0,0.0,0.0,0.0,0.0,0.0,0.0,0.0,0.0,0.0,0.0,0.0,0.0,0.0,0.0,0.0,0.0,0.0,0.0,0.0,0.0,0.0,0.0,0.0,0.0,0.0,0.0,0.0,0.0,0.0,0.0,0.0,0.0,0.0,0.0,0.0,0.0,0.0,0.0,0.0,0.0,0.0,0.0,0.0,0.0,0.0,0.0,0.0,0.0,0.0,0.0,0.0,0.0,0.0,0.0,0.0,0.0,0.0,0.0,0.0,0.0,0.0,0.0,0.0,0.0,0.0,0.0,0.0,0.0,0.0,0.0,0.0,0.0,0.0,0.0,0.0,0.0,0.0,0.0,0.0,0.0,0.0,0.0,0.0,0.0,0.0,0.0,0.0,0.0,0.0,0.0,0.0,0.0,0.0,0.0,0.0,0.0,0.0,0.0,0.0,0.0,0.0,0.0,0.0,0.0,0.0,0.0,0.0,-0.8586,-0.9483,-0.0215,0.0,0.0,0.0,0.0,0.0,0.0,0.0,0.0,0.0,0.0,0.0,0.0,0.0,0.0,0.0,0.0,0.0,0.0,0.0,0.0,0.0,0.0,0.0,0.0,0.0,0.0,0.0,0.0,0.0,0.0,0.0,0.0,0.0,0.0,0.0,0.0,0.0,0.0,0.0,0.0,0.0,0.0,0.0,0.0,0.0,0.0,0.0,0.0,0.0,0.0,0.0,0.0,0.0,0.0,0.0,0.0,0.0,0.0,0.0,0.0,0.0,0.0,0.0,0.0,0.0,0.0,0.0,0.0,0.0,0.0,0.0,0.0,0.0,0.0,0.0,0.0,0.0,0.0,0.0,0.0,0.0,0.0,0.0,0.0,0.0,0.0,0.0,0.0,0.0,0.0,0.0,0.0,0.0,0.0,0.0,0.0,0.0,0.0,0.0,0.0,0.0,0.0,0.0,0.0,0.0,0.0,0.0,0.0,0.0,0.0,0.0,0.0,0.0,-1.1442,-1.4758,-0.8007,-0.2618,0.0,0.0,0.0,0.0,0.0,0.0,0.0,0.0,0.0,0.0,0.0,0.0,0.0,0.0,0.0,0.0,0.0,0.0,0.0,0.0,0.0,0.0,0.0,0.0,0.0,0.0,0.0,0.0,0.0,0.0,0.0,0.0,0.0,0.0,0.0,0.0,0.0,0.0,0.0,0.0,0.0,0.0,0.0,0.0,0.0,0.0,0.0,0.0,0.0,0.0,0.0,0.0,0.0,0.0,0.0,0.0,0.0,0.0,0.0,0.0,0.0,0.0,0.0,0.0,0.0,0.0,0.0,0.0,0.0,0.0,0.0,0.0,0.0,0.0,0.0,0.0,0.0,0.0,0.0,0.0,0.0,0.0,0.0,0.0,0.0,0.0,0.0,0.0,0.0,0.0,0.0,0.0,0.0,0.0,0.0,0.0,0.0,0.0,0.0,0.0,0.0,0.0,0.0,0.0,0.0,0.0,0.0,0.0,0.0,0.0,0.0,0.0,-1.1294,-1.771,-1.708,-0.7697,-0.177,-0.0,0.0,0.0,0.0,0.0,0.0,0.0,0.0,0.0,0.0,0.0,0.0,0.0,0.0,0.0,0.0,0.0,0.0,0.0,0.0,0.0,0.0,0.0,0.0,0.0,0.0,0.0,0.0,0.0,0.0,0.0,0.0,0.0,0.0,0.0,0.0,0.0,0.0,0.0,0.0,0.0,0.0,0.0,0.0,0.0,0.0,0.0,0.0,0.0,0.0,0.0,0.0,0.0,0.0,0.0,0.0,0.0,0.0,0.0,0.0,0.0,0.0,0.0,0.0,0.0,0.0,0.0,0.0,0.0,0.0,0.0,0.0,0.0,0.0,0.0,0.0,0.0,0.0,0.0,0.0,0.0,0.0,0.0,0.0,0.0,0.0,0.0,0.0,0.0,0.0,0.0,0.0,0.0,0.0,0.0,0.0,0.0,0.0,0.0,0.0,0.0,0.0,0.0,0.0,0.0,0.0,0.0,0.0,0.0,0.0,0.0,-1.1462,-1.7792,-1.784,-1.5575,-0.979,-0.0,0.0,0.0,0.0,0.0,0.0,0.0,0.0,0.0,0.0,0.0,0.0,0.0,0.0,0.0,0.0,0.0,0.0,0.0,0.0,0.0,0.0,0.0,0.0,0.0,0.0,0.0,0.0,0.0,0.0,0.0,0.0,0.0,0.0,0.0,0.0,0.0,0.0,0.0,0.0,0.0,0.0,0.0,0.0,0.0,0.0,0.0,0.0,0.0,0.0,0.0,0.0,0.0,0.0,0.0,0.0,0.0,0.0,0.0,0.0,0.0,0.0,0.0,0.0,0.0,0.0,0.0,0.0,0.0,0.0,0.0,0.0,0.0,0.0,0.0,0.0,0.0,0.0,0.0,0.0,0.0,0.0,0.0,0.0,0.0,0.0,0.0,0.0,0.0,0.0,0.0,0.0,0.0,0.0,0.0,0.0,0.0,0.0,0.0,0.0,0.0,0.0,0.0,0.0,0.0,0.0,0.0,0.0,0.0,0.0,0.0,-0.5309,-1.1138,-1.7806,-1.1416,-0.5366,-0.0,0.0,0.0,0.0,0.0,0.0,0.0,0.0,0.0,0.0,0.0,0.0,0.0,0.0,0.0,0.0,0.0,0.0,0.0,0.0,0.0,0.0,0.0,0.0,0.0,0.0,0.0,0.0,0.0,0.0,0.0,0.0,0.0,0.0,0.0,0.0,0.0,0.0,0.0,0.0,0.0,0.0,0.0,0.0,0.0,0.0,0.0,0.0,0.0,0.0,0.0,0.0,0.0,0.0,0.0,0.0,0.0,0.0,0.0,0.0,0.0,0.0,0.0,0.0,0.0,0.0,0.0,0.0,0.0,0.0,0.0,0.0,0.0,0.0,0.0,0.0,0.0,0.0,0.0,0.0,0.0,0.0,0.0,0.0,0.0,0.0,0.0,0.0,0.0,0.0,0.0,0.0,0.0,0.0,0.0,0.0,0.0,0.0,0.0,0.0,0.0,0.0,0.0,0.0,0.0,0.0,0.0,0.0,0.0,0.0,0.0,0.0,-0.4239,-1.3547,-0.4718,0.0,0.0,0.0,0.0,0.0,0.0,0.0,0.0,0.0,0.0,0.0,0.0,0.0,0.0,0.0,0.0,0.0,0.0,0.0,0.0,0.0,0.0,0.0,0.0,0.0,0.0,0.0,0.0,0.0,0.0,0.0,0.0,0.0,0.0,0.0,0.0,0.0,0.0,0.0,0.0,0.0,0.0,0.0,0.0,0.0,0.0,0.0,0.0,0.0,0.0,0.0,0.0,0.0,0.0,0.0,0.0,0.0,0.0,0.0,0.0,0.0,0.0,0.0,0.0,0.0,0.0,0.0,0.0,0.0,0.0,0.0,0.0,0.0,0.0,0.0,0.0,0.0,0.0,0.0,0.0,0.0,0.0,0.0,0.0,0.0,0.0,0.0,0.0,0.0,0.0,0.0,0.0,0.0,0.0,0.0,0.0,0.0,0.0,0.0,0.0,0.0,0.0,0.0,0.0,0.0,0.0,0.0,0.0,0.0,0.0,0.0,0.0,0.0,-0.0449,-0.1347,-0.0449,0.0,0.0,0.0,0.0,0.0,0.0,0.0,0.0,0.0,0.0,0.0,0.0,0.0,0.0,0.0,0.0,0.0,0.0,0.0,0.0,0.0,0.0,0.0,0.0,0.0,0.0,0.0,0.0,0.0,0.0,0.0,0.0,0.0,0.0,0.0,0.0,0.0,0.0,0.0,0.0,0.0,0.0,0.0,0.0,0.0,0.0,0.0,0.0,0.0,0.0,0.0,0.0,0.0,0.0,0.0,0.0,0.0,0.0,0.0,0.0,0.0,0.0,0.0,0.0,0.0,0.0,0.0,0.0,0.0,0.0,0.0,0.0,0.0,0.0,0.0,0.0,0.0,0.0,0.0,0.0,0.0,0.0,0.0,0.0,0.0,0.0,0.0,0.0,0.0,0.0,0.0,0.0,0.0,0.0,0.0,0.0,0.0,0.0,0.0,0.0,0.0,0.0,0.0,0.0,0.0,0.0,0.0,0.0,0.0,0.0,0.0,0.0,0.0,0.0,0.0,0.0,0.0,0.0,0.0,0.0,0.0,0.0,0.0,0.0,0.0,0.0,0.0,0.0,0.0,0.0,0.0,0.0,0.0,0.0,0.0,0.0,0.0,0.0,-0.1122,0.0,0.0,0.0,0.0,0.0,0.0,0.0,0.0,0.0,0.0,0.0,0.0,0.0,0.0,0.0,0.0,0.0,0.0,0.0,0.0,0.0,0.0,0.0,0.0,0.0,0.0,0.0,0.0,0.0,0.0,0.0,0.0,0.0,0.0,0.0,0.0,0.0,0.0,0.0,0.0,0.0,0.0,0.0,0.0,0.0,0.0,0.0,0.0,0.0,0.0,0.0,0.0,0.0,0.0,0.0,0.0,0.0,0.0,0.0,0.0,0.0,0.0,0.0,0.0,0.0,0.0,0.0,0.0,0.0,0.0,0.0,0.0,0.0,0.0,0.0,0.0,0.0,0.0,0.0,0.0,0.0,0.0,0.0,0.0,0.0,0.0,0.0,0.0,0.0,0.0,0.0,0.0,0.0,0.0,0.0,0.0,0.0,0.0,0.0,0.0,0.0,0.0,0.0,0.0,0.0,0.0,0.0,0.0,0.0,0.0,0.0,0.0,0.0,0.0,0.0,-0.1796,0.0,0.0,0.0,0.0,0.0,0.0,0.0,0.0,0.0,0.0,0.0,0.0,0.0,0.0,0.0,0.0,0.0,0.0,0.0,0.0,0.0,0.0,0.0,0.0,0.0,0.0,0.0,0.0,0.0,0.0,0.0,0.0,0.0,0.0,0.0,0.0,0.0,0.0,0.0,0.0,0.0,0.0,0.0,0.0,0.0,0.0,0.0,0.0,0.0,0.0,0.0,0.0,0.0,0.0,0.0,0.0,0.0,0.0,0.0,0.0,0.0,0.0,0.0,0.0,0.0,0.0,0.0,0.0,0.0,0.0,0.0,0.0,0.0,0.0,0.0,0.0,0.0,0.0,0.0,0.0,0.0,0.0,0.0,0.0,0.0,0.0,0.0,0.0,0.0,0.0,0.0,0.0,0.0,0.0,0.0,0.0,0.0,0.0,0.0,0.0,0.0,0.0,0.0,0.0,0.0,0.0,0.0,0.0,0.0,0.0,0.0,0.0,0.0,0.0,-0.0,-0.1796,0.0,0.0,0.0,0.0,0.0,0.0,0.0,0.0,0.0,0.0,0.0,0.0,0.0,0.0,0.0,0.0,0.0,0.0,0.0,0.0,0.0,0.0,0.0,0.0,0.0,0.0,0.0,0.0,0.0,0.0,0.0,0.0,0.0,0.0,0.0,0.0,0.0,0.0,0.0,0.0,0.0,0.0,0.0,0.0,0.0,0.0,0.0,0.0,0.0,0.0,0.0,0.0,0.0,0.0,0.0,0.0,0.0,0.0,0.0,0.0,0.0,0.0,0.0,0.0,0.0,0.0,0.0,0.0,0.0,0.0,0.0,0.0,0.0,0.0,0.0,0.0,0.0,0.0,0.0,0.0,0.0,0.0,0.0,0.0,0.0,0.0,0.0,0.0,0.0,0.0,0.0,0.0,0.0,0.0,0.0,0.0,0.0,0.0,0.0,0.0,0.0,0.0,0.0,0.0,0.0,0.0,0.0,0.0,0.0,0.0,0.0,0.0,0.0,0.0,-0.2694,-0.6737,0.0,0.0,0.0,0.0,0.0,0.0,0.0,0.0,0.0,0.0,0.0,0.0,0.0,0.0,0.0,0.0,0.0,0.0,0.0,0.0,0.0,0.0,0.0,0.0,0.0,0.0,0.0,0.0,0.0,0.0,0.0,0.0,0.0,0.0,0.0,0.0,0.0,0.0,0.0,0.0,0.0,0.0,0.0,0.0,0.0,0.0,0.0,0.0,0.0,0.0,0.0,0.0,0.0,0.0,0.0,0.0,0.0,0.0,0.0,0.0,0.0,0.0,0.0,0.0,0.0,0.0,0.0,0.0,0.0,0.0,0.0,0.0,0.0,0.0,0.0,0.0,0.0,0.0,0.0,0.0,0.0,0.0,0.0,0.0,0.0,0.0,0.0,0.0,0.0,0.0,0.0,0.0,0.0,0.0,0.0,0.0,0.0,0.0,0.0,0.0,0.0,0.0,0.0,0.0,0.0,0.0,0.0,0.0,0.0,-0.0449,-0.5163,-0.718,-0.6732,-0.4479,-0.5826,-0.9195,0.0,0.0,0.0,0.0,0.0,0.0,0.0,0.0,0.0,0.0,0.0,0.0,0.0,0.0,0.0,0.0,0.0,0.0,0.0,0.0,0.0,0.0,0.0,0.0,0.0,0.0,0.0,0.0,0.0,0.0,0.0,0.0,0.0,0.0,0.0,0.0,0.0,0.0,0.0,0.0,0.0,0.0,0.0,0.0,0.0,0.0,0.0,0.0,0.0,0.0,0.0,0.0,0.0,0.0,0.0,0.0,0.0,0.0,0.0,0.0,0.0,0.0,0.0,0.0,0.0,0.0,0.0,0.0,0.0,0.0,0.0,0.0,0.0,0.0,0.0,0.0,0.0,0.0,0.0,0.0,0.0,0.0,0.0,0.0,0.0,0.0,0.0,0.0,0.0,0.0,0.0,0.0,0.0,0.0,0.0,0.0,0.0,0.0,0.0,0.0,0.0,0.0,0.0,0.0,0.0,0.0,0.0,0.0,-0.0673,-0.2692,-1.3735,-1.7847,-1.7137,-1.1643,-0.9609,-1.0508,0.0,0.0,0.0,0.0,0.0,0.0,0.0,0.0,0.0,0.0,0.0,0.0,0.0,0.0,0.0,0.0,0.0,0.0,0.0,0.0,0.0,0.0,0.0,0.0,0.0,0.0,0.0,0.0,0.0,0.0,0.0,0.0,0.0,0.0,0.0,0.0,0.0,0.0,0.0,0.0,0.0,0.0,0.0,0.0,0.0,0.0,0.0,0.0,0.0,0.0,0.0,0.0,0.0,0.0,0.0,0.0,0.0,0.0,0.0,0.0,0.0,0.0,0.0,0.0,0.0,0.0,0.0,0.0,0.0,0.0,0.0,0.0,0.0,0.0,0.0,0.0,0.0,0.0,0.0,0.0,0.0,0.0,0.0,0.0,0.0,0.0,0.0,0.0,0.0,0.0,0.0,0.0,0.0,0.0,0.0,0.0,0.0,0.0,0.0,0.0,0.0,0.0,0.0,0.0,0.0,0.0,0.0,0.0,-0.5611,-1.4194,-1.6919,-1.7827,-1.7786,-1.6398,-1.594,-1.6169,0.0,0.0,0.0,0.0,0.0,0.0,0.0,0.0,0.0,0.0,0.0,0.0,0.0,0.0,0.0,0.0,0.0,0.0,0.0,0.0,0.0,0.0,0.0,0.0,0.0,0.0,0.0,0.0,0.0,0.0,0.0,0.0,0.0,0.0,0.0,0.0,0.0,0.0,0.0,0.0,0.0,0.0,0.0,0.0,0.0,0.0,0.0,0.0,0.0,0.0,0.0,0.0,0.0,0.0,0.0,0.0,0.0,0.0,0.0,0.0,0.0,0.0,0.0,0.0,0.0,0.0,0.0,0.0,0.0,0.0,0.0,0.0,0.0,0.0,0.0,0.0,0.0,0.0,0.0,0.0,0.0,0.0,0.0,0.0,0.0,0.0,0.0,0.0,0.0,0.0,0.0,0.0,0.0,0.0,0.0,0.0,0.0,0.0,0.0,0.0,0.0,0.0,0.0,0.0,0.0,0.0,0.0,0.0,-0.718,-1.7847,-1.7827,-1.8002,-1.7968,-1.7948,-1.7935,-1.7935,0.0,0.0,0.0,0.0,0.0,0.0,0.0,0.0,0.0,0.0,0.0,0.0,0.0,0.0,0.0,0.0,0.0,0.0,0.0,0.0,0.0,0.0,0.0,0.0,0.0,0.0,0.0,0.0,0.0,0.0,0.0,0.0,0.0,0.0,0.0,0.0,0.0,0.0,0.0,0.0,0.0,0.0,0.0,0.0,0.0,0.0,0.0,0.0,0.0,0.0,0.0,0.0,0.0,0.0,0.0,0.0,0.0,0.0,0.0,0.0,0.0,0.0,0.0,0.0,0.0,0.0,0.0,0.0,0.0,0.0,0.0,0.0,0.0,0.0,0.0,0.0,0.0,0.0,0.0,0.0,0.0,0.0,0.0,0.0,0.0,0.0,0.0,0.0,0.0,0.0,0.0,0.0,0.0,0.0,0.0,0.0,0.0,0.0,0.0,0.0,0.0,0.0,0.0,0.0,0.0,-0.1122,-0.3141,-0.3141,-0.8974,-1.7813,-1.8002,-1.7968,-1.7914,-1.788,-1.786,-1.786,0.0,0.0,0.0,0.0,0.0,0.0,0.0,0.0,0.0,0.0,0.0,0.0,0.0,0.0,0.0,0.0,0.0,0.0,0.0,0.0,0.0,0.0,0.0,0.0,0.0,0.0,0.0,0.0,0.0,0.0,0.0,0.0,0.0,0.0,0.0,0.0,0.0,0.0,0.0,0.0,0.0,0.0,0.0,0.0,0.0,0.0,0.0,0.0,0.0,0.0,0.0,0.0,0.0,0.0,0.0,0.0,0.0,0.0,0.0,0.0,0.0,0.0,0.0,0.0,0.0,0.0,0.0,0.0,0.0,0.0,0.0,0.0,0.0,0.0,0.0,0.0,0.0,0.0,0.0,0.0,0.0,0.0,0.0,0.0,0.0,0.0,0.0,0.0,0.0,0.0,0.0,0.0,0.0,0.0,0.0,0.0,0.0,0.0,0.0,0.0,0.0,0.0,0.0,0.0,0.0,-0.5838,-1.5559,-1.5559,-1.6429,-1.7948,-1.7948,-1.7914,-1.786,-1.786,-1.786,-1.786,0.0,0.0,0.0,0.0,0.0,0.0,0.0,0.0,0.0,0.0,0.0,0.0,0.0,0.0,0.0,0.0,0.0,0.0,0.0,0.0,0.0,0.0,0.0,0.0,0.0,0.0,0.0,0.0,0.0,0.0,0.0,0.0,0.0,0.0,0.0,0.0,0.0,0.0,0.0,0.0,0.0,0.0,0.0,0.0,0.0,0.0,0.0,0.0,0.0,0.0,0.0,0.0,0.0,0.0,0.0,0.0,0.0,0.0,0.0,0.0,0.0,0.0,0.0,0.0,0.0,0.0,0.0,0.0,0.0,0.0,0.0,0.0,0.0,0.0,0.0,0.0,0.0,0.0,0.0,0.0,0.0,0.0,0.0,0.0,0.0,0.0,0.0,0.0,0.0,0.0,0.0,0.0,0.0,0.0,0.0,0.0,0.0,0.0,0.0,0.0,0.0,0.0,0.0,-0.0449,-0.718,-1.3054,-1.7847,-1.7813,-1.7982,-1.7935,-1.7935,-1.7894,-1.786,-1.786,-1.786,-1.786]}]]